Wetterdaten: Freitag, 08.09.2017
Datum Zeit Temp. A. Pool Temp. Feuchte A. Luftdruck Regen Wind Richtung Richtung Sonnenschein ET UV Solar Taupunkt Windchill Windben Empfang
08.09.2017 00:00 11,4 C 18,3 C 89 % 1015,5 hPa 0,0 l/m 4,9 km/h (1 Bft) SW 222 0 min 0,000 mm 0,0 UV-I 0 W/m 9,7 C 11,4 C 6,4 km/h (2 Bft) 100,00 %
08.09.2017 00:02 11,3 C 18,3 C 90 % 1015,4 hPa 0,0 l/m 5,1 km/h (1 Bft) SW 222 0 min 0,000 mm 0,0 UV-I 0 W/m 9,7 C 11,3 C 6,4 km/h (2 Bft) 100,00 %
08.09.2017 00:04 11,3 C 18,3 C 90 % 1015,5 hPa 0,0 l/m 4,4 km/h (1 Bft) SW 222 0 min 0,000 mm 0,0 UV-I 0 W/m 9,7 C 11,3 C 6,4 km/h (2 Bft) 97,87 %
08.09.2017 00:06 11,3 C 18,3 C 90 % 1015,5 hPa 0,0 l/m 5,0 km/h (1 Bft) SW 222 0 min 0,000 mm 0,0 UV-I 0 W/m 9,7 C 11,3 C 6,4 km/h (2 Bft) 97,87 %
08.09.2017 00:08 11,3 C 18,3 C 90 % 1015,6 hPa 0,0 l/m 4,7 km/h (1 Bft) SW 222 0 min 0,000 mm 0,0 UV-I 0 W/m 9,7 C 11,3 C 6,4 km/h (2 Bft) 97,87 %
08.09.2017 00:10 11,3 C 18,3 C 90 % 1015,5 hPa 0,0 l/m 4,1 km/h (1 Bft) SW 222 0 min 0,000 mm 0,0 UV-I 0 W/m 9,7 C 11,3 C 6,4 km/h (2 Bft) 97,87 %
08.09.2017 00:12 11,2 C 18,3 C 90 % 1015,6 hPa 0,0 l/m 4,0 km/h (1 Bft) SW 222 0 min 0,000 mm 0,0 UV-I 0 W/m 9,6 C 11,2 C 8,0 km/h (2 Bft) 98,00 %
08.09.2017 00:14 11,2 C 18,3 C 90 % 1015,6 hPa 0,0 l/m 2,0 km/h (1 Bft) SW 222 0 min 0,000 mm 0,0 UV-I 0 W/m 9,6 C 11,2 C 3,2 km/h (1 Bft) 100,00 %
08.09.2017 00:16 11,1 C 18,3 C 90 % 1015,6 hPa 0,0 l/m 2,0 km/h (1 Bft) SW 222 0 min 0,000 mm 0,0 UV-I 0 W/m 9,5 C 11,1 C 4,8 km/h (1 Bft) 100,00 %
08.09.2017 00:18 11,0 C 18,3 C 90 % 1015,7 hPa 0,0 l/m 1,6 km/h (1 Bft) SW 222 0 min 0,000 mm 0,0 UV-I 0 W/m 9,4 C 11,0 C 4,8 km/h (1 Bft) 100,00 %
08.09.2017 00:20 10,9 C 18,3 C 90 % 1015,6 hPa 0,0 l/m 1,7 km/h (1 Bft) SW 222 0 min 0,000 mm 0,0 UV-I 0 W/m 9,3 C 10,9 C 4,8 km/h (1 Bft) 100,00 %
08.09.2017 00:22 10,9 C 18,3 C 90 % 1015,7 hPa 0,0 l/m 2,0 km/h (1 Bft) SW 222 0 min 0,000 mm 0,0 UV-I 0 W/m 9,3 C 10,9 C 4,8 km/h (1 Bft) 97,87 %
08.09.2017 00:24 10,8 C 18,3 C 90 % 1015,6 hPa 0,0 l/m 1,6 km/h (1 Bft) SW 222 0 min 0,000 mm 0,0 UV-I 0 W/m 9,2 C 10,8 C 4,8 km/h (1 Bft) 100,00 %
08.09.2017 00:26 10,8 C 18,3 C 91 % 1015,6 hPa 0,0 l/m 1,4 km/h (1 Bft) SW 222 0 min 0,000 mm 0,0 UV-I 0 W/m 9,4 C 10,8 C 3,2 km/h (1 Bft) 95,74 %
08.09.2017 00:28 10,8 C 18,3 C 91 % 1015,6 hPa 0,0 l/m 1,6 km/h (1 Bft) SW 222 0 min 0,000 mm 0,0 UV-I 0 W/m 9,4 C 10,8 C 3,2 km/h (1 Bft) 100,00 %
08.09.2017 00:30 10,7 C 18,3 C 91 % 1015,6 hPa 0,0 l/m 1,9 km/h (1 Bft) SW 222 0 min 0,000 mm 0,0 UV-I 0 W/m 9,3 C 10,7 C 3,2 km/h (1 Bft) 100,00 %
08.09.2017 00:32 10,7 C 18,3 C 91 % 1015,6 hPa 0,0 l/m 2,1 km/h (1 Bft) SW 222 0 min 0,000 mm 0,0 UV-I 0 W/m 9,3 C 10,7 C 4,8 km/h (1 Bft) 100,00 %
08.09.2017 00:34 10,7 C 18,3 C 91 % 1015,6 hPa 0,0 l/m 2,0 km/h (1 Bft) SW 222 0 min 0,000 mm 0,0 UV-I 0 W/m 9,3 C 10,7 C 4,8 km/h (1 Bft) 98,00 %
08.09.2017 00:36 10,7 C 18,3 C 91 % 1015,5 hPa 0,0 l/m 1,1 km/h (1 Bft) SW 222 0 min 0,000 mm 0,0 UV-I 0 W/m 9,3 C 10,7 C 3,2 km/h (1 Bft) 100,00 %
08.09.2017 00:38 10,7 C 18,3 C 91 % 1015,5 hPa 0,0 l/m 0,4 km/h (0 Bft) SW 222 0 min 0,000 mm 0,0 UV-I 0 W/m 9,3 C 10,7 C 1,6 km/h (1 Bft) 100,00 %
08.09.2017 00:40 10,6 C 18,3 C 91 % 1015,6 hPa 0,0 l/m 1,7 km/h (1 Bft) SW 222 0 min 0,000 mm 0,0 UV-I 0 W/m 9,2 C 10,6 C 3,2 km/h (1 Bft) 100,00 %
08.09.2017 00:42 10,6 C 18,3 C 91 % 1015,6 hPa 0,0 l/m 2,9 km/h (1 Bft) SW 222 0 min 0,000 mm 0,0 UV-I 0 W/m 9,2 C 10,6 C 4,8 km/h (1 Bft) 98,00 %
08.09.2017 00:44 10,6 C 18,3 C 91 % 1015,5 hPa 0,0 l/m 3,0 km/h (1 Bft) SW 222 0 min 0,000 mm 0,0 UV-I 0 W/m 9,2 C 10,6 C 4,8 km/h (1 Bft) 95,74 %
08.09.2017 00:46 10,6 C 18,3 C 91 % 1015,5 hPa 0,0 l/m 2,8 km/h (1 Bft) SW 222 0 min 0,000 mm 0,0 UV-I 0 W/m 9,2 C 10,6 C 4,8 km/h (1 Bft) 100,00 %
08.09.2017 00:48 10,6 C 18,3 C 91 % 1015,5 hPa 0,0 l/m 1,9 km/h (1 Bft) SW 222 0 min 0,000 mm 0,0 UV-I 0 W/m 9,2 C 10,6 C 3,2 km/h (1 Bft) 97,87 %
08.09.2017 00:50 10,6 C 18,3 C 91 % 1015,6 hPa 0,0 l/m 3,2 km/h (1 Bft) SW 222 0 min 0,000 mm 0,0 UV-I 0 W/m 9,2 C 10,6 C 4,8 km/h (1 Bft) 100,00 %
08.09.2017 00:52 10,6 C 18,3 C 91 % 1015,6 hPa 0,0 l/m 2,8 km/h (1 Bft) SW 222 0 min 0,000 mm 0,0 UV-I 0 W/m 9,2 C 10,6 C 4,8 km/h (1 Bft) 97,87 %
08.09.2017 00:54 10,6 C 18,3 C 91 % 1015,6 hPa 0,0 l/m 3,7 km/h (1 Bft) SW 222 0 min 0,000 mm 0,0 UV-I 0 W/m 9,2 C 10,6 C 6,4 km/h (2 Bft) 100,00 %
08.09.2017 00:56 10,6 C 18,3 C 91 % 1015,6 hPa 0,0 l/m 2,5 km/h (1 Bft) SW 222 0 min 0,000 mm 0,0 UV-I 0 W/m 9,2 C 10,6 C 4,8 km/h (1 Bft) 100,00 %
08.09.2017 00:58 10,6 C 18,3 C 91 % 1015,5 hPa 0,0 l/m 1,0 km/h (0 Bft) S-SW 200 0 min 0,000 mm 0,0 UV-I 0 W/m 9,2 C 10,6 C 3,2 km/h (1 Bft) 98,00 %
08.09.2017 01:00 10,6 C 18,3 C 91 % 1015,5 hPa 0,0 l/m 1,8 km/h (1 Bft) S-SW 200 0 min 0,000 mm 0,0 UV-I 0 W/m 9,2 C 10,6 C 3,2 km/h (1 Bft) 100,00 %
08.09.2017 01:02 10,4 C 18,3 C 91 % 1015,5 hPa 0,0 l/m 1,4 km/h (1 Bft) S-SW 199 0 min 0,000 mm 0,0 UV-I 0 W/m 9,0 C 10,4 C 3,2 km/h (1 Bft) 100,00 %
08.09.2017 01:04 10,4 C 18,3 C 91 % 1015,4 hPa 0,0 l/m 1,6 km/h (1 Bft) S-SW 199 0 min 0,000 mm 0,0 UV-I 0 W/m 9,0 C 10,4 C 3,2 km/h (1 Bft) 100,00 %
08.09.2017 01:06 10,4 C 18,3 C 92 % 1015,4 hPa 0,0 l/m 1,5 km/h (1 Bft) S-SW 200 0 min 0,000 mm 0,0 UV-I 0 W/m 9,2 C 10,4 C 3,2 km/h (1 Bft) 97,87 %
08.09.2017 01:08 10,4 C 18,3 C 91 % 1015,5 hPa 0,0 l/m 1,5 km/h (1 Bft) S-SW 200 0 min 0,000 mm 0,0 UV-I 0 W/m 9,0 C 10,4 C 3,2 km/h (1 Bft) 100,00 %
08.09.2017 01:10 10,4 C 18,3 C 91 % 1015,5 hPa 0,0 l/m 2,7 km/h (1 Bft) S-SW 200 0 min 0,000 mm 0,0 UV-I 0 W/m 9,0 C 10,4 C 4,8 km/h (1 Bft) 100,00 %
08.09.2017 01:12 10,4 C 18,3 C 91 % 1015,5 hPa 0,0 l/m 2,2 km/h (1 Bft) S-SW 199 0 min 0,000 mm 0,0 UV-I 0 W/m 9,0 C 10,4 C 3,2 km/h (1 Bft) 97,92 %
08.09.2017 01:14 10,4 C 18,3 C 91 % 1015,6 hPa 0,0 l/m 1,7 km/h (1 Bft) S-SW 199 0 min 0,000 mm 0,0 UV-I 0 W/m 9,0 C 10,4 C 3,2 km/h (1 Bft) 100,00 %
08.09.2017 01:16 10,3 C 18,3 C 91 % 1015,5 hPa 0,0 l/m 1,3 km/h (1 Bft) S-SW 200 0 min 0,000 mm 0,0 UV-I 0 W/m 8,9 C 10,3 C 3,2 km/h (1 Bft) 94,00 %
08.09.2017 01:18 10,3 C 18,3 C 91 % 1015,5 hPa 0,0 l/m 0,3 km/h (0 Bft) S-SW 199 0 min 0,000 mm 0,0 UV-I 0 W/m 8,9 C 10,3 C 1,6 km/h (1 Bft) 97,92 %
08.09.2017 01:20 10,3 C 18,3 C 91 % 1015,5 hPa 0,0 l/m 1,3 km/h (1 Bft) S-SW 199 0 min 0,000 mm 0,0 UV-I 0 W/m 8,9 C 10,3 C 3,2 km/h (1 Bft) 95,74 %
08.09.2017 01:22 10,3 C 18,3 C 91 % 1015,5 hPa 0,0 l/m 1,5 km/h (1 Bft) S-SW 200 0 min 0,000 mm 0,0 UV-I 0 W/m 8,9 C 10,3 C 3,2 km/h (1 Bft) 95,74 %
08.09.2017 01:24 10,3 C 18,3 C 92 % 1015,4 hPa 0,0 l/m 1,7 km/h (1 Bft) S 188 0 min 0,000 mm 0,0 UV-I 0 W/m 9,1 C 10,3 C 3,2 km/h (1 Bft) 97,56 %
08.09.2017 01:26 10,3 C 18,3 C 92 % 1015,4 hPa 0,0 l/m 2,2 km/h (1 Bft) S 186 0 min 0,000 mm 0,0 UV-I 0 W/m 9,1 C 10,3 C 3,2 km/h (1 Bft) 97,92 %
08.09.2017 01:28 10,4 C 18,3 C 92 % 1015,4 hPa 0,0 l/m 2,2 km/h (1 Bft) S 186 0 min 0,000 mm 0,0 UV-I 0 W/m 9,2 C 10,4 C 3,2 km/h (1 Bft) 93,62 %
08.09.2017 01:30 10,4 C 18,3 C 91 % 1015,3 hPa 0,0 l/m 2,7 km/h (1 Bft) S 184 0 min 0,000 mm 0,0 UV-I 0 W/m 9,0 C 10,4 C 4,8 km/h (1 Bft) 93,62 %
08.09.2017 01:32 10,4 C 18,3 C 92 % 1015,3 hPa 0,0 l/m 2,3 km/h (1 Bft) S 183 0 min 0,000 mm 0,0 UV-I 0 W/m 9,2 C 10,4 C 4,8 km/h (1 Bft) 93,62 %
08.09.2017 01:34 10,4 C 18,3 C 92 % 1015,2 hPa 0,0 l/m 3,2 km/h (1 Bft) S 183 0 min 0,000 mm 0,0 UV-I 0 W/m 9,2 C 10,4 C 6,4 km/h (2 Bft) 93,62 %
08.09.2017 01:36 10,4 C 18,3 C 91 % 1015,2 hPa 0,0 l/m 3,2 km/h (1 Bft) S 184 0 min 0,000 mm 0,0 UV-I 0 W/m 9,0 C 10,4 C 6,4 km/h (2 Bft) 93,62 %
08.09.2017 01:38 10,4 C 18,3 C 91 % 1015,2 hPa 0,0 l/m 2,7 km/h (1 Bft) S 184 0 min 0,000 mm 0,0 UV-I 0 W/m 9,0 C 10,4 C 4,8 km/h (1 Bft) 93,62 %
08.09.2017 01:40 10,4 C 18,3 C 91 % 1015,2 hPa 0,0 l/m 3,2 km/h (1 Bft) S 184 0 min 0,000 mm 0,0 UV-I 0 W/m 9,0 C 10,4 C 4,8 km/h (1 Bft) 95,74 %
08.09.2017 01:42 10,4 C 18,3 C 91 % 1015,2 hPa 0,0 l/m 3,3 km/h (1 Bft) S 184 0 min 0,000 mm 0,0 UV-I 0 W/m 9,0 C 10,4 C 4,8 km/h (1 Bft) 93,62 %
08.09.2017 01:44 10,4 C 18,3 C 91 % 1015,2 hPa 0,0 l/m 4,5 km/h (1 Bft) S 184 0 min 0,000 mm 0,0 UV-I 0 W/m 9,0 C 10,4 C 6,4 km/h (2 Bft) 91,49 %
08.09.2017 01:46 10,4 C 18,3 C 91 % 1015,2 hPa 0,0 l/m 3,9 km/h (1 Bft) S 184 0 min 0,000 mm 0,0 UV-I 0 W/m 9,0 C 10,4 C 4,8 km/h (1 Bft) 94,00 %
08.09.2017 01:48 10,4 C 18,3 C 91 % 1015,2 hPa 0,0 l/m 3,7 km/h (1 Bft) S 184 0 min 0,000 mm 0,0 UV-I 0 W/m 9,0 C 10,4 C 4,8 km/h (1 Bft) 95,74 %
08.09.2017 01:50 10,3 C 18,3 C 91 % 1015,3 hPa 0,0 l/m 2,4 km/h (1 Bft) S 184 0 min 0,000 mm 0,0 UV-I 0 W/m 8,9 C 10,3 C 3,2 km/h (1 Bft) 93,62 %
08.09.2017 01:52 10,3 C 18,3 C 91 % 1015,3 hPa 0,0 l/m 2,5 km/h (1 Bft) S 184 0 min 0,000 mm 0,0 UV-I 0 W/m 8,9 C 10,3 C 3,2 km/h (1 Bft) 95,74 %
08.09.2017 01:54 10,2 C 18,3 C 91 % 1015,3 hPa 0,0 l/m 1,5 km/h (1 Bft) S 184 0 min 0,000 mm 0,0 UV-I 0 W/m 8,8 C 10,2 C 3,2 km/h (1 Bft) 95,74 %
08.09.2017 01:56 10,2 C 18,3 C 91 % 1015,3 hPa 0,0 l/m 1,5 km/h (1 Bft) S 184 0 min 0,000 mm 0,0 UV-I 0 W/m 8,8 C 10,2 C 3,2 km/h (1 Bft) 94,44 %
08.09.2017 01:58 10,2 C 18,3 C 91 % 1015,2 hPa 0,0 l/m 1,9 km/h (1 Bft) S 184 0 min 0,000 mm 0,0 UV-I 0 W/m 8,8 C 10,2 C 3,2 km/h (1 Bft) 96,00 %
08.09.2017 02:00 10,1 C 18,3 C 91 % 1015,2 hPa 0,0 l/m 2,7 km/h (1 Bft) S 184 0 min 0,000 mm 0,0 UV-I 0 W/m 8,7 C 10,1 C 3,2 km/h (1 Bft) 97,87 %
08.09.2017 02:02 10,0 C 18,3 C 92 % 1015,2 hPa 0,0 l/m 3,4 km/h (1 Bft) S 184 0 min 0,000 mm 0,0 UV-I 0 W/m 8,8 C 10,0 C 4,8 km/h (1 Bft) 97,87 %
08.09.2017 02:04 10,0 C 18,3 C 92 % 1015,2 hPa 0,0 l/m 3,2 km/h (1 Bft) S 184 0 min 0,000 mm 0,0 UV-I 0 W/m 8,8 C 10,0 C 4,8 km/h (1 Bft) 95,74 %
08.09.2017 02:06 9,9 C 18,3 C 92 % 1015,2 hPa 0,0 l/m 2,4 km/h (1 Bft) S 184 0 min 0,000 mm 0,0 UV-I 0 W/m 8,7 C 9,9 C 3,2 km/h (1 Bft) 94,34 %
08.09.2017 02:08 9,9 C 18,3 C 92 % 1015,1 hPa 0,0 l/m 2,0 km/h (1 Bft) S 184 0 min 0,000 mm 0,0 UV-I 0 W/m 8,7 C 9,9 C 3,2 km/h (1 Bft) 97,87 %
08.09.2017 02:10 9,8 C 18,3 C 92 % 1015,2 hPa 0,0 l/m 1,2 km/h (1 Bft) S 184 0 min 0,000 mm 0,0 UV-I 0 W/m 8,6 C 9,8 C 3,2 km/h (1 Bft) 96,00 %
08.09.2017 02:12 9,7 C 18,3 C 92 % 1015,1 hPa 0,0 l/m 1,2 km/h (1 Bft) S 184 0 min 0,000 mm 0,0 UV-I 0 W/m 8,5 C 9,7 C 3,2 km/h (1 Bft) 95,74 %
08.09.2017 02:14 9,7 C 18,3 C 92 % 1015,1 hPa 0,0 l/m 1,0 km/h (0 Bft) S 184 0 min 0,000 mm 0,0 UV-I 0 W/m 8,5 C 9,7 C 3,2 km/h (1 Bft) 97,14 %
08.09.2017 02:16 9,6 C 18,3 C 92 % 1015,0 hPa 0,0 l/m 1,2 km/h (1 Bft) S 184 0 min 0,000 mm 0,0 UV-I 0 W/m 8,4 C 9,6 C 3,2 km/h (1 Bft) 100,00 %
08.09.2017 02:18 9,6 C 18,3 C 92 % 1015,0 hPa 0,0 l/m 0,7 km/h (0 Bft) S 184 0 min 0,000 mm 0,0 UV-I 0 W/m 8,4 C 9,6 C 1,6 km/h (1 Bft) 97,87 %
08.09.2017 02:20 9,6 C 18,3 C 92 % 1015,0 hPa 0,0 l/m 1,2 km/h (1 Bft) S 184 0 min 0,000 mm 0,0 UV-I 0 W/m 8,4 C 9,6 C 3,2 km/h (1 Bft) 95,74 %
08.09.2017 02:22 9,6 C 18,3 C 92 % 1015,0 hPa 0,0 l/m 0,5 km/h (0 Bft) S 184 0 min 0,000 mm 0,0 UV-I 0 W/m 8,4 C 9,6 C 1,6 km/h (1 Bft) 100,00 %
08.09.2017 02:24 9,6 C 18,3 C 93 % 1014,9 hPa 0,0 l/m 0,2 km/h (0 Bft) S 184 0 min 0,000 mm 0,0 UV-I 0 W/m 8,5 C 9,6 C 1,6 km/h (1 Bft) 97,87 %
08.09.2017 02:26 9,6 C 18,3 C 93 % 1015,0 hPa 0,0 l/m 0,1 km/h (0 Bft) S 184 0 min 0,000 mm 0,0 UV-I 0 W/m 8,5 C 9,6 C 1,6 km/h (1 Bft) 93,62 %
08.09.2017 02:28 9,6 C 18,3 C 93 % 1015,0 hPa 0,0 l/m 1,4 km/h (1 Bft) S 184 0 min 0,000 mm 0,0 UV-I 0 W/m 8,5 C 9,6 C 3,2 km/h (1 Bft) 97,87 %
08.09.2017 02:30 9,6 C 18,3 C 93 % 1015,0 hPa 0,0 l/m 1,1 km/h (1 Bft) S 184 0 min 0,000 mm 0,0 UV-I 0 W/m 8,5 C 9,6 C 3,2 km/h (1 Bft) 100,00 %
08.09.2017 02:32 9,6 C 18,3 C 93 % 1015,0 hPa 0,0 l/m 2,7 km/h (1 Bft) S 184 0 min 0,000 mm 0,0 UV-I 0 W/m 8,5 C 9,6 C 4,8 km/h (1 Bft) 100,00 %
08.09.2017 02:34 9,6 C 18,3 C 92 % 1015,0 hPa 0,0 l/m 1,5 km/h (1 Bft) S 184 0 min 0,000 mm 0,0 UV-I 0 W/m 8,4 C 9,6 C 3,2 km/h (1 Bft) 100,00 %
08.09.2017 02:36 9,6 C 18,3 C 93 % 1015,0 hPa 0,0 l/m 0,0 km/h (0 Bft) S 184 0 min 0,000 mm 0,0 UV-I 0 W/m 8,5 C 9,6 C 0,0 km/h (0 Bft) 97,87 %
08.09.2017 02:38 9,6 C 18,3 C 93 % 1014,9 hPa 0,0 l/m 0,0 km/h (0 Bft) S 184 0 min 0,000 mm 0,0 UV-I 0 W/m 8,5 C 9,6 C 1,6 km/h (1 Bft) 100,00 %
08.09.2017 02:40 9,6 C 18,3 C 93 % 1015,0 hPa 0,0 l/m 0,0 km/h (0 Bft) S 184 0 min 0,000 mm 0,0 UV-I 0 W/m 8,5 C 9,6 C 0,0 km/h (0 Bft) 100,00 %
08.09.2017 02:42 9,6 C 18,3 C 93 % 1015,0 hPa 0,0 l/m 0,4 km/h (0 Bft) S 184 0 min 0,000 mm 0,0 UV-I 0 W/m 8,5 C 9,6 C 1,6 km/h (1 Bft) 100,00 %
08.09.2017 02:44 9,6 C 18,3 C 93 % 1014,9 hPa 0,0 l/m 1,5 km/h (1 Bft) S 184 0 min 0,000 mm 0,0 UV-I 0 W/m 8,5 C 9,6 C 3,2 km/h (1 Bft) 100,00 %
08.09.2017 02:46 9,6 C 18,3 C 93 % 1015,0 hPa 0,0 l/m 1,5 km/h (1 Bft) S 184 0 min 0,000 mm 0,0 UV-I 0 W/m 8,5 C 9,6 C 3,2 km/h (1 Bft) 100,00 %
08.09.2017 02:48 9,6 C 18,3 C 93 % 1015,0 hPa 0,0 l/m 2,7 km/h (1 Bft) S 184 0 min 0,000 mm 0,0 UV-I 0 W/m 8,5 C 9,6 C 4,8 km/h (1 Bft) 100,00 %
08.09.2017 02:50 9,5 C 18,3 C 92 % 1015,0 hPa 0,0 l/m 2,3 km/h (1 Bft) S 184 0 min 0,000 mm 0,0 UV-I 0 W/m 8,3 C 9,5 C 4,8 km/h (1 Bft) 97,87 %
08.09.2017 02:52 9,4 C 18,3 C 92 % 1015,0 hPa 0,0 l/m 0,7 km/h (0 Bft) S 184 0 min 0,000 mm 0,0 UV-I 0 W/m 8,2 C 9,4 C 1,6 km/h (1 Bft) 100,00 %
08.09.2017 02:54 9,3 C 18,3 C 92 % 1015,0 hPa 0,0 l/m 0,0 km/h (0 Bft) S 184 0 min 0,000 mm 0,0 UV-I 0 W/m 8,1 C 9,3 C 0,0 km/h (0 Bft) 100,00 %
08.09.2017 02:56 9,3 C 18,3 C 93 % 1015,0 hPa 0,0 l/m 0,0 km/h (0 Bft) S 184 0 min 0,000 mm 0,0 UV-I 0 W/m 8,2 C 9,3 C 0,0 km/h (0 Bft) 97,87 %
08.09.2017 02:58 9,3 C 18,3 C 93 % 1015,1 hPa 0,0 l/m 1,0 km/h (0 Bft) S 184 0 min 0,000 mm 0,0 UV-I 0 W/m 8,2 C 9,3 C 3,2 km/h (1 Bft) 100,00 %
08.09.2017 03:00 9,2 C 18,3 C 92 % 1015,1 hPa 0,0 l/m 0,3 km/h (0 Bft) S 184 0 min 0,000 mm 0,0 UV-I 0 W/m 8,0 C 9,2 C 1,6 km/h (1 Bft) 100,00 %
08.09.2017 03:02 9,1 C 18,3 C 92 % 1015,1 hPa 0,0 l/m 0,2 km/h (0 Bft) S 184 0 min 0,000 mm 0,0 UV-I 0 W/m 7,9 C 9,1 C 1,6 km/h (1 Bft) 100,00 %
08.09.2017 03:04 8,9 C 18,3 C 92 % 1015,0 hPa 0,0 l/m 1,4 km/h (1 Bft) S 184 0 min 0,000 mm 0,0 UV-I 0 W/m 7,7 C 8,9 C 3,2 km/h (1 Bft) 100,00 %
08.09.2017 03:06 8,9 C 18,3 C 93 % 1015,0 hPa 0,0 l/m 1,6 km/h (1 Bft) S 184 0 min 0,000 mm 0,0 UV-I 0 W/m 7,8 C 8,9 C 3,2 km/h (1 Bft) 100,00 %
08.09.2017 03:08 8,9 C 18,3 C 93 % 1015,0 hPa 0,0 l/m 0,1 km/h (0 Bft) S 184 0 min 0,000 mm 0,0 UV-I 0 W/m 7,8 C 8,9 C 1,6 km/h (1 Bft) 97,87 %
08.09.2017 03:10 8,8 C 18,3 C 93 % 1015,0 hPa 0,0 l/m 1,9 km/h (1 Bft) S 184 0 min 0,000 mm 0,0 UV-I 0 W/m 7,7 C 8,8 C 3,2 km/h (1 Bft) 100,00 %
08.09.2017 03:12 8,8 C 18,3 C 93 % 1015,1 hPa 0,0 l/m 1,3 km/h (1 Bft) S 184 0 min 0,000 mm 0,0 UV-I 0 W/m 7,7 C 8,8 C 3,2 km/h (1 Bft) 97,87 %
08.09.2017 03:14 8,9 C 18,3 C 94 % 1015,1 hPa 0,0 l/m 0,1 km/h (0 Bft) S 184 0 min 0,000 mm 0,0 UV-I 0 W/m 8,0 C 8,9 C 1,6 km/h (1 Bft) 100,00 %
08.09.2017 03:16 8,9 C 18,3 C 94 % 1015,1 hPa 0,0 l/m 0,0 km/h (0 Bft) S 184 0 min 0,000 mm 0,0 UV-I 0 W/m 8,0 C 8,9 C 0,0 km/h (0 Bft) 100,00 %
08.09.2017 03:18 8,9 C 18,3 C 94 % 1015,1 hPa 0,0 l/m 0,0 km/h (0 Bft) S 184 0 min 0,000 mm 0,0 UV-I 0 W/m 8,0 C 8,9 C 0,0 km/h (0 Bft) 97,92 %
08.09.2017 03:20 8,9 C 18,3 C 94 % 1015,2 hPa 0,0 l/m 0,5 km/h (0 Bft) S 184 0 min 0,000 mm 0,0 UV-I 0 W/m 8,0 C 8,9 C 1,6 km/h (1 Bft) 100,00 %
08.09.2017 03:22 8,9 C 18,3 C 94 % 1015,1 hPa 0,0 l/m 0,1 km/h (0 Bft) S 184 0 min 0,000 mm 0,0 UV-I 0 W/m 8,0 C 8,9 C 1,6 km/h (1 Bft) 100,00 %
08.09.2017 03:24 8,9 C 18,3 C 94 % 1015,1 hPa 0,0 l/m 0,0 km/h (0 Bft) S 184 0 min 0,000 mm 0,0 UV-I 0 W/m 8,0 C 8,9 C 0,0 km/h (0 Bft) 100,00 %
08.09.2017 03:26 8,8 C 18,3 C 94 % 1015,1 hPa 0,0 l/m 0,0 km/h (0 Bft) S 184 0 min 0,000 mm 0,0 UV-I 0 W/m 7,9 C 8,8 C 0,0 km/h (0 Bft) 100,00 %
08.09.2017 03:28 8,8 C 18,3 C 94 % 1015,1 hPa 0,0 l/m 0,0 km/h (0 Bft) S 184 0 min 0,000 mm 0,0 UV-I 0 W/m 7,9 C 8,8 C 0,0 km/h (0 Bft) 97,92 %
08.09.2017 03:30 8,7 C 18,3 C 93 % 1015,1 hPa 0,0 l/m 0,0 km/h (0 Bft) S 184 0 min 0,000 mm 0,0 UV-I 0 W/m 7,6 C 8,7 C 1,6 km/h (1 Bft) 97,87 %
08.09.2017 03:32 8,5 C 18,3 C 93 % 1015,1 hPa 0,0 l/m 0,0 km/h (0 Bft) S 184 0 min 0,000 mm 0,0 UV-I 0 W/m 7,4 C 8,5 C 0,0 km/h (0 Bft) 97,87 %
08.09.2017 03:34 8,4 C 18,3 C 94 % 1015,1 hPa 0,0 l/m 0,0 km/h (0 Bft) S 184 0 min 0,000 mm 0,0 UV-I 0 W/m 7,5 C 8,4 C 0,0 km/h (0 Bft) 91,49 %
08.09.2017 03:36 8,4 C 18,3 C 94 % 1015,1 hPa 0,0 l/m 0,4 km/h (0 Bft) S 184 0 min 0,000 mm 0,0 UV-I 0 W/m 7,5 C 8,4 C 3,2 km/h (1 Bft) 95,74 %
08.09.2017 03:38 8,4 C 18,3 C 94 % 1015,1 hPa 0,0 l/m 1,7 km/h (1 Bft) S 184 0 min 0,000 mm 0,0 UV-I 0 W/m 7,5 C 8,4 C 3,2 km/h (1 Bft) 97,92 %
08.09.2017 03:40 8,4 C 18,3 C 94 % 1015,1 hPa 0,0 l/m 2,6 km/h (1 Bft) S 184 0 min 0,000 mm 0,0 UV-I 0 W/m 7,5 C 8,4 C 4,8 km/h (1 Bft) 97,87 %
08.09.2017 03:42 8,4 C 18,3 C 94 % 1015,0 hPa 0,0 l/m 3,9 km/h (1 Bft) S 184 0 min 0,000 mm 0,0 UV-I 0 W/m 7,5 C 8,4 C 4,8 km/h (1 Bft) 97,37 %
08.09.2017 03:44 8,3 C 18,3 C 94 % 1015,0 hPa 0,0 l/m 4,2 km/h (1 Bft) S 184 0 min 0,000 mm 0,0 UV-I 0 W/m 7,4 C 8,3 C 4,8 km/h (1 Bft) 98,00 %
08.09.2017 03:46 8,3 C 18,3 C 94 % 1014,9 hPa 0,0 l/m 3,9 km/h (1 Bft) S 184 0 min 0,000 mm 0,0 UV-I 0 W/m 7,4 C 8,3 C 4,8 km/h (1 Bft) 97,87 %
08.09.2017 03:48 8,3 C 18,3 C 94 % 1014,9 hPa 0,0 l/m 3,1 km/h (1 Bft) S 184 0 min 0,000 mm 0,0 UV-I 0 W/m 7,4 C 8,3 C 3,2 km/h (1 Bft) 95,74 %
08.09.2017 03:50 8,2 C 18,3 C 94 % 1014,9 hPa 0,0 l/m 2,2 km/h (1 Bft) S 184 0 min 0,000 mm 0,0 UV-I 0 W/m 7,3 C 8,2 C 3,2 km/h (1 Bft) 97,87 %
08.09.2017 03:52 8,2 C 18,3 C 94 % 1014,9 hPa 0,0 l/m 1,2 km/h (1 Bft) S 184 0 min 0,000 mm 0,0 UV-I 0 W/m 7,3 C 8,2 C 3,2 km/h (1 Bft) 96,00 %
08.09.2017 03:54 8,2 C 18,3 C 94 % 1014,8 hPa 0,0 l/m 0,0 km/h (0 Bft) S 184 0 min 0,000 mm 0,0 UV-I 0 W/m 7,3 C 8,2 C 1,6 km/h (1 Bft) 97,87 %
08.09.2017 03:56 8,2 C 18,3 C 94 % 1014,8 hPa 0,0 l/m 0,0 km/h (0 Bft) S 184 0 min 0,000 mm 0,0 UV-I 0 W/m 7,3 C 8,2 C 0,0 km/h (0 Bft) 97,92 %
08.09.2017 03:58 8,2 C 18,3 C 94 % 1014,7 hPa 0,0 l/m 0,0 km/h (0 Bft) S 184 0 min 0,000 mm 0,0 UV-I 0 W/m 7,3 C 8,2 C 1,6 km/h (1 Bft) 97,87 %
08.09.2017 04:00 8,2 C 18,3 C 94 % 1014,7 hPa 0,0 l/m 0,0 km/h (0 Bft) S 184 0 min 0,000 mm 0,0 UV-I 0 W/m 7,3 C 8,2 C 1,6 km/h (1 Bft) 97,56 %
08.09.2017 04:02 8,2 C 18,3 C 95 % 1014,7 hPa 0,0 l/m 1,7 km/h (1 Bft) S 184 0 min 0,000 mm 0,0 UV-I 0 W/m 7,4 C 8,2 C 3,2 km/h (1 Bft) 100,00 %
08.09.2017 04:04 8,2 C 18,3 C 95 % 1014,7 hPa 0,0 l/m 2,4 km/h (1 Bft) S 184 0 min 0,000 mm 0,0 UV-I 0 W/m 7,4 C 8,2 C 3,2 km/h (1 Bft) 95,74 %
08.09.2017 04:06 8,3 C 18,3 C 95 % 1014,6 hPa 0,0 l/m 2,1 km/h (1 Bft) S 184 0 min 0,000 mm 0,0 UV-I 0 W/m 7,5 C 8,3 C 3,2 km/h (1 Bft) 100,00 %
08.09.2017 04:08 8,3 C 18,3 C 95 % 1014,6 hPa 0,0 l/m 1,5 km/h (1 Bft) S 184 0 min 0,000 mm 0,0 UV-I 0 W/m 7,5 C 8,3 C 3,2 km/h (1 Bft) 97,87 %
08.09.2017 04:10 8,3 C 18,3 C 95 % 1014,5 hPa 0,0 l/m 1,5 km/h (1 Bft) S 184 0 min 0,000 mm 0,0 UV-I 0 W/m 7,5 C 8,3 C 3,2 km/h (1 Bft) 100,00 %
08.09.2017 04:12 8,4 C 18,3 C 95 % 1014,5 hPa 0,0 l/m 0,5 km/h (0 Bft) S 184 0 min 0,000 mm 0,0 UV-I 0 W/m 7,6 C 8,4 C 1,6 km/h (1 Bft) 97,87 %
08.09.2017 04:14 8,4 C 18,3 C 95 % 1014,6 hPa 0,0 l/m 1,4 km/h (1 Bft) S 184 0 min 0,000 mm 0,0 UV-I 0 W/m 7,6 C 8,4 C 3,2 km/h (1 Bft) 100,00 %
08.09.2017 04:16 8,4 C 18,3 C 95 % 1014,6 hPa 0,0 l/m 1,6 km/h (1 Bft) S 184 0 min 0,000 mm 0,0 UV-I 0 W/m 7,6 C 8,4 C 3,2 km/h (1 Bft) 96,00 %
08.09.2017 04:18 8,4 C 18,3 C 95 % 1014,6 hPa 0,0 l/m 2,0 km/h (1 Bft) S 184 0 min 0,000 mm 0,0 UV-I 0 W/m 7,6 C 8,4 C 3,2 km/h (1 Bft) 97,14 %
08.09.2017 04:20 8,3 C 18,3 C 95 % 1014,5 hPa 0,0 l/m 2,4 km/h (1 Bft) S 184 0 min 0,000 mm 0,0 UV-I 0 W/m 7,5 C 8,3 C 3,2 km/h (1 Bft) 98,00 %
08.09.2017 04:22 8,2 C 18,3 C 95 % 1014,5 hPa 0,0 l/m 1,9 km/h (1 Bft) S 184 0 min 0,000 mm 0,0 UV-I 0 W/m 7,4 C 8,2 C 3,2 km/h (1 Bft) 95,74 %
08.09.2017 04:24 8,1 C 18,3 C 94 % 1014,5 hPa 0,0 l/m 1,4 km/h (1 Bft) S 184 0 min 0,000 mm 0,0 UV-I 0 W/m 7,2 C 8,1 C 3,2 km/h (1 Bft) 97,87 %
08.09.2017 04:26 8,1 C 17,8 C 95 % 1014,4 hPa 0,0 l/m 0,9 km/h (0 Bft) S 184 0 min 0,000 mm 0,0 UV-I 0 W/m 7,3 C 8,1 C 1,6 km/h (1 Bft) 97,87 %
08.09.2017 04:28 8,1 C 18,3 C 95 % 1014,5 hPa 0,0 l/m 0,0 km/h (0 Bft) S 184 0 min 0,000 mm 0,0 UV-I 0 W/m 7,3 C 8,1 C 0,0 km/h (0 Bft) 93,62 %
08.09.2017 04:30 8,1 C 18,3 C 95 % 1014,4 hPa 0,0 l/m 0,0 km/h (0 Bft) S 184 0 min 0,000 mm 0,0 UV-I 0 W/m 7,3 C 8,1 C 0,0 km/h (0 Bft) 97,92 %
08.09.2017 04:32 8,1 C 18,3 C 95 % 1014,4 hPa 0,0 l/m 0,0 km/h (0 Bft) S 184 0 min 0,000 mm 0,0 UV-I 0 W/m 7,3 C 8,1 C 0,0 km/h (0 Bft) 97,87 %
08.09.2017 04:34 8,1 C 18,3 C 95 % 1014,4 hPa 0,0 l/m 1,1 km/h (1 Bft) S 184 0 min 0,000 mm 0,0 UV-I 0 W/m 7,3 C 8,1 C 3,2 km/h (1 Bft) 95,74 %
08.09.2017 04:36 8,1 C 17,8 C 95 % 1014,4 hPa 0,0 l/m 2,4 km/h (1 Bft) S 184 0 min 0,000 mm 0,0 UV-I 0 W/m 7,3 C 8,1 C 3,2 km/h (1 Bft) 97,87 %
08.09.2017 04:38 8,1 C 17,8 C 95 % 1014,3 hPa 0,0 l/m 3,5 km/h (1 Bft) S 184 0 min 0,000 mm 0,0 UV-I 0 W/m 7,3 C 8,1 C 4,8 km/h (1 Bft) 97,87 %
08.09.2017 04:40 8,1 C 17,8 C 95 % 1014,4 hPa 0,0 l/m 2,8 km/h (1 Bft) S 184 0 min 0,000 mm 0,0 UV-I 0 W/m 7,3 C 8,1 C 4,8 km/h (1 Bft) 98,00 %
08.09.2017 04:42 8,1 C 17,8 C 95 % 1014,3 hPa 0,0 l/m 1,7 km/h (1 Bft) S 184 0 min 0,000 mm 0,0 UV-I 0 W/m 7,3 C 8,1 C 3,2 km/h (1 Bft) 97,87 %
08.09.2017 04:44 8,1 C 17,8 C 95 % 1014,3 hPa 0,0 l/m 2,2 km/h (1 Bft) S 184 0 min 0,000 mm 0,0 UV-I 0 W/m 7,3 C 8,1 C 3,2 km/h (1 Bft) 95,74 %
08.09.2017 04:46 8,2 C 17,8 C 95 % 1014,3 hPa 0,0 l/m 0,2 km/h (0 Bft) S 184 0 min 0,000 mm 0,0 UV-I 0 W/m 7,4 C 8,2 C 1,6 km/h (1 Bft) 97,87 %
08.09.2017 04:48 8,2 C 17,8 C 95 % 1014,4 hPa 0,0 l/m 0,0 km/h (0 Bft) S 184 0 min 0,000 mm 0,0 UV-I 0 W/m 7,4 C 8,2 C 0,0 km/h (0 Bft) 97,87 %
08.09.2017 04:50 8,1 C 17,8 C 95 % 1014,4 hPa 0,0 l/m 0,2 km/h (0 Bft) S 184 0 min 0,000 mm 0,0 UV-I 0 W/m 7,3 C 8,1 C 1,6 km/h (1 Bft) 97,87 %
08.09.2017 04:52 8,1 C 17,8 C 95 % 1014,3 hPa 0,0 l/m 0,2 km/h (0 Bft) S 184 0 min 0,000 mm 0,0 UV-I 0 W/m 7,3 C 8,1 C 1,6 km/h (1 Bft) 97,87 %
08.09.2017 04:54 7,9 C 17,8 C 95 % 1014,2 hPa 0,0 l/m 0,0 km/h (0 Bft) S 184 0 min 0,000 mm 0,0 UV-I 0 W/m 7,1 C 7,9 C 1,6 km/h (1 Bft) 95,74 %
08.09.2017 04:56 7,8 C 17,8 C 95 % 1014,2 hPa 0,0 l/m 0,0 km/h (0 Bft) S 184 0 min 0,000 mm 0,0 UV-I 0 W/m 7,0 C 7,8 C 0,0 km/h (0 Bft) 97,87 %
08.09.2017 04:58 7,8 C 17,8 C 95 % 1014,2 hPa 0,0 l/m 0,0 km/h (0 Bft) S 184 0 min 0,000 mm 0,0 UV-I 0 W/m 7,0 C 7,8 C 0,0 km/h (0 Bft) 97,87 %
08.09.2017 05:00 7,7 C 17,8 C 95 % 1014,3 hPa 0,0 l/m 0,0 km/h (0 Bft) S 184 0 min 0,000 mm 0,0 UV-I 0 W/m 7,0 C 7,7 C 0,0 km/h (0 Bft) 95,74 %
08.09.2017 05:02 7,8 C 17,8 C 95 % 1014,3 hPa 0,0 l/m 0,0 km/h (0 Bft) S 184 0 min 0,000 mm 0,0 UV-I 0 W/m 7,0 C 7,8 C 0,0 km/h (0 Bft) 95,74 %
08.09.2017 05:04 7,8 C 17,8 C 95 % 1014,3 hPa 0,0 l/m 0,4 km/h (0 Bft) S 184 0 min 0,000 mm 0,0 UV-I 0 W/m 7,0 C 7,8 C 1,6 km/h (1 Bft) 95,74 %
08.09.2017 05:06 7,8 C 17,8 C 96 % 1014,3 hPa 0,0 l/m 0,4 km/h (0 Bft) S 184 0 min 0,000 mm 0,0 UV-I 0 W/m 7,2 C 7,8 C 1,6 km/h (1 Bft) 97,87 %
08.09.2017 05:08 7,9 C 17,8 C 95 % 1014,2 hPa 0,0 l/m 0,9 km/h (0 Bft) S 184 0 min 0,000 mm 0,0 UV-I 0 W/m 7,1 C 7,9 C 1,6 km/h (1 Bft) 95,74 %
08.09.2017 05:10 7,9 C 17,8 C 95 % 1014,2 hPa 0,0 l/m 0,6 km/h (0 Bft) S 184 0 min 0,000 mm 0,0 UV-I 0 W/m 7,1 C 7,9 C 1,6 km/h (1 Bft) 100,00 %
08.09.2017 05:12 7,9 C 17,8 C 95 % 1014,2 hPa 0,0 l/m 0,0 km/h (0 Bft) S 184 0 min 0,000 mm 0,0 UV-I 0 W/m 7,1 C 7,9 C 0,0 km/h (0 Bft) 97,87 %
08.09.2017 05:14 7,8 C 17,8 C 95 % 1014,2 hPa 0,0 l/m 0,0 km/h (0 Bft) S 184 0 min 0,000 mm 0,0 UV-I 0 W/m 7,0 C 7,8 C 1,6 km/h (1 Bft) 97,44 %
08.09.2017 05:16 7,7 C 17,8 C 95 % 1014,2 hPa 0,0 l/m 0,0 km/h (0 Bft) S 184 0 min 0,000 mm 0,0 UV-I 0 W/m 7,0 C 7,7 C 0,0 km/h (0 Bft) 97,87 %
08.09.2017 05:18 7,7 C 17,8 C 95 % 1014,2 hPa 0,0 l/m 0,0 km/h (0 Bft) S 184 0 min 0,000 mm 0,0 UV-I 0 W/m 7,0 C 7,7 C 0,0 km/h (0 Bft) 100,00 %
08.09.2017 05:20 7,7 C 17,8 C 95 % 1014,2 hPa 0,0 l/m 0,0 km/h (0 Bft) S 184 0 min 0,000 mm 0,0 UV-I 0 W/m 7,0 C 7,7 C 0,0 km/h (0 Bft) 100,00 %
08.09.2017 05:22 7,7 C 17,8 C 95 % 1014,1 hPa 0,0 l/m 0,0 km/h (0 Bft) S 184 0 min 0,000 mm 0,0 UV-I 0 W/m 7,0 C 7,7 C 0,0 km/h (0 Bft) 95,74 %
08.09.2017 05:24 7,7 C 17,8 C 95 % 1014,2 hPa 0,0 l/m 0,4 km/h (0 Bft) S 184 0 min 0,000 mm 0,0 UV-I 0 W/m 7,0 C 7,7 C 1,6 km/h (1 Bft) 97,87 %
08.09.2017 05:26 7,7 C 17,8 C 95 % 1014,1 hPa 0,0 l/m 0,5 km/h (0 Bft) S 184 0 min 0,000 mm 0,0 UV-I 0 W/m 7,0 C 7,7 C 3,2 km/h (1 Bft) 97,87 %
08.09.2017 05:28 7,7 C 17,8 C 95 % 1014,0 hPa 0,0 l/m 2,3 km/h (1 Bft) S 184 0 min 0,000 mm 0,0 UV-I 0 W/m 7,0 C 7,7 C 3,2 km/h (1 Bft) 100,00 %
08.09.2017 05:30 7,7 C 17,8 C 95 % 1014,0 hPa 0,0 l/m 3,3 km/h (1 Bft) N 11 0 min 0,000 mm 0,0 UV-I 0 W/m 7,0 C 7,7 C 6,4 km/h (2 Bft) 97,87 %
08.09.2017 05:32 7,7 C 17,8 C 96 % 1014,0 hPa 0,0 l/m 2,9 km/h (1 Bft) N-NO 15 0 min 0,000 mm 0,0 UV-I 0 W/m 7,1 C 7,7 C 4,8 km/h (1 Bft) 97,87 %
08.09.2017 05:34 7,8 C 17,8 C 96 % 1014,0 hPa 0,0 l/m 1,1 km/h (1 Bft) N-NO 15 0 min 0,000 mm 0,0 UV-I 0 W/m 7,2 C 7,8 C 3,2 km/h (1 Bft) 97,87 %
08.09.2017 05:36 7,9 C 17,8 C 96 % 1014,1 hPa 0,0 l/m 0,6 km/h (0 Bft) N-NO 15 0 min 0,000 mm 0,0 UV-I 0 W/m 7,3 C 7,9 C 3,2 km/h (1 Bft) 93,62 %
08.09.2017 05:38 7,9 C 17,8 C 96 % 1014,1 hPa 0,0 l/m 0,0 km/h (0 Bft) N-NO 15 0 min 0,000 mm 0,0 UV-I 0 W/m 7,3 C 7,9 C 0,0 km/h (0 Bft) 97,87 %
08.09.2017 05:40 7,9 C 17,8 C 96 % 1014,0 hPa 0,0 l/m 0,0 km/h (0 Bft) N-NO 15 0 min 0,000 mm 0,0 UV-I 0 W/m 7,3 C 7,9 C 0,0 km/h (0 Bft) 95,74 %
08.09.2017 05:42 7,9 C 17,8 C 96 % 1014,1 hPa 0,0 l/m 0,0 km/h (0 Bft) N-NO 15 0 min 0,000 mm 0,0 UV-I 0 W/m 7,3 C 7,9 C 0,0 km/h (0 Bft) 94,74 %
08.09.2017 05:44 7,8 C 17,8 C 96 % 1014,1 hPa 0,0 l/m 0,5 km/h (0 Bft) N-NO 15 0 min 0,000 mm 0,0 UV-I 0 W/m 7,2 C 7,8 C 3,2 km/h (1 Bft) 95,74 %
08.09.2017 05:46 7,8 C 17,8 C 96 % 1014,0 hPa 0,0 l/m 1,9 km/h (1 Bft) N-NO 15 0 min 0,000 mm 0,0 UV-I 0 W/m 7,2 C 7,8 C 3,2 km/h (1 Bft) 97,87 %
08.09.2017 05:48 7,8 C 17,8 C 96 % 1014,0 hPa 0,0 l/m 2,0 km/h (1 Bft) N-NO 15 0 min 0,000 mm 0,0 UV-I 0 W/m 7,2 C 7,8 C 3,2 km/h (1 Bft) 97,92 %
08.09.2017 05:50 7,9 C 17,8 C 96 % 1014,0 hPa 0,0 l/m 2,2 km/h (1 Bft) N-NO 15 0 min 0,000 mm 0,0 UV-I 0 W/m 7,3 C 7,9 C 3,2 km/h (1 Bft) 93,62 %
08.09.2017 05:52 7,9 C 17,8 C 96 % 1013,9 hPa 0,0 l/m 2,2 km/h (1 Bft) N-NO 15 0 min 0,000 mm 0,0 UV-I 0 W/m 7,3 C 7,9 C 3,2 km/h (1 Bft) 93,62 %
08.09.2017 05:54 7,8 C 17,8 C 96 % 1013,9 hPa 0,0 l/m 2,9 km/h (1 Bft) N-NO 15 0 min 0,000 mm 0,0 UV-I 0 W/m 7,2 C 7,8 C 3,2 km/h (1 Bft) 95,74 %
08.09.2017 05:56 7,7 C 17,8 C 95 % 1013,9 hPa 0,0 l/m 3,3 km/h (1 Bft) N-NO 15 0 min 0,000 mm 0,0 UV-I 0 W/m 7,0 C 7,7 C 4,8 km/h (1 Bft) 93,62 %
08.09.2017 05:58 7,6 C 17,8 C 95 % 1013,9 hPa 0,0 l/m 2,8 km/h (1 Bft) N-NO 15 0 min 0,000 mm 0,0 UV-I 0 W/m 6,9 C 7,6 C 3,2 km/h (1 Bft) 97,87 %
08.09.2017 06:00 7,5 C 17,8 C 95 % 1013,9 hPa 0,0 l/m 2,0 km/h (1 Bft) N-NO 16 0 min 0,000 mm 0,0 UV-I 0 W/m 6,8 C 7,5 C 3,2 km/h (1 Bft) 97,87 %
08.09.2017 06:02 7,4 C 17,8 C 95 % 1013,8 hPa 0,0 l/m 0,0 km/h (0 Bft) N-NO 15 0 min 0,000 mm 0,0 UV-I 0 W/m 6,7 C 7,4 C 1,6 km/h (1 Bft) 96,00 %
08.09.2017 06:04 7,4 C 17,8 C 96 % 1013,7 hPa 0,0 l/m 0,0 km/h (0 Bft) N-NO 15 0 min 0,000 mm 0,0 UV-I 0 W/m 6,8 C 7,4 C 0,0 km/h (0 Bft) 95,74 %
08.09.2017 06:06 7,5 C 17,8 C 96 % 1013,7 hPa 0,0 l/m 0,0 km/h (0 Bft) N-NO 15 0 min 0,000 mm 0,0 UV-I 0 W/m 6,9 C 7,5 C 0,0 km/h (0 Bft) 97,87 %
08.09.2017 06:08 7,5 C 17,8 C 96 % 1013,7 hPa 0,0 l/m 0,7 km/h (0 Bft) N-NO 16 0 min 0,000 mm 0,0 UV-I 0 W/m 6,9 C 7,5 C 1,6 km/h (1 Bft) 100,00 %
08.09.2017 06:10 7,6 C 17,8 C 96 % 1013,7 hPa 0,0 l/m 1,4 km/h (1 Bft) N-NO 15 0 min 0,000 mm 0,0 UV-I 0 W/m 7,0 C 7,6 C 3,2 km/h (1 Bft) 100,00 %
08.09.2017 06:12 7,6 C 17,8 C 96 % 1013,6 hPa 0,0 l/m 0,7 km/h (0 Bft) N-NO 15 0 min 0,000 mm 0,0 UV-I 0 W/m 7,0 C 7,6 C 1,6 km/h (1 Bft) 100,00 %
08.09.2017 06:14 7,6 C 17,8 C 96 % 1013,6 hPa 0,0 l/m 0,0 km/h (0 Bft) N-NO 15 0 min 0,000 mm 0,0 UV-I 0 W/m 7,0 C 7,6 C 1,6 km/h (1 Bft) 97,87 %
08.09.2017 06:16 7,6 C 17,8 C 96 % 1013,6 hPa 0,0 l/m 0,0 km/h (0 Bft) N-NO 15 0 min 0,000 mm 0,0 UV-I 0 W/m 7,0 C 7,6 C 0,0 km/h (0 Bft) 97,87 %
08.09.2017 06:18 7,6 C 17,8 C 96 % 1013,7 hPa 0,0 l/m 0,0 km/h (0 Bft) N-NO 15 0 min 0,000 mm 0,0 UV-I 0 W/m 7,0 C 7,6 C 0,0 km/h (0 Bft) 100,00 %
08.09.2017 06:20 7,5 C 17,8 C 96 % 1013,6 hPa 0,0 l/m 0,0 km/h (0 Bft) N-NO 15 0 min 0,000 mm 0,0 UV-I 0 W/m 6,9 C 7,5 C 0,0 km/h (0 Bft) 100,00 %
08.09.2017 06:22 7,5 C 17,8 C 96 % 1013,6 hPa 0,0 l/m 0,0 km/h (0 Bft) N-NO 15 0 min 0,000 mm 0,0 UV-I 4 W/m 6,9 C 7,5 C 0,0 km/h (0 Bft) 100,00 %
08.09.2017 06:24 7,4 C 17,8 C 96 % 1013,6 hPa 0,0 l/m 0,0 km/h (0 Bft) N-NO 15 0 min 0,000 mm 0,0 UV-I 5 W/m 6,8 C 7,4 C 0,0 km/h (0 Bft) 97,87 %
08.09.2017 06:26 7,4 C 17,8 C 96 % 1013,6 hPa 0,0 l/m 0,0 km/h (0 Bft) N-NO 15 0 min 0,000 mm 0,0 UV-I 5 W/m 6,8 C 7,4 C 0,0 km/h (0 Bft) 97,87 %
08.09.2017 06:28 7,4 C 17,8 C 96 % 1013,6 hPa 0,0 l/m 0,0 km/h (0 Bft) N-NO 15 0 min 0,000 mm 0,0 UV-I 5 W/m 6,8 C 7,4 C 0,0 km/h (0 Bft) 98,00 %
08.09.2017 06:30 7,4 C 17,8 C 96 % 1013,6 hPa 0,0 l/m 0,0 km/h (0 Bft) N-NO 15 0 min 0,000 mm 0,0 UV-I 6 W/m 6,8 C 7,4 C 0,0 km/h (0 Bft) 97,87 %
08.09.2017 06:32 7,3 C 17,8 C 96 % 1013,6 hPa 0,0 l/m 0,0 km/h (0 Bft) N-NO 15 0 min 0,000 mm 0,0 UV-I 7 W/m 6,7 C 7,3 C 0,0 km/h (0 Bft) 100,00 %
08.09.2017 06:34 7,3 C 17,8 C 96 % 1013,7 hPa 0,0 l/m 0,0 km/h (0 Bft) N-NO 15 0 min 0,000 mm 0,0 UV-I 7 W/m 6,7 C 7,3 C 0,0 km/h (0 Bft) 100,00 %
08.09.2017 06:36 7,3 C 17,8 C 96 % 1013,6 hPa 0,0 l/m 0,4 km/h (0 Bft) N-NO 15 0 min 0,000 mm 0,0 UV-I 7 W/m 6,7 C 7,3 C 1,6 km/h (1 Bft) 100,00 %
08.09.2017 06:38 7,3 C 17,8 C 96 % 1013,6 hPa 0,0 l/m 1,4 km/h (1 Bft) N-NO 15 0 min 0,000 mm 0,0 UV-I 9 W/m 6,7 C 7,3 C 3,2 km/h (1 Bft) 95,74 %
08.09.2017 06:40 7,3 C 17,8 C 96 % 1013,6 hPa 0,0 l/m 1,7 km/h (1 Bft) N-NO 15 0 min 0,000 mm 0,0 UV-I 9 W/m 6,7 C 7,3 C 3,2 km/h (1 Bft) 100,00 %
08.09.2017 06:42 7,2 C 17,8 C 96 % 1013,6 hPa 0,0 l/m 1,9 km/h (1 Bft) N-NO 16 2 min 0,000 mm 0,0 UV-I 11 W/m 6,6 C 7,2 C 3,2 km/h (1 Bft) 100,00 %
08.09.2017 06:44 7,3 C 17,8 C 96 % 1013,7 hPa 0,0 l/m 2,9 km/h (1 Bft) N-NO 16 0 min 0,000 mm 0,0 UV-I 11 W/m 6,7 C 7,3 C 4,8 km/h (1 Bft) 100,00 %
08.09.2017 06:46 7,3 C 17,8 C 96 % 1013,7 hPa 0,0 l/m 2,1 km/h (1 Bft) N-NO 16 0 min 0,000 mm 0,0 UV-I 13 W/m 6,7 C 7,3 C 3,2 km/h (1 Bft) 98,00 %
08.09.2017 06:48 7,3 C 17,8 C 96 % 1013,7 hPa 0,0 l/m 1,7 km/h (1 Bft) N-NO 15 0 min 0,000 mm 0,0 UV-I 14 W/m 6,7 C 7,3 C 3,2 km/h (1 Bft) 100,00 %
08.09.2017 06:50 7,4 C 17,8 C 96 % 1013,7 hPa 0,0 l/m 0,4 km/h (0 Bft) N-NO 15 0 min 0,000 mm 0,0 UV-I 17 W/m 6,8 C 7,4 C 1,6 km/h (1 Bft) 100,00 %
08.09.2017 06:52 7,4 C 17,8 C 96 % 1013,7 hPa 0,0 l/m 0,3 km/h (0 Bft) N-NO 15 0 min 0,000 mm 0,0 UV-I 20 W/m 6,8 C 7,4 C 1,6 km/h (1 Bft) 100,00 %
08.09.2017 06:54 7,5 C 17,8 C 96 % 1013,8 hPa 0,0 l/m 0,0 km/h (0 Bft) N-NO 15 0 min 0,000 mm 0,0 UV-I 23 W/m 6,9 C 7,5 C 1,6 km/h (1 Bft) 100,00 %
08.09.2017 06:56 7,6 C 17,8 C 96 % 1013,9 hPa 0,0 l/m 1,6 km/h (1 Bft) N-NO 16 0 min 0,000 mm 0,0 UV-I 25 W/m 7,0 C 7,6 C 4,8 km/h (1 Bft) 100,00 %
08.09.2017 06:58 7,6 C 17,8 C 96 % 1013,9 hPa 0,0 l/m 1,5 km/h (1 Bft) N-NO 16 0 min 0,000 mm 0,0 UV-I 28 W/m 7,0 C 7,6 C 3,2 km/h (1 Bft) 97,87 %
08.09.2017 07:00 7,6 C 17,8 C 96 % 1013,9 hPa 0,0 l/m 0,2 km/h (0 Bft) N-NO 16 0 min 0,000 mm 0,0 UV-I 32 W/m 7,0 C 7,6 C 1,6 km/h (1 Bft) 100,00 %
08.09.2017 07:02 7,6 C 17,8 C 96 % 1014,0 hPa 0,0 l/m 1,0 km/h (0 Bft) N-NO 16 0 min 0,000 mm 0,0 UV-I 40 W/m 7,0 C 7,6 C 3,2 km/h (1 Bft) 100,00 %
08.09.2017 07:04 7,7 C 17,8 C 96 % 1014,0 hPa 0,0 l/m 0,0 km/h (0 Bft) N-NO 16 2 min 0,000 mm 0,0 UV-I 45 W/m 7,1 C 7,7 C 0,0 km/h (0 Bft) 98,21 %
08.09.2017 07:06 7,7 C 17,8 C 96 % 1014,0 hPa 0,0 l/m 0,0 km/h (0 Bft) N-NO 16 2 min 0,000 mm 0,0 UV-I 48 W/m 7,1 C 7,7 C 0,0 km/h (0 Bft) 97,87 %
08.09.2017 07:08 7,6 C 17,8 C 96 % 1014,0 hPa 0,0 l/m 0,0 km/h (0 Bft) N-NO 16 0 min 0,000 mm 0,0 UV-I 50 W/m 7,0 C 7,6 C 0,0 km/h (0 Bft) 97,87 %
08.09.2017 07:10 7,6 C 17,8 C 96 % 1014,0 hPa 0,0 l/m 0,0 km/h (0 Bft) N-NO 16 2 min 0,000 mm 0,0 UV-I 54 W/m 7,0 C 7,6 C 0,0 km/h (0 Bft) 97,87 %
08.09.2017 07:12 7,6 C 17,8 C 96 % 1014,0 hPa 0,0 l/m 0,0 km/h (0 Bft) N-NO 16 2 min 0,000 mm 0,0 UV-I 59 W/m 7,0 C 7,6 C 0,0 km/h (0 Bft) 97,87 %
08.09.2017 07:14 7,6 C 17,8 C 96 % 1014,0 hPa 0,0 l/m 0,0 km/h (0 Bft) N-NO 16 0 min 0,000 mm 0,0 UV-I 53 W/m 7,0 C 7,6 C 0,0 km/h (0 Bft) 94,87 %
08.09.2017 07:16 7,6 C 17,8 C 96 % 1014,0 hPa 0,0 l/m 0,3 km/h (0 Bft) N-NO 16 0 min 0,000 mm 0,0 UV-I 55 W/m 7,0 C 7,6 C 1,6 km/h (1 Bft) 95,74 %
08.09.2017 07:18 7,6 C 17,8 C 96 % 1014,0 hPa 0,0 l/m 0,0 km/h (0 Bft) N-NO 16 0 min 0,000 mm 0,0 UV-I 66 W/m 7,0 C 7,6 C 1,6 km/h (1 Bft) 97,87 %
08.09.2017 07:20 7,6 C 17,8 C 96 % 1014,0 hPa 0,0 l/m 0,2 km/h (0 Bft) N-NO 16 2 min 0,000 mm 0,0 UV-I 75 W/m 7,0 C 7,6 C 1,6 km/h (1 Bft) 95,74 %
08.09.2017 07:22 7,7 C 17,8 C 96 % 1014,0 hPa 0,0 l/m 0,0 km/h (0 Bft) N-NO 16 2 min 0,000 mm 0,0 UV-I 78 W/m 7,1 C 7,7 C 0,0 km/h (0 Bft) 97,92 %
08.09.2017 07:24 7,7 C 17,8 C 96 % 1014,0 hPa 0,0 l/m 0,0 km/h (0 Bft) N-NO 16 2 min 0,000 mm 0,0 UV-I 82 W/m 7,1 C 7,7 C 0,0 km/h (0 Bft) 96,00 %
08.09.2017 07:26 7,8 C 17,8 C 96 % 1014,0 hPa 0,0 l/m 0,0 km/h (0 Bft) N-NO 16 2 min 0,000 mm 0,0 UV-I 86 W/m 7,2 C 7,8 C 0,0 km/h (0 Bft) 95,74 %
08.09.2017 07:28 7,8 C 17,8 C 96 % 1014,0 hPa 0,0 l/m 0,0 km/h (0 Bft) N-NO 16 2 min 0,000 mm 0,0 UV-I 90 W/m 7,2 C 7,8 C 0,0 km/h (0 Bft) 97,87 %
08.09.2017 07:30 7,9 C 17,8 C 96 % 1014,0 hPa 0,0 l/m 0,1 km/h (0 Bft) N-NO 16 2 min 0,000 mm 0,0 UV-I 95 W/m 7,3 C 7,9 C 1,6 km/h (1 Bft) 95,74 %
08.09.2017 07:32 8,0 C 17,8 C 96 % 1014,0 hPa 0,0 l/m 0,0 km/h (0 Bft) N-NO 16 2 min 0,000 mm 0,0 UV-I 100 W/m 7,4 C 8,0 C 1,6 km/h (1 Bft) 95,83 %
08.09.2017 07:34 8,2 C 17,8 C 96 % 1014,0 hPa 0,0 l/m 0,0 km/h (0 Bft) N-NO 16 2 min 0,000 mm 0,0 UV-I 104 W/m 7,6 C 8,2 C 0,0 km/h (0 Bft) 97,87 %
08.09.2017 07:36 8,3 C 17,8 C 96 % 1014,0 hPa 0,0 l/m 0,0 km/h (0 Bft) N-NO 16 2 min 0,000 mm 0,0 UV-I 109 W/m 7,7 C 8,3 C 0,0 km/h (0 Bft) 97,87 %
08.09.2017 07:38 8,4 C 17,8 C 96 % 1014,0 hPa 0,0 l/m 0,7 km/h (0 Bft) N-NO 16 2 min 0,000 mm 0,0 UV-I 113 W/m 7,8 C 8,4 C 3,2 km/h (1 Bft) 93,62 %
08.09.2017 07:40 8,6 C 17,8 C 96 % 1014,0 hPa 0,0 l/m 0,4 km/h (0 Bft) N-NO 16 2 min 0,000 mm 0,0 UV-I 118 W/m 8,0 C 8,6 C 1,6 km/h (1 Bft) 97,87 %
08.09.2017 07:42 8,7 C 17,8 C 96 % 1013,9 hPa 0,0 l/m 0,0 km/h (0 Bft) N-NO 16 2 min 0,000 mm 0,0 UV-I 121 W/m 8,1 C 8,7 C 0,0 km/h (0 Bft) 93,75 %
08.09.2017 07:44 8,8 C 17,8 C 96 % 1013,9 hPa 0,0 l/m 0,0 km/h (0 Bft) N-NO 16 2 min 0,000 mm 0,0 UV-I 125 W/m 8,2 C 8,8 C 0,0 km/h (0 Bft) 97,37 %
08.09.2017 07:46 8,8 C 17,8 C 96 % 1014,0 hPa 0,0 l/m 0,0 km/h (0 Bft) N-NO 16 2 min 0,000 mm 0,0 UV-I 129 W/m 8,2 C 8,8 C 0,0 km/h (0 Bft) 93,75 %
08.09.2017 07:48 8,9 C 17,8 C 96 % 1014,0 hPa 0,0 l/m 0,6 km/h (0 Bft) N-NO 16 2 min 0,000 mm 0,0 UV-I 135 W/m 8,3 C 8,9 C 3,2 km/h (1 Bft) 95,92 %
08.09.2017 07:50 8,9 C 17,8 C 96 % 1013,9 hPa 0,0 l/m 0,0 km/h (0 Bft) N-NO 16 2 min 0,000 mm 0,0 UV-I 139 W/m 8,3 C 8,9 C 0,0 km/h (0 Bft) 95,83 %
08.09.2017 07:52 9,1 C 17,8 C 96 % 1013,9 hPa 0,0 l/m 0,0 km/h (0 Bft) N-NO 16 2 min 0,000 mm 0,0 UV-I 143 W/m 8,5 C 9,1 C 0,0 km/h (0 Bft) 95,74 %
08.09.2017 07:54 9,1 C 17,8 C 96 % 1014,0 hPa 0,0 l/m 0,0 km/h (0 Bft) N-NO 16 2 min 0,000 mm 0,0 UV-I 148 W/m 8,5 C 9,1 C 0,0 km/h (0 Bft) 96,00 %
08.09.2017 07:56 9,2 C 17,8 C 96 % 1014,0 hPa 0,0 l/m 0,0 km/h (0 Bft) N-NO 16 2 min 0,000 mm 0,0 UV-I 153 W/m 8,6 C 9,2 C 0,0 km/h (0 Bft) 97,87 %
08.09.2017 07:58 9,2 C 17,8 C 96 % 1014,0 hPa 0,0 l/m 0,0 km/h (0 Bft) N-NO 16 2 min 0,000 mm 0,0 UV-I 157 W/m 8,6 C 9,2 C 0,0 km/h (0 Bft) 95,74 %
08.09.2017 08:00 9,3 C 17,8 C 96 % 1014,0 hPa 0,0 l/m 0,0 km/h (0 Bft) N-NO 16 2 min 0,051 mm 0,0 UV-I 165 W/m 8,7 C 9,3 C 0,0 km/h (0 Bft) 97,37 %
08.09.2017 08:02 9,4 C 17,8 C 96 % 1014,0 hPa 0,0 l/m 0,0 km/h (0 Bft) N-NO 16 2 min 0,000 mm 0,0 UV-I 171 W/m 8,8 C 9,4 C 0,0 km/h (0 Bft) 97,87 %
08.09.2017 08:04 9,5 C 17,8 C 96 % 1014,0 hPa 0,0 l/m 0,0 km/h (0 Bft) N-NO 16 2 min 0,000 mm 0,0 UV-I 177 W/m 8,9 C 9,5 C 0,0 km/h (0 Bft) 95,74 %
08.09.2017 08:06 9,6 C 17,8 C 96 % 1014,0 hPa 0,0 l/m 0,0 km/h (0 Bft) N-NO 16 2 min 0,000 mm 0,0 UV-I 183 W/m 9,0 C 9,6 C 0,0 km/h (0 Bft) 93,62 %
08.09.2017 08:08 9,7 C 17,8 C 96 % 1013,9 hPa 0,0 l/m 0,0 km/h (0 Bft) N-NO 16 2 min 0,000 mm 0,0 UV-I 191 W/m 9,1 C 9,7 C 0,0 km/h (0 Bft) 98,00 %
08.09.2017 08:10 9,8 C 17,8 C 96 % 1014,0 hPa 0,0 l/m 0,0 km/h (0 Bft) N-NO 16 2 min 0,000 mm 0,0 UV-I 195 W/m 9,2 C 9,8 C 0,0 km/h (0 Bft) 95,74 %
08.09.2017 08:12 9,9 C 17,8 C 96 % 1013,9 hPa 0,0 l/m 0,0 km/h (0 Bft) N-NO 16 2 min 0,000 mm 0,0 UV-I 200 W/m 9,3 C 9,9 C 0,0 km/h (0 Bft) 95,74 %
08.09.2017 08:14 9,9 C 17,8 C 96 % 1013,9 hPa 0,0 l/m 0,0 km/h (0 Bft) N-NO 16 2 min 0,000 mm 0,0 UV-I 205 W/m 9,3 C 9,9 C 0,0 km/h (0 Bft) 97,87 %
08.09.2017 08:16 10,0 C 17,8 C 95 % 1014,0 hPa 0,0 l/m 0,0 km/h (0 Bft) N-NO 16 2 min 0,000 mm 0,0 UV-I 211 W/m 9,2 C 10,0 C 0,0 km/h (0 Bft) 95,74 %
08.09.2017 08:18 10,1 C 17,8 C 95 % 1014,0 hPa 0,0 l/m 1,0 km/h (0 Bft) N-NO 16 2 min 0,000 mm 0,0 UV-I 217 W/m 9,3 C 10,1 C 3,2 km/h (1 Bft) 97,92 %
08.09.2017 08:20 10,2 C 17,8 C 95 % 1014,0 hPa 0,0 l/m 1,8 km/h (1 Bft) N-NO 16 2 min 0,000 mm 0,0 UV-I 223 W/m 9,4 C 10,2 C 4,8 km/h (1 Bft) 93,62 %
08.09.2017 08:22 10,4 C 17,8 C 95 % 1014,0 hPa 0,0 l/m 1,5 km/h (1 Bft) N-NO 16 2 min 0,000 mm 0,0 UV-I 229 W/m 9,6 C 10,4 C 3,2 km/h (1 Bft) 100,00 %
08.09.2017 08:24 10,6 C 17,8 C 95 % 1014,0 hPa 0,0 l/m 3,4 km/h (1 Bft) N-NO 16 2 min 0,000 mm 0,5 UV-I 236 W/m 9,8 C 10,6 C 4,8 km/h (1 Bft) 100,00 %
08.09.2017 08:26 10,6 C 17,8 C 94 % 1014,0 hPa 0,0 l/m 4,0 km/h (1 Bft) N-NO 16 2 min 0,000 mm 0,5 UV-I 243 W/m 9,7 C 10,6 C 6,4 km/h (2 Bft) 100,00 %
08.09.2017 08:28 10,7 C 17,8 C 94 % 1014,0 hPa 0,0 l/m 3,6 km/h (1 Bft) N-NO 17 2 min 0,000 mm 0,5 UV-I 250 W/m 9,8 C 10,7 C 6,4 km/h (2 Bft) 100,00 %
08.09.2017 08:30 10,7 C 17,8 C 93 % 1014,0 hPa 0,0 l/m 3,2 km/h (1 Bft) N-NO 17 2 min 0,000 mm 0,5 UV-I 256 W/m 9,6 C 10,7 C 4,8 km/h (1 Bft) 97,92 %
08.09.2017 08:32 10,8 C 17,8 C 93 % 1014,0 hPa 0,0 l/m 3,1 km/h (1 Bft) N-NO 17 2 min 0,000 mm 0,5 UV-I 261 W/m 9,7 C 10,8 C 3,2 km/h (1 Bft) 100,00 %
08.09.2017 08:34 10,9 C 17,8 C 93 % 1014,0 hPa 0,0 l/m 1,8 km/h (1 Bft) N-NO 17 2 min 0,000 mm 0,6 UV-I 270 W/m 9,8 C 10,9 C 3,2 km/h (1 Bft) 100,00 %
08.09.2017 08:36 11,1 C 17,8 C 93 % 1014,0 hPa 0,0 l/m 1,8 km/h (1 Bft) N-NO 17 2 min 0,000 mm 0,6 UV-I 276 W/m 10,0 C 11,1 C 3,2 km/h (1 Bft) 98,00 %
08.09.2017 08:38 11,2 C 17,8 C 92 % 1014,1 hPa 0,0 l/m 1,4 km/h (1 Bft) N-NO 17 2 min 0,000 mm 0,6 UV-I 281 W/m 9,9 C 11,2 C 3,2 km/h (1 Bft) 100,00 %
08.09.2017 08:40 11,3 C 17,8 C 92 % 1014,1 hPa 0,0 l/m 0,4 km/h (0 Bft) N-NO 17 2 min 0,000 mm 0,6 UV-I 287 W/m 10,0 C 11,3 C 1,6 km/h (1 Bft) 100,00 %
08.09.2017 08:42 11,4 C 17,8 C 91 % 1014,1 hPa 0,0 l/m 0,0 km/h (0 Bft) N-NO 17 2 min 0,000 mm 0,6 UV-I 292 W/m 10,0 C 11,4 C 0,0 km/h (0 Bft) 97,14 %
08.09.2017 08:44 11,4 C 17,8 C 91 % 1014,1 hPa 0,0 l/m 0,1 km/h (0 Bft) N-NO 17 2 min 0,000 mm 0,7 UV-I 296 W/m 10,0 C 11,4 C 1,6 km/h (1 Bft) 100,00 %
08.09.2017 08:46 11,4 C 17,8 C 90 % 1014,1 hPa 0,0 l/m 1,7 km/h (1 Bft) N-NO 17 2 min 0,000 mm 0,7 UV-I 302 W/m 9,8 C 11,4 C 3,2 km/h (1 Bft) 100,00 %
08.09.2017 08:48 11,4 C 17,8 C 91 % 1014,1 hPa 0,0 l/m 0,0 km/h (0 Bft) N-NO 17 2 min 0,000 mm 0,7 UV-I 307 W/m 10,0 C 11,4 C 0,0 km/h (0 Bft) 100,00 %
08.09.2017 08:50 11,6 C 17,8 C 91 % 1014,0 hPa 0,0 l/m 0,0 km/h (0 Bft) N-NO 17 2 min 0,000 mm 0,7 UV-I 312 W/m 10,2 C 11,6 C 1,6 km/h (1 Bft) 100,00 %
08.09.2017 08:52 11,7 C 17,8 C 90 % 1014,0 hPa 0,0 l/m 0,1 km/h (0 Bft) N-NO 17 2 min 0,000 mm 0,8 UV-I 318 W/m 10,1 C 11,7 C 1,6 km/h (1 Bft) 100,00 %
08.09.2017 08:54 11,7 C 17,8 C 90 % 1014,0 hPa 0,0 l/m 0,2 km/h (0 Bft) N-NO 17 2 min 0,000 mm 0,8 UV-I 322 W/m 10,1 C 11,7 C 1,6 km/h (1 Bft) 100,00 %
08.09.2017 08:56 11,8 C 17,8 C 90 % 1014,0 hPa 0,0 l/m 0,1 km/h (0 Bft) N-NO 17 2 min 0,000 mm 0,8 UV-I 330 W/m 10,2 C 11,8 C 1,6 km/h (1 Bft) 100,00 %
08.09.2017 08:58 11,9 C 17,8 C 90 % 1014,0 hPa 0,0 l/m 0,0 km/h (0 Bft) N-NO 17 2 min 0,000 mm 0,9 UV-I 337 W/m 10,3 C 11,9 C 0,0 km/h (0 Bft) 97,87 %
08.09.2017 09:00 11,9 C 17,8 C 89 % 1013,9 hPa 0,0 l/m 0,0 km/h (0 Bft) N-NO 17 2 min 0,127 mm 0,9 UV-I 342 W/m 10,1 C 11,9 C 0,0 km/h (0 Bft) 100,00 %
08.09.2017 09:03 12,1 C 17,8 C 89 % 1013,9 hPa 0,0 l/m 0,9 km/h (0 Bft) N-NO 17 3 min 0,000 mm 0,9 UV-I 349 W/m 10,3 C 12,1 C 4,8 km/h (1 Bft) 100,00 %
08.09.2017 09:04 12,2 C 17,8 C 89 % 1013,9 hPa 0,0 l/m 1,0 km/h (0 Bft) N-NO 17 1 min 0,000 mm 0,9 UV-I 353 W/m 10,4 C 12,2 C 3,2 km/h (1 Bft) 91,30 %
08.09.2017 09:06 12,3 C 17,8 C 89 % 1013,9 hPa 0,0 l/m 0,3 km/h (0 Bft) N-NO 17 2 min 0,000 mm 1,0 UV-I 357 W/m 10,5 C 12,3 C 1,6 km/h (1 Bft) 100,00 %
08.09.2017 09:08 12,3 C 17,8 C 88 % 1013,9 hPa 0,0 l/m 2,2 km/h (1 Bft) N-NO 17 2 min 0,000 mm 1,0 UV-I 363 W/m 10,4 C 12,3 C 3,2 km/h (1 Bft) 95,74 %
08.09.2017 09:10 12,6 C 17,8 C 89 % 1013,9 hPa 0,0 l/m 3,4 km/h (1 Bft) N-NO 17 2 min 0,000 mm 1,0 UV-I 369 W/m 10,8 C 12,6 C 4,8 km/h (1 Bft) 100,00 %
08.09.2017 09:12 12,6 C 17,8 C 88 % 1013,9 hPa 0,0 l/m 3,7 km/h (1 Bft) N-NO 17 2 min 0,000 mm 1,1 UV-I 371 W/m 10,7 C 12,6 C 4,8 km/h (1 Bft) 100,00 %
08.09.2017 09:14 12,6 C 17,8 C 87 % 1013,9 hPa 0,0 l/m 3,5 km/h (1 Bft) N-NO 17 2 min 0,000 mm 1,1 UV-I 377 W/m 10,5 C 12,6 C 6,4 km/h (2 Bft) 95,74 %
08.09.2017 09:16 12,8 C 17,8 C 87 % 1013,9 hPa 0,0 l/m 3,1 km/h (1 Bft) N-NO 17 2 min 0,000 mm 1,1 UV-I 382 W/m 10,7 C 12,8 C 4,8 km/h (1 Bft) 97,87 %
08.09.2017 09:18 12,9 C 17,8 C 87 % 1013,8 hPa 0,0 l/m 2,8 km/h (1 Bft) N-NO 17 2 min 0,000 mm 1,1 UV-I 388 W/m 10,8 C 12,9 C 6,4 km/h (2 Bft) 97,87 %
08.09.2017 09:20 13,0 C 17,8 C 86 % 1013,8 hPa 0,0 l/m 4,4 km/h (1 Bft) NO 42 2 min 0,000 mm 1,2 UV-I 393 W/m 10,7 C 13,0 C 6,4 km/h (2 Bft) 100,00 %
08.09.2017 09:22 13,0 C 17,8 C 85 % 1013,8 hPa 0,0 l/m 3,5 km/h (1 Bft) NO 43 2 min 0,000 mm 1,2 UV-I 399 W/m 10,5 C 13,0 C 6,4 km/h (2 Bft) 100,00 %
08.09.2017 09:24 13,1 C 17,8 C 86 % 1013,8 hPa 0,0 l/m 4,7 km/h (1 Bft) NO 43 2 min 0,000 mm 1,2 UV-I 404 W/m 10,8 C 13,1 C 6,4 km/h (2 Bft) 100,00 %
08.09.2017 09:26 13,1 C 17,8 C 84 % 1013,7 hPa 0,0 l/m 2,9 km/h (1 Bft) O-SO 109 2 min 0,000 mm 1,2 UV-I 408 W/m 10,5 C 13,1 C 6,4 km/h (2 Bft) 93,62 %
08.09.2017 09:28 13,0 C 17,8 C 86 % 1013,7 hPa 0,0 l/m 5,3 km/h (1 Bft) NO 45 2 min 0,000 mm 1,3 UV-I 415 W/m 10,7 C 13,0 C 6,4 km/h (2 Bft) 100,00 %
08.09.2017 09:30 13,2 C 17,8 C 85 % 1013,7 hPa 0,0 l/m 5,8 km/h (2 Bft) O-NO 57 2 min 0,000 mm 1,3 UV-I 419 W/m 10,7 C 13,2 C 6,4 km/h (2 Bft) 100,00 %
08.09.2017 09:32 13,3 C 17,8 C 85 % 1013,7 hPa 0,0 l/m 3,9 km/h (1 Bft) NO 49 2 min 0,000 mm 1,3 UV-I 423 W/m 10,8 C 13,3 C 8,0 km/h (2 Bft) 100,00 %
08.09.2017 09:34 13,3 C 17,8 C 85 % 1013,8 hPa 0,0 l/m 4,2 km/h (1 Bft) NO 49 2 min 0,000 mm 1,3 UV-I 425 W/m 10,8 C 13,3 C 8,0 km/h (2 Bft) 95,74 %
08.09.2017 09:36 13,3 C 17,8 C 85 % 1013,7 hPa 0,0 l/m 2,1 km/h (1 Bft) NO 50 2 min 0,000 mm 1,4 UV-I 433 W/m 10,8 C 13,3 C 6,4 km/h (2 Bft) 97,87 %
08.09.2017 09:38 13,5 C 17,8 C 86 % 1013,7 hPa 0,0 l/m 3,7 km/h (1 Bft) NO 50 2 min 0,000 mm 1,4 UV-I 440 W/m 11,2 C 13,5 C 6,4 km/h (2 Bft) 100,00 %
08.09.2017 09:40 13,6 C 17,8 C 85 % 1013,7 hPa 0,0 l/m 4,9 km/h (1 Bft) NO 42 2 min 0,000 mm 1,4 UV-I 445 W/m 11,1 C 13,6 C 8,0 km/h (2 Bft) 95,74 %
08.09.2017 09:42 13,6 C 17,8 C 83 % 1013,9 hPa 0,0 l/m 6,6 km/h (2 Bft) NO 40 2 min 0,000 mm 1,5 UV-I 450 W/m 10,8 C 13,5 C 9,7 km/h (2 Bft) 100,00 %
08.09.2017 09:44 13,5 C 17,8 C 83 % 1013,9 hPa 0,0 l/m 4,8 km/h (1 Bft) NO 52 2 min 0,000 mm 1,5 UV-I 456 W/m 10,7 C 13,5 C 6,4 km/h (2 Bft) 97,87 %
08.09.2017 09:46 13,6 C 17,8 C 83 % 1013,8 hPa 0,0 l/m 5,5 km/h (1 Bft) NO 43 2 min 0,000 mm 1,5 UV-I 461 W/m 10,8 C 13,6 C 9,7 km/h (2 Bft) 97,87 %
08.09.2017 09:48 13,6 C 17,8 C 84 % 1013,9 hPa 0,0 l/m 5,3 km/h (1 Bft) NO 53 2 min 0,000 mm 1,6 UV-I 466 W/m 10,9 C 13,6 C 8,0 km/h (2 Bft) 97,92 %
08.09.2017 09:50 13,6 C 17,8 C 83 % 1013,9 hPa 0,0 l/m 4,9 km/h (1 Bft) NO 49 2 min 0,000 mm 1,6 UV-I 470 W/m 10,8 C 13,6 C 8,0 km/h (2 Bft) 97,87 %
08.09.2017 09:52 13,7 C 17,8 C 85 % 1013,9 hPa 0,0 l/m 4,8 km/h (1 Bft) O-NO 57 2 min 0,000 mm 1,6 UV-I 475 W/m 11,2 C 13,7 C 6,4 km/h (2 Bft) 97,37 %
08.09.2017 09:54 13,7 C 17,8 C 83 % 1013,8 hPa 0,0 l/m 3,1 km/h (1 Bft) O-NO 57 2 min 0,000 mm 1,7 UV-I 480 W/m 10,9 C 13,7 C 6,4 km/h (2 Bft) 98,04 %
08.09.2017 09:56 13,8 C 17,8 C 82 % 1013,9 hPa 0,0 l/m 2,0 km/h (1 Bft) NO 51 2 min 0,000 mm 1,7 UV-I 486 W/m 10,8 C 13,8 C 4,8 km/h (1 Bft) 95,74 %
08.09.2017 09:58 13,9 C 17,8 C 83 % 1013,9 hPa 0,0 l/m 1,2 km/h (1 Bft) NO 50 2 min 0,000 mm 1,8 UV-I 492 W/m 11,1 C 13,9 C 3,2 km/h (1 Bft) 91,49 %
08.09.2017 10:00 13,8 C 17,8 C 81 % 1013,8 hPa 0,0 l/m 0,6 km/h (0 Bft) NO 47 2 min 0,203 mm 1,8 UV-I 498 W/m 10,6 C 13,8 C 3,2 km/h (1 Bft) 97,87 %
08.09.2017 10:02 13,9 C 17,8 C 82 % 1013,8 hPa 0,0 l/m 2,0 km/h (1 Bft) NO 47 2 min 0,000 mm 1,9 UV-I 503 W/m 10,9 C 13,9 C 4,8 km/h (1 Bft) 97,87 %
08.09.2017 10:04 14,1 C 17,8 C 83 % 1013,8 hPa 0,0 l/m 2,6 km/h (1 Bft) NO 47 2 min 0,000 mm 1,9 UV-I 509 W/m 11,3 C 14,1 C 4,8 km/h (1 Bft) 88,57 %
08.09.2017 10:06 14,1 C 17,8 C 81 % 1013,8 hPa 0,0 l/m 3,7 km/h (1 Bft) NO 47 2 min 0,000 mm 2,0 UV-I 516 W/m 10,9 C 14,1 C 4,8 km/h (1 Bft) 98,46 %
08.09.2017 10:08 14,1 C 17,8 C 80 % 1013,8 hPa 0,0 l/m 2,4 km/h (1 Bft) NO 47 2 min 0,000 mm 2,0 UV-I 520 W/m 10,7 C 14,1 C 6,4 km/h (2 Bft) 95,74 %
08.09.2017 10:10 14,2 C 17,8 C 80 % 1013,8 hPa 0,0 l/m 3,1 km/h (1 Bft) NO 46 2 min 0,000 mm 2,0 UV-I 524 W/m 10,8 C 14,2 C 6,4 km/h (2 Bft) 95,74 %
08.09.2017 10:12 14,2 C 17,8 C 80 % 1013,8 hPa 0,0 l/m 1,2 km/h (1 Bft) NO 46 2 min 0,000 mm 2,1 UV-I 527 W/m 10,8 C 14,2 C 3,2 km/h (1 Bft) 97,87 %
08.09.2017 10:14 14,3 C 17,8 C 82 % 1013,8 hPa 0,0 l/m 3,4 km/h (1 Bft) NO 46 2 min 0,000 mm 2,1 UV-I 531 W/m 11,3 C 14,3 C 6,4 km/h (2 Bft) 100,00 %
08.09.2017 10:16 14,3 C 17,8 C 80 % 1013,8 hPa 0,0 l/m 2,9 km/h (1 Bft) NO 46 2 min 0,000 mm 2,2 UV-I 535 W/m 10,9 C 14,3 C 6,4 km/h (2 Bft) 97,87 %
08.09.2017 10:18 14,3 C 17,8 C 79 % 1013,8 hPa 0,0 l/m 1,4 km/h (1 Bft) NO 46 2 min 0,000 mm 2,2 UV-I 541 W/m 10,7 C 14,3 C 3,2 km/h (1 Bft) 100,00 %
08.09.2017 10:20 14,4 C 17,8 C 79 % 1013,8 hPa 0,0 l/m 4,0 km/h (1 Bft) O-NO 63 2 min 0,000 mm 2,2 UV-I 547 W/m 10,8 C 14,4 C 6,4 km/h (2 Bft) 100,00 %
08.09.2017 10:22 14,5 C 17,8 C 79 % 1013,9 hPa 0,0 l/m 2,7 km/h (1 Bft) O-NO 63 2 min 0,000 mm 2,3 UV-I 552 W/m 10,9 C 14,5 C 4,8 km/h (1 Bft) 100,00 %
08.09.2017 10:24 14,6 C 17,8 C 79 % 1013,9 hPa 0,0 l/m 1,6 km/h (1 Bft) O-NO 61 2 min 0,000 mm 2,3 UV-I 554 W/m 11,0 C 14,6 C 6,4 km/h (2 Bft) 100,00 %
08.09.2017 10:26 14,8 C 17,8 C 79 % 1013,8 hPa 0,0 l/m 1,4 km/h (1 Bft) O-NO 61 2 min 0,000 mm 2,4 UV-I 560 W/m 11,2 C 14,8 C 4,8 km/h (1 Bft) 97,87 %
08.09.2017 10:28 14,9 C 17,8 C 78 % 1013,8 hPa 0,0 l/m 1,7 km/h (1 Bft) O-NO 61 2 min 0,000 mm 2,4 UV-I 564 W/m 11,1 C 14,9 C 3,2 km/h (1 Bft) 100,00 %
08.09.2017 10:30 14,7 C 17,8 C 76 % 1013,8 hPa 0,0 l/m 2,6 km/h (1 Bft) O-NO 61 2 min 0,000 mm 2,4 UV-I 567 W/m 10,5 C 14,7 C 4,8 km/h (1 Bft) 97,87 %
08.09.2017 10:32 14,8 C 17,8 C 79 % 1013,8 hPa 0,0 l/m 0,7 km/h (0 Bft) O-NO 61 2 min 0,000 mm 2,5 UV-I 572 W/m 11,2 C 14,8 C 1,6 km/h (1 Bft) 100,00 %
08.09.2017 10:34 15,0 C 17,8 C 79 % 1013,8 hPa 0,0 l/m 4,1 km/h (1 Bft) N-NO 31 2 min 0,000 mm 2,5 UV-I 574 W/m 11,4 C 15,0 C 8,0 km/h (2 Bft) 100,00 %
08.09.2017 10:36 14,9 C 18,3 C 76 % 1013,8 hPa 0,0 l/m 0,5 km/h (0 Bft) N-NO 31 2 min 0,000 mm 2,6 UV-I 579 W/m 10,7 C 14,9 C 3,2 km/h (1 Bft) 100,00 %
08.09.2017 10:38 15,0 C 17,8 C 80 % 1013,7 hPa 0,0 l/m 5,0 km/h (1 Bft) N-NO 28 2 min 0,000 mm 2,6 UV-I 584 W/m 11,6 C 15,0 C 8,0 km/h (2 Bft) 100,00 %
08.09.2017 10:40 15,1 C 17,8 C 79 % 1013,8 hPa 0,0 l/m 2,9 km/h (1 Bft) N-NO 28 2 min 0,000 mm 2,6 UV-I 589 W/m 11,5 C 15,1 C 8,0 km/h (2 Bft) 97,87 %
08.09.2017 10:42 15,2 C 17,8 C 80 % 1013,7 hPa 0,0 l/m 1,0 km/h (0 Bft) N-NO 28 2 min 0,000 mm 2,7 UV-I 592 W/m 11,8 C 15,2 C 3,2 km/h (1 Bft) 100,00 %
08.09.2017 10:44 15,2 C 17,8 C 79 % 1013,7 hPa 0,0 l/m 3,1 km/h (1 Bft) N-NO 28 2 min 0,000 mm 2,7 UV-I 597 W/m 11,6 C 15,2 C 6,4 km/h (2 Bft) 100,00 %
08.09.2017 10:46 15,4 C 17,8 C 80 % 1013,6 hPa 0,0 l/m 3,4 km/h (1 Bft) N-NO 28 2 min 0,000 mm 2,8 UV-I 595 W/m 12,0 C 15,4 C 6,4 km/h (2 Bft) 100,00 %
08.09.2017 10:48 15,6 C 18,3 C 80 % 1013,6 hPa 0,0 l/m 3,8 km/h (1 Bft) N-NO 28 2 min 0,000 mm 2,8 UV-I 605 W/m 12,2 C 15,6 C 6,4 km/h (2 Bft) 97,87 %
08.09.2017 10:50 15,6 C 18,3 C 79 % 1013,6 hPa 0,0 l/m 3,5 km/h (1 Bft) N-NO 28 2 min 0,000 mm 2,9 UV-I 608 W/m 12,0 C 15,6 C 8,0 km/h (2 Bft) 97,87 %
08.09.2017 10:52 15,6 C 18,3 C 77 % 1013,5 hPa 0,0 l/m 1,6 km/h (1 Bft) N-NO 28 2 min 0,000 mm 2,9 UV-I 613 W/m 11,6 C 15,6 C 4,8 km/h (1 Bft) 100,00 %
08.09.2017 10:54 15,6 C 18,3 C 77 % 1013,5 hPa 0,0 l/m 2,5 km/h (1 Bft) N-NO 17 2 min 0,000 mm 2,9 UV-I 615 W/m 11,6 C 15,6 C 6,4 km/h (2 Bft) 97,87 %
08.09.2017 10:56 15,6 C 18,3 C 79 % 1013,4 hPa 0,0 l/m 4,3 km/h (1 Bft) N 5 2 min 0,000 mm 3,0 UV-I 619 W/m 12,0 C 15,6 C 8,0 km/h (2 Bft) 97,87 %
08.09.2017 10:58 15,7 C 18,3 C 78 % 1013,4 hPa 0,0 l/m 4,7 km/h (1 Bft) N 360 2 min 0,000 mm 3,0 UV-I 621 W/m 11,9 C 15,7 C 8,0 km/h (2 Bft) 97,87 %
08.09.2017 11:00 15,7 C 18,3 C 80 % 1013,3 hPa 0,0 l/m 6,1 km/h (2 Bft) NO 54 2 min 0,000 mm 3,0 UV-I 626 W/m 12,3 C 15,7 C 9,7 km/h (2 Bft) 96,00 %
08.09.2017 11:02 15,8 C 18,3 C 77 % 1013,3 hPa 0,0 l/m 5,3 km/h (1 Bft) NO 51 2 min 0,305 mm 3,1 UV-I 629 W/m 11,8 C 15,8 C 9,7 km/h (2 Bft) 100,00 %
08.09.2017 11:04 15,7 C 18,3 C 77 % 1013,2 hPa 0,0 l/m 4,7 km/h (1 Bft) NO 38 2 min 0,000 mm 3,1 UV-I 630 W/m 11,7 C 15,7 C 6,4 km/h (2 Bft) 100,00 %
08.09.2017 11:06 15,9 C 18,3 C 80 % 1013,2 hPa 0,0 l/m 5,1 km/h (1 Bft) NO 51 2 min 0,000 mm 3,1 UV-I 635 W/m 12,5 C 15,9 C 6,4 km/h (2 Bft) 100,00 %
08.09.2017 11:08 16,1 C 18,3 C 74 % 1013,2 hPa 0,0 l/m 7,2 km/h (2 Bft) O-NO 59 2 min 0,000 mm 3,1 UV-I 640 W/m 11,5 C 15,7 C 12,9 km/h (3 Bft) 98,00 %
08.09.2017 11:10 16,0 C 18,3 C 74 % 1013,2 hPa 0,0 l/m 7,5 km/h (2 Bft) O-NO 69 2 min 0,000 mm 3,2 UV-I 644 W/m 11,4 C 15,4 C 14,5 km/h (3 Bft) 100,00 %
08.09.2017 11:13 16,2 C 18,3 C 73 % 1013,2 hPa 0,0 l/m 6,9 km/h (2 Bft) NO 53 3 min 0,000 mm 3,2 UV-I 646 W/m 11,4 C 15,9 C 12,9 km/h (3 Bft) 98,57 %
08.09.2017 11:14 16,2 C 18,3 C 72 % 1013,2 hPa 0,0 l/m 2,5 km/h (1 Bft) O 94 1 min 0,000 mm 3,2 UV-I 648 W/m 11,1 C 16,2 C 4,8 km/h (1 Bft) 100,00 %
08.09.2017 11:16 16,3 C 18,3 C 77 % 1013,2 hPa 0,0 l/m 6,1 km/h (2 Bft) N-NO 32 2 min 0,000 mm 3,3 UV-I 649 W/m 12,3 C 16,3 C 8,0 km/h (2 Bft) 97,87 %
08.09.2017 11:18 16,3 C 18,3 C 72 % 1013,1 hPa 0,0 l/m 5,7 km/h (1 Bft) O-NO 65 2 min 0,000 mm 3,3 UV-I 652 W/m 11,2 C 16,3 C 9,7 km/h (2 Bft) 100,00 %
08.09.2017 11:20 16,3 C 18,3 C 71 % 1013,1 hPa 0,0 l/m 5,7 km/h (1 Bft) O 82 2 min 0,000 mm 3,3 UV-I 657 W/m 11,0 C 16,3 C 8,0 km/h (2 Bft) 100,00 %
08.09.2017 11:22 16,4 C 18,3 C 75 % 1013,1 hPa 0,0 l/m 6,6 km/h (2 Bft) NO 48 2 min 0,000 mm 3,4 UV-I 661 W/m 12,0 C 16,3 C 12,9 km/h (3 Bft) 100,00 %
08.09.2017 11:24 16,4 C 18,3 C 71 % 1013,0 hPa 0,0 l/m 5,0 km/h (1 Bft) NO 36 2 min 0,000 mm 3,4 UV-I 663 W/m 11,1 C 16,4 C 9,7 km/h (2 Bft) 100,00 %
08.09.2017 11:26 16,6 C 18,3 C 73 % 1013,0 hPa 0,0 l/m 7,1 km/h (2 Bft) NO 36 2 min 0,000 mm 3,4 UV-I 666 W/m 11,7 C 16,2 C 11,3 km/h (2 Bft) 97,87 %
08.09.2017 11:28 16,7 C 18,3 C 69 % 1012,9 hPa 0,0 l/m 5,9 km/h (2 Bft) NO 54 2 min 0,000 mm 3,5 UV-I 669 W/m 11,0 C 16,7 C 11,3 km/h (2 Bft) 95,74 %
08.09.2017 11:30 16,8 C 18,3 C 73 % 1012,8 hPa 0,0 l/m 3,0 km/h (1 Bft) NO 55 2 min 0,000 mm 3,5 UV-I 667 W/m 11,9 C 16,8 C 4,8 km/h (1 Bft) 97,87 %
08.09.2017 11:32 16,8 C 18,3 C 74 % 1012,9 hPa 0,0 l/m 4,7 km/h (1 Bft) O-NO 57 2 min 0,000 mm 3,5 UV-I 669 W/m 12,1 C 16,8 C 9,7 km/h (2 Bft) 95,74 %
08.09.2017 11:34 16,9 C 18,3 C 70 % 1012,9 hPa 0,0 l/m 5,6 km/h (1 Bft) O-NO 57 2 min 0,000 mm 3,5 UV-I 670 W/m 11,4 C 16,9 C 8,0 km/h (2 Bft) 95,74 %
08.09.2017 11:36 16,8 C 18,3 C 70 % 1012,8 hPa 0,0 l/m 3,0 km/h (1 Bft) O-NO 57 2 min 0,000 mm 3,6 UV-I 675 W/m 11,3 C 16,8 C 6,4 km/h (2 Bft) 95,74 %
08.09.2017 11:38 16,9 C 18,3 C 71 % 1012,7 hPa 0,0 l/m 6,4 km/h (2 Bft) NO 55 2 min 0,000 mm 3,6 UV-I 677 W/m 11,6 C 16,9 C 11,3 km/h (2 Bft) 96,00 %
08.09.2017 11:40 16,9 C 18,3 C 71 % 1012,7 hPa 0,0 l/m 4,7 km/h (1 Bft) NO 46 2 min 0,000 mm 3,6 UV-I 681 W/m 11,6 C 16,9 C 8,0 km/h (2 Bft) 93,62 %
08.09.2017 11:42 16,9 C 18,3 C 70 % 1012,7 hPa 0,0 l/m 3,0 km/h (1 Bft) NO 46 2 min 0,000 mm 3,7 UV-I 683 W/m 11,4 C 16,9 C 4,8 km/h (1 Bft) 95,74 %
08.09.2017 11:44 16,8 C 18,3 C 72 % 1012,6 hPa 0,0 l/m 4,7 km/h (1 Bft) NO 53 2 min 0,000 mm 3,7 UV-I 686 W/m 11,7 C 16,8 C 8,0 km/h (2 Bft) 93,62 %
08.09.2017 11:46 16,9 C 18,3 C 71 % 1012,6 hPa 0,0 l/m 5,8 km/h (2 Bft) NO 39 2 min 0,000 mm 3,7 UV-I 687 W/m 11,6 C 16,9 C 8,0 km/h (2 Bft) 95,83 %
08.09.2017 11:48 17,0 C 18,3 C 69 % 1012,5 hPa 0,0 l/m 3,6 km/h (1 Bft) NO 38 2 min 0,000 mm 3,7 UV-I 689 W/m 11,3 C 17,0 C 8,0 km/h (2 Bft) 95,74 %
08.09.2017 11:50 17,1 C 18,3 C 69 % 1012,5 hPa 0,0 l/m 6,0 km/h (2 Bft) O-NO 66 2 min 0,000 mm 3,8 UV-I 691 W/m 11,4 C 17,1 C 9,7 km/h (2 Bft) 93,62 %
08.09.2017 11:52 17,1 C 18,3 C 69 % 1012,5 hPa 0,0 l/m 5,5 km/h (1 Bft) O 99 2 min 0,000 mm 3,8 UV-I 691 W/m 11,4 C 17,1 C 9,7 km/h (2 Bft) 95,74 %
08.09.2017 11:54 17,3 C 18,3 C 70 % 1012,4 hPa 0,0 l/m 3,1 km/h (1 Bft) N-NO 19 2 min 0,000 mm 3,8 UV-I 694 W/m 11,8 C 17,3 C 4,8 km/h (1 Bft) 95,74 %
08.09.2017 11:56 17,4 C 18,3 C 68 % 1012,4 hPa 0,0 l/m 4,1 km/h (1 Bft) O-NO 69 2 min 0,000 mm 3,8 UV-I 696 W/m 11,4 C 17,4 C 6,4 km/h (2 Bft) 93,62 %
08.09.2017 11:58 17,3 C 18,3 C 69 % 1012,4 hPa 0,0 l/m 2,4 km/h (1 Bft) O-NO 69 2 min 0,000 mm 3,9 UV-I 695 W/m 11,6 C 17,3 C 6,4 km/h (2 Bft) 95,74 %
08.09.2017 12:00 17,3 C 18,3 C 68 % 1012,3 hPa 0,0 l/m 4,9 km/h (1 Bft) NO 53 2 min 0,381 mm 3,9 UV-I 695 W/m 11,3 C 17,3 C 11,3 km/h (2 Bft) 94,74 %
08.09.2017 12:02 17,4 C 18,3 C 70 % 1012,4 hPa 0,0 l/m 5,2 km/h (1 Bft) O-NO 66 2 min 0,000 mm 3,9 UV-I 700 W/m 11,9 C 17,4 C 8,0 km/h (2 Bft) 98,00 %
08.09.2017 12:04 17,6 C 18,3 C 71 % 1012,3 hPa 0,0 l/m 4,5 km/h (1 Bft) O-NO 69 2 min 0,000 mm 3,9 UV-I 700 W/m 12,3 C 17,6 C 9,7 km/h (2 Bft) 95,74 %
08.09.2017 12:06 17,7 C 18,3 C 69 % 1012,3 hPa 0,0 l/m 5,4 km/h (1 Bft) O 79 2 min 0,000 mm 4,0 UV-I 701 W/m 11,9 C 17,7 C 11,3 km/h (2 Bft) 97,87 %
08.09.2017 12:08 17,7 C 18,3 C 68 % 1012,3 hPa 0,0 l/m 3,5 km/h (1 Bft) O 80 2 min 0,000 mm 4,0 UV-I 697 W/m 11,7 C 17,7 C 6,4 km/h (2 Bft) 97,87 %
08.09.2017 12:10 17,7 C 18,3 C 69 % 1012,2 hPa 0,0 l/m 2,4 km/h (1 Bft) O 80 2 min 0,000 mm 4,0 UV-I 693 W/m 11,9 C 17,7 C 4,8 km/h (1 Bft) 97,87 %
08.09.2017 12:12 17,7 C 18,3 C 70 % 1012,2 hPa 0,0 l/m 5,6 km/h (1 Bft) O 80 2 min 0,000 mm 4,0 UV-I 692 W/m 12,2 C 17,7 C 8,0 km/h (2 Bft) 97,87 %
08.09.2017 12:14 17,9 C 18,3 C 71 % 1012,2 hPa 0,0 l/m 3,1 km/h (1 Bft) O-NO 74 2 min 0,000 mm 4,0 UV-I 705 W/m 12,6 C 17,9 C 6,4 km/h (2 Bft) 97,87 %
08.09.2017 12:16 18,1 C 18,3 C 71 % 1012,1 hPa 0,0 l/m 7,6 km/h (2 Bft) NO 34 2 min 0,000 mm 4,0 UV-I 705 W/m 12,8 C 17,5 C 12,9 km/h (3 Bft) 98,00 %
08.09.2017 12:18 18,0 C 18,3 C 68 % 1012,1 hPa 0,0 l/m 4,0 km/h (1 Bft) N-NO 12 2 min 0,000 mm 4,0 UV-I 706 W/m 12,0 C 18,0 C 9,7 km/h (2 Bft) 97,87 %
08.09.2017 12:20 17,9 C 18,3 C 73 % 1012,1 hPa 0,0 l/m 3,3 km/h (1 Bft) N 355 2 min 0,000 mm 4,0 UV-I 707 W/m 13,0 C 17,9 C 4,8 km/h (1 Bft) 97,87 %
08.09.2017 12:22 18,0 C 18,3 C 72 % 1012,1 hPa 0,0 l/m 1,6 km/h (1 Bft) NW 311 2 min 0,000 mm 4,1 UV-I 707 W/m 12,9 C 18,0 C 4,8 km/h (1 Bft) 95,74 %
08.09.2017 12:24 18,1 C 18,3 C 74 % 1012,1 hPa 0,0 l/m 2,3 km/h (1 Bft) N-NW 337 2 min 0,000 mm 4,1 UV-I 707 W/m 13,4 C 18,1 C 4,8 km/h (1 Bft) 93,62 %
08.09.2017 12:26 18,1 C 18,3 C 72 % 1012,1 hPa 0,0 l/m 3,7 km/h (1 Bft) N-NO 30 2 min 0,000 mm 4,1 UV-I 710 W/m 13,0 C 18,1 C 8,0 km/h (2 Bft) 95,74 %
08.09.2017 12:28 18,2 C 18,3 C 73 % 1012,1 hPa 0,0 l/m 5,6 km/h (1 Bft) N-NO 17 2 min 0,000 mm 4,1 UV-I 710 W/m 13,3 C 18,2 C 11,3 km/h (2 Bft) 97,92 %
08.09.2017 12:30 18,2 C 18,3 C 68 % 1012,1 hPa 0,0 l/m 1,9 km/h (1 Bft) N 11 2 min 0,000 mm 4,1 UV-I 710 W/m 12,2 C 18,2 C 4,8 km/h (1 Bft) 95,74 %
08.09.2017 12:32 18,1 C 18,3 C 69 % 1012,0 hPa 0,0 l/m 3,7 km/h (1 Bft) N-NO 28 2 min 0,000 mm 4,1 UV-I 712 W/m 12,3 C 18,1 C 8,0 km/h (2 Bft) 93,62 %
08.09.2017 12:34 18,0 C 18,3 C 69 % 1012,0 hPa 0,0 l/m 1,2 km/h (1 Bft) N-NO 27 2 min 0,000 mm 4,2 UV-I 714 W/m 12,2 C 18,0 C 3,2 km/h (1 Bft) 95,74 %
08.09.2017 12:36 18,0 C 18,3 C 71 % 1012,0 hPa 0,0 l/m 1,4 km/h (1 Bft) N-NO 23 2 min 0,000 mm 4,2 UV-I 716 W/m 12,7 C 18,0 C 3,2 km/h (1 Bft) 94,29 %
08.09.2017 12:38 18,1 C 18,3 C 71 % 1012,0 hPa 0,0 l/m 1,5 km/h (1 Bft) N-NO 13 2 min 0,000 mm 4,2 UV-I 718 W/m 12,8 C 18,1 C 3,2 km/h (1 Bft) 97,96 %
08.09.2017 12:40 18,2 C 18,3 C 69 % 1012,0 hPa 0,0 l/m 2,0 km/h (1 Bft) N-NO 30 2 min 0,000 mm 4,2 UV-I 686 W/m 12,4 C 18,2 C 4,8 km/h (1 Bft) 95,74 %
08.09.2017 12:42 18,3 C 18,3 C 70 % 1011,9 hPa 0,0 l/m 5,2 km/h (1 Bft) NO 39 2 min 0,000 mm 4,2 UV-I 718 W/m 12,7 C 18,3 C 9,7 km/h (2 Bft) 95,74 %
08.09.2017 12:44 18,5 C 18,3 C 67 % 1011,9 hPa 0,0 l/m 7,1 km/h (2 Bft) NO 53 2 min 0,000 mm 4,2 UV-I 719 W/m 12,3 C 18,2 C 9,7 km/h (2 Bft) 98,00 %
08.09.2017 12:46 18,6 C 18,3 C 64 % 1011,9 hPa 0,0 l/m 4,8 km/h (1 Bft) NO 53 2 min 0,000 mm 4,2 UV-I 721 W/m 11,7 C 18,6 C 8,0 km/h (2 Bft) 95,74 %
08.09.2017 12:48 18,6 C 18,3 C 66 % 1011,9 hPa 0,0 l/m 5,9 km/h (2 Bft) NO 55 2 min 0,000 mm 4,2 UV-I 721 W/m 12,1 C 18,6 C 8,0 km/h (2 Bft) 95,74 %
08.09.2017 12:50 18,7 C 18,9 C 71 % 1011,8 hPa 0,0 l/m 5,1 km/h (1 Bft) N-NW 346 2 min 0,000 mm 4,2 UV-I 719 W/m 13,3 C 18,7 C 11,3 km/h (2 Bft) 97,87 %
08.09.2017 12:52 18,6 C 18,9 C 70 % 1011,8 hPa 0,0 l/m 2,5 km/h (1 Bft) N-NO 26 2 min 0,000 mm 4,2 UV-I 719 W/m 13,0 C 18,6 C 8,0 km/h (2 Bft) 97,87 %
08.09.2017 12:54 18,6 C 18,9 C 65 % 1011,7 hPa 0,0 l/m 5,1 km/h (1 Bft) O 80 2 min 0,000 mm 4,2 UV-I 718 W/m 11,9 C 18,6 C 6,4 km/h (2 Bft) 97,87 %
08.09.2017 12:56 18,6 C 18,9 C 66 % 1011,6 hPa 0,0 l/m 1,9 km/h (1 Bft) N-NO 14 2 min 0,000 mm 4,2 UV-I 717 W/m 12,1 C 18,6 C 6,4 km/h (2 Bft) 94,87 %
08.09.2017 12:58 18,7 C 18,9 C 67 % 1011,6 hPa 0,0 l/m 4,4 km/h (1 Bft) N-NO 22 2 min 0,000 mm 4,2 UV-I 715 W/m 12,4 C 18,7 C 8,0 km/h (2 Bft) 97,96 %
08.09.2017 13:00 18,9 C 18,9 C 72 % 1011,6 hPa 0,0 l/m 3,3 km/h (1 Bft) N-NO 14 2 min 0,406 mm 4,2 UV-I 718 W/m 13,7 C 18,9 C 8,0 km/h (2 Bft) 98,00 %
08.09.2017 13:02 19,1 C 18,9 C 66 % 1011,4 hPa 0,0 l/m 4,7 km/h (1 Bft) N 9 2 min 0,000 mm 4,2 UV-I 718 W/m 12,6 C 19,1 C 8,0 km/h (2 Bft) 95,83 %
08.09.2017 13:04 19,1 C 18,9 C 66 % 1011,4 hPa 0,0 l/m 5,8 km/h (2 Bft) NO 34 2 min 0,000 mm 4,2 UV-I 713 W/m 12,6 C 19,1 C 8,0 km/h (2 Bft) 95,74 %
08.09.2017 13:06 18,9 C 18,9 C 63 % 1011,4 hPa 0,0 l/m 3,9 km/h (1 Bft) N-NO 14 2 min 0,000 mm 4,2 UV-I 720 W/m 11,7 C 18,9 C 8,0 km/h (2 Bft) 97,87 %
08.09.2017 13:08 18,8 C 18,9 C 64 % 1011,3 hPa 0,0 l/m 2,9 km/h (1 Bft) N-NO 19 2 min 0,000 mm 4,2 UV-I 716 W/m 11,8 C 18,8 C 6,4 km/h (2 Bft) 97,87 %
08.09.2017 13:10 18,6 C 18,9 C 62 % 1011,4 hPa 0,0 l/m 1,2 km/h (1 Bft) N 10 2 min 0,000 mm 4,2 UV-I 715 W/m 11,2 C 18,6 C 3,2 km/h (1 Bft) 96,00 %
08.09.2017 13:12 18,6 C 18,9 C 65 % 1011,3 hPa 0,0 l/m 3,5 km/h (1 Bft) W-NW 292 2 min 0,000 mm 4,2 UV-I 715 W/m 11,9 C 18,6 C 4,8 km/h (1 Bft) 100,00 %
08.09.2017 13:14 18,8 C 18,9 C 67 % 1011,3 hPa 0,0 l/m 2,0 km/h (1 Bft) W-NW 293 2 min 0,000 mm 4,2 UV-I 716 W/m 12,5 C 18,8 C 4,8 km/h (1 Bft) 96,00 %
08.09.2017 13:16 18,9 C 18,9 C 64 % 1011,3 hPa 0,0 l/m 5,4 km/h (1 Bft) N-NO 28 2 min 0,000 mm 3,9 UV-I 716 W/m 11,9 C 18,9 C 8,0 km/h (2 Bft) 98,00 %
08.09.2017 13:18 18,9 C 18,9 C 61 % 1011,2 hPa 0,0 l/m 3,9 km/h (1 Bft) O-SO 114 2 min 0,000 mm 4,2 UV-I 715 W/m 11,2 C 18,9 C 6,4 km/h (2 Bft) 95,74 %
08.09.2017 13:20 19,1 C 18,9 C 64 % 1011,2 hPa 0,0 l/m 7,4 km/h (2 Bft) O-NO 70 2 min 0,000 mm 4,2 UV-I 708 W/m 12,1 C 18,7 C 11,3 km/h (2 Bft) 97,87 %
08.09.2017 13:22 19,2 C 18,9 C 62 % 1011,2 hPa 0,0 l/m 5,0 km/h (1 Bft) NO 53 2 min 0,000 mm 4,2 UV-I 713 W/m 11,7 C 19,2 C 6,4 km/h (2 Bft) 98,00 %
08.09.2017 13:24 19,3 C 18,9 C 66 % 1011,2 hPa 0,0 l/m 4,5 km/h (1 Bft) N-NO 29 2 min 0,000 mm 4,2 UV-I 714 W/m 12,8 C 19,3 C 6,4 km/h (2 Bft) 93,62 %
08.09.2017 13:26 19,2 C 18,9 C 63 % 1011,2 hPa 0,0 l/m 1,9 km/h (1 Bft) O 92 2 min 0,000 mm 4,1 UV-I 711 W/m 12,0 C 19,2 C 6,4 km/h (2 Bft) 96,00 %
08.09.2017 13:28 19,2 C 18,9 C 63 % 1011,1 hPa 0,0 l/m 6,2 km/h (2 Bft) O 86 2 min 0,000 mm 4,1 UV-I 711 W/m 12,0 C 19,2 C 11,3 km/h (2 Bft) 95,74 %
08.09.2017 13:30 19,1 C 18,9 C 61 % 1011,1 hPa 0,0 l/m 4,7 km/h (1 Bft) O-SO 119 2 min 0,000 mm 4,1 UV-I 671 W/m 11,4 C 19,1 C 9,7 km/h (2 Bft) 93,62 %
08.09.2017 13:32 19,1 C 18,9 C 64 % 1011,1 hPa 0,0 l/m 2,2 km/h (1 Bft) O 80 2 min 0,000 mm 4,1 UV-I 711 W/m 12,1 C 19,1 C 4,8 km/h (1 Bft) 93,62 %
08.09.2017 13:34 19,3 C 18,9 C 64 % 1011,2 hPa 0,0 l/m 4,0 km/h (1 Bft) O 80 2 min 0,000 mm 4,0 UV-I 709 W/m 12,3 C 19,3 C 6,4 km/h (2 Bft) 95,74 %
08.09.2017 13:36 19,6 C 18,9 C 66 % 1011,1 hPa 0,0 l/m 6,0 km/h (2 Bft) NO 40 2 min 0,000 mm 4,0 UV-I 708 W/m 13,1 C 19,6 C 9,7 km/h (2 Bft) 95,74 %
08.09.2017 13:38 19,7 C 18,9 C 58 % 1011,1 hPa 0,0 l/m 4,4 km/h (1 Bft) NO 37 2 min 0,000 mm 4,1 UV-I 708 W/m 11,2 C 19,7 C 8,0 km/h (2 Bft) 95,74 %
08.09.2017 13:40 19,7 C 18,9 C 57 % 1011,1 hPa 0,0 l/m 2,4 km/h (1 Bft) O-NO 67 2 min 0,000 mm 4,1 UV-I 704 W/m 10,9 C 19,7 C 6,4 km/h (2 Bft) 94,44 %
08.09.2017 13:42 19,6 C 18,9 C 62 % 1011,0 hPa 0,0 l/m 3,3 km/h (1 Bft) O-NO 59 2 min 0,000 mm 4,1 UV-I 704 W/m 12,1 C 19,6 C 4,8 km/h (1 Bft) 94,34 %
08.09.2017 13:44 19,7 C 18,9 C 58 % 1011,0 hPa 0,0 l/m 3,0 km/h (1 Bft) N-NO 30 2 min 0,000 mm 4,1 UV-I 704 W/m 11,2 C 19,7 C 4,8 km/h (1 Bft) 95,74 %
08.09.2017 13:46 19,6 C 18,9 C 65 % 1011,0 hPa 0,0 l/m 4,2 km/h (1 Bft) O-NO 74 2 min 0,000 mm 4,1 UV-I 702 W/m 12,8 C 19,6 C 8,0 km/h (2 Bft) 93,62 %
08.09.2017 13:48 19,6 C 18,9 C 59 % 1011,0 hPa 0,0 l/m 4,5 km/h (1 Bft) O-NO 74 2 min 0,000 mm 4,0 UV-I 701 W/m 11,4 C 19,6 C 6,4 km/h (2 Bft) 93,62 %
08.09.2017 13:50 19,7 C 18,9 C 58 % 1011,0 hPa 0,0 l/m 7,4 km/h (2 Bft) O-NO 71 2 min 0,000 mm 4,0 UV-I 700 W/m 11,2 C 19,3 C 12,9 km/h (3 Bft) 94,00 %
08.09.2017 13:52 19,8 C 18,9 C 59 % 1010,9 hPa 0,0 l/m 3,5 km/h (1 Bft) O-NO 78 2 min 0,000 mm 4,0 UV-I 699 W/m 11,6 C 19,8 C 8,0 km/h (2 Bft) 94,74 %
08.09.2017 13:54 19,7 C 18,9 C 57 % 1010,9 hPa 0,0 l/m 5,0 km/h (1 Bft) NO 42 2 min 0,000 mm 4,0 UV-I 697 W/m 10,9 C 19,7 C 9,7 km/h (2 Bft) 96,00 %
08.09.2017 13:56 19,8 C 18,9 C 62 % 1010,9 hPa 0,0 l/m 4,3 km/h (1 Bft) SO 136 2 min 0,000 mm 4,0 UV-I 694 W/m 12,3 C 19,8 C 6,4 km/h (2 Bft) 93,62 %
08.09.2017 13:58 19,8 C 18,9 C 59 % 1010,9 hPa 0,0 l/m 7,4 km/h (2 Bft) O-NO 70 2 min 0,000 mm 3,9 UV-I 693 W/m 11,6 C 19,4 C 9,7 km/h (2 Bft) 96,23 %
08.09.2017 14:00 19,9 C 18,9 C 62 % 1010,9 hPa 0,0 l/m 4,0 km/h (1 Bft) NO 45 2 min 0,432 mm 3,9 UV-I 692 W/m 12,4 C 19,9 C 6,4 km/h (2 Bft) 100,00 %
08.09.2017 14:02 19,9 C 18,9 C 63 % 1010,9 hPa 0,0 l/m 1,3 km/h (1 Bft) NO 45 2 min 0,000 mm 3,9 UV-I 690 W/m 12,6 C 19,9 C 4,8 km/h (1 Bft) 100,00 %
08.09.2017 14:04 19,9 C 18,9 C 65 % 1010,8 hPa 0,0 l/m 2,5 km/h (1 Bft) NW 323 2 min 0,000 mm 3,9 UV-I 688 W/m 13,1 C 19,9 C 4,8 km/h (1 Bft) 100,00 %
08.09.2017 14:06 19,8 C 18,9 C 60 % 1010,7 hPa 0,0 l/m 1,0 km/h (0 Bft) N-NW 333 2 min 0,000 mm 3,9 UV-I 687 W/m 11,8 C 19,8 C 3,2 km/h (1 Bft) 100,00 %
08.09.2017 14:08 19,7 C 18,9 C 59 % 1010,7 hPa 0,0 l/m 0,4 km/h (0 Bft) N-NW 333 2 min 0,000 mm 3,8 UV-I 688 W/m 11,5 C 19,7 C 3,2 km/h (1 Bft) 100,00 %
08.09.2017 14:10 19,5 C 18,9 C 57 % 1010,7 hPa 0,0 l/m 0,5 km/h (0 Bft) N-NW 328 2 min 0,000 mm 3,8 UV-I 681 W/m 10,8 C 19,5 C 1,6 km/h (1 Bft) 100,00 %
08.09.2017 14:12 19,6 C 18,9 C 62 % 1010,7 hPa 0,0 l/m 2,4 km/h (1 Bft) N 355 2 min 0,000 mm 3,8 UV-I 679 W/m 12,1 C 19,6 C 4,8 km/h (1 Bft) 100,00 %
08.09.2017 14:14 19,8 C 18,9 C 59 % 1010,6 hPa 0,0 l/m 1,2 km/h (1 Bft) N 355 2 min 0,000 mm 3,8 UV-I 677 W/m 11,6 C 19,8 C 4,8 km/h (1 Bft) 100,00 %
08.09.2017 14:16 20,0 C 18,9 C 60 % 1010,6 hPa 0,0 l/m 6,5 km/h (2 Bft) O-NO 59 2 min 0,000 mm 3,8 UV-I 674 W/m 12,0 C 20,0 C 12,9 km/h (3 Bft) 97,87 %
08.09.2017 14:18 20,0 C 18,9 C 57 % 1010,6 hPa 0,0 l/m 4,6 km/h (1 Bft) O-NO 71 2 min 0,000 mm 3,7 UV-I 672 W/m 11,2 C 20,0 C 8,0 km/h (2 Bft) 100,00 %
08.09.2017 14:20 20,0 C 18,9 C 57 % 1010,5 hPa 0,0 l/m 4,7 km/h (1 Bft) O-NO 67 2 min 0,000 mm 3,7 UV-I 670 W/m 11,2 C 20,0 C 8,0 km/h (2 Bft) 100,00 %
08.09.2017 14:22 19,9 C 18,9 C 56 % 1010,5 hPa 0,0 l/m 3,1 km/h (1 Bft) O-NO 68 2 min 0,000 mm 3,7 UV-I 666 W/m 10,9 C 19,9 C 6,4 km/h (2 Bft) 100,00 %
08.09.2017 14:24 19,9 C 18,9 C 59 % 1010,4 hPa 0,0 l/m 1,9 km/h (1 Bft) NO 40 2 min 0,000 mm 3,6 UV-I 662 W/m 11,6 C 19,9 C 4,8 km/h (1 Bft) 100,00 %
08.09.2017 14:26 19,8 C 18,9 C 64 % 1010,4 hPa 0,0 l/m 2,9 km/h (1 Bft) N-NW 340 2 min 0,000 mm 3,6 UV-I 657 W/m 12,8 C 19,8 C 6,4 km/h (2 Bft) 97,87 %
08.09.2017 14:28 19,8 C 18,9 C 61 % 1010,4 hPa 0,0 l/m 2,0 km/h (1 Bft) N-NO 15 2 min 0,000 mm 3,5 UV-I 651 W/m 12,1 C 19,8 C 6,4 km/h (2 Bft) 100,00 %
08.09.2017 14:30 19,9 C 18,9 C 60 % 1010,4 hPa 0,0 l/m 1,5 km/h (1 Bft) N 355 2 min 0,000 mm 3,5 UV-I 652 W/m 11,9 C 19,9 C 3,2 km/h (1 Bft) 97,87 %
08.09.2017 14:32 20,0 C 18,9 C 63 % 1010,3 hPa 0,0 l/m 2,3 km/h (1 Bft) NW 323 2 min 0,000 mm 3,5 UV-I 655 W/m 12,7 C 20,0 C 6,4 km/h (2 Bft) 97,87 %
08.09.2017 14:34 20,0 C 18,9 C 61 % 1010,3 hPa 0,0 l/m 2,3 km/h (1 Bft) NW 325 2 min 0,000 mm 3,5 UV-I 651 W/m 12,2 C 20,0 C 4,8 km/h (1 Bft) 100,00 %
08.09.2017 14:36 20,0 C 18,9 C 60 % 1010,2 hPa 0,0 l/m 1,4 km/h (1 Bft) N-NO 19 2 min 0,000 mm 3,5 UV-I 649 W/m 12,0 C 20,0 C 3,2 km/h (1 Bft) 100,00 %
08.09.2017 14:38 20,1 C 18,9 C 64 % 1010,2 hPa 0,0 l/m 8,4 km/h (2 Bft) NO 41 2 min 0,000 mm 3,4 UV-I 647 W/m 13,1 C 19,3 C 12,9 km/h (3 Bft) 100,00 %
08.09.2017 14:40 20,1 C 18,9 C 58 % 1010,1 hPa 0,0 l/m 3,6 km/h (1 Bft) N-NO 26 2 min 0,000 mm 3,4 UV-I 638 W/m 11,6 C 20,1 C 8,0 km/h (2 Bft) 100,00 %
08.09.2017 14:42 20,1 C 18,9 C 59 % 1010,1 hPa 0,0 l/m 3,8 km/h (1 Bft) N-NO 23 2 min 0,000 mm 3,4 UV-I 639 W/m 11,8 C 20,1 C 8,0 km/h (2 Bft) 100,00 %
08.09.2017 14:44 20,1 C 18,9 C 61 % 1010,1 hPa 0,0 l/m 4,8 km/h (1 Bft) N-NO 24 2 min 0,000 mm 3,3 UV-I 634 W/m 12,3 C 20,1 C 9,7 km/h (2 Bft) 100,00 %
08.09.2017 14:46 19,9 C 18,9 C 58 % 1010,1 hPa 0,0 l/m 2,1 km/h (1 Bft) N-NO 17 2 min 0,000 mm 3,3 UV-I 629 W/m 11,4 C 19,9 C 4,8 km/h (1 Bft) 97,87 %
08.09.2017 14:48 19,9 C 18,9 C 61 % 1010,1 hPa 0,0 l/m 3,9 km/h (1 Bft) N-NO 32 2 min 0,000 mm 3,3 UV-I 627 W/m 12,2 C 19,9 C 8,0 km/h (2 Bft) 98,00 %
08.09.2017 14:50 20,0 C 18,9 C 60 % 1010,0 hPa 0,0 l/m 6,4 km/h (2 Bft) NO 42 2 min 0,000 mm 3,2 UV-I 622 W/m 12,0 C 20,0 C 9,7 km/h (2 Bft) 100,00 %
08.09.2017 14:52 20,2 C 18,9 C 59 % 1010,0 hPa 0,0 l/m 3,4 km/h (1 Bft) N-NO 24 2 min 0,000 mm 3,2 UV-I 621 W/m 11,9 C 20,2 C 11,3 km/h (2 Bft) 97,87 %
08.09.2017 14:54 20,3 C 18,9 C 63 % 1010,0 hPa 0,0 l/m 4,5 km/h (1 Bft) N-NO 20 2 min 0,000 mm 3,2 UV-I 621 W/m 13,0 C 20,3 C 11,3 km/h (2 Bft) 97,56 %
08.09.2017 14:56 20,4 C 19,4 C 61 % 1009,9 hPa 0,0 l/m 5,9 km/h (2 Bft) NO 53 2 min 0,000 mm 3,1 UV-I 615 W/m 12,6 C 20,4 C 8,0 km/h (2 Bft) 98,00 %
08.09.2017 14:58 20,4 C 19,4 C 53 % 1009,9 hPa 0,0 l/m 5,3 km/h (1 Bft) O-SO 115 2 min 0,000 mm 3,1 UV-I 610 W/m 10,5 C 20,4 C 9,7 km/h (2 Bft) 97,87 %
08.09.2017 15:00 20,3 C 19,4 C 54 % 1009,9 hPa 0,0 l/m 3,9 km/h (1 Bft) N-NO 32 2 min 0,406 mm 3,0 UV-I 604 W/m 10,7 C 20,3 C 6,4 km/h (2 Bft) 100,00 %
08.09.2017 15:02 20,2 C 19,4 C 56 % 1009,9 hPa 0,0 l/m 3,7 km/h (1 Bft) N-NO 32 2 min 0,000 mm 3,0 UV-I 602 W/m 11,1 C 20,2 C 6,4 km/h (2 Bft) 100,00 %
08.09.2017 15:04 20,2 C 19,4 C 54 % 1009,8 hPa 0,0 l/m 2,9 km/h (1 Bft) NO 40 2 min 0,000 mm 3,0 UV-I 598 W/m 10,6 C 20,2 C 6,4 km/h (2 Bft) 100,00 %
08.09.2017 15:06 20,4 C 19,4 C 58 % 1009,8 hPa 0,0 l/m 1,3 km/h (1 Bft) NO 45 2 min 0,000 mm 2,9 UV-I 592 W/m 11,9 C 20,4 C 4,8 km/h (1 Bft) 100,00 %
08.09.2017 15:08 20,3 C 19,4 C 59 % 1009,7 hPa 0,0 l/m 1,9 km/h (1 Bft) N-NO 19 2 min 0,000 mm 2,9 UV-I 591 W/m 12,0 C 20,3 C 4,8 km/h (1 Bft) 95,74 %
08.09.2017 15:10 20,3 C 19,4 C 57 % 1009,7 hPa 0,0 l/m 1,5 km/h (1 Bft) NW 315 2 min 0,000 mm 2,9 UV-I 588 W/m 11,5 C 20,3 C 4,8 km/h (1 Bft) 100,00 %
08.09.2017 15:12 20,2 C 19,4 C 57 % 1009,7 hPa 0,0 l/m 1,8 km/h (1 Bft) NW 312 2 min 0,000 mm 2,8 UV-I 581 W/m 11,4 C 20,2 C 4,8 km/h (1 Bft) 100,00 %
08.09.2017 15:14 20,2 C 19,4 C 55 % 1009,6 hPa 0,0 l/m 2,7 km/h (1 Bft) NW 309 2 min 0,000 mm 2,8 UV-I 578 W/m 10,9 C 20,2 C 4,8 km/h (1 Bft) 100,00 %
08.09.2017 15:16 20,2 C 19,4 C 58 % 1009,5 hPa 0,0 l/m 1,5 km/h (1 Bft) NW 313 2 min 0,000 mm 2,8 UV-I 577 W/m 11,7 C 20,2 C 3,2 km/h (1 Bft) 97,87 %
08.09.2017 15:18 20,3 C 19,4 C 59 % 1009,5 hPa 0,0 l/m 2,5 km/h (1 Bft) W-NW 296 2 min 0,000 mm 2,7 UV-I 571 W/m 12,0 C 20,3 C 6,4 km/h (2 Bft) 100,00 %
08.09.2017 15:20 20,2 C 19,4 C 59 % 1009,5 hPa 0,0 l/m 1,5 km/h (1 Bft) NW 320 2 min 0,000 mm 2,7 UV-I 568 W/m 11,9 C 20,2 C 4,8 km/h (1 Bft) 100,00 %
08.09.2017 15:22 20,2 C 19,4 C 58 % 1009,5 hPa 0,0 l/m 1,8 km/h (1 Bft) N-NO 20 2 min 0,000 mm 2,6 UV-I 562 W/m 11,7 C 20,2 C 6,4 km/h (2 Bft) 97,56 %
08.09.2017 15:24 20,3 C 19,4 C 58 % 1009,5 hPa 0,0 l/m 3,2 km/h (1 Bft) N-NO 20 2 min 0,000 mm 2,6 UV-I 558 W/m 11,8 C 20,3 C 6,4 km/h (2 Bft) 97,87 %
08.09.2017 15:26 20,3 C 19,4 C 60 % 1009,5 hPa 0,0 l/m 0,8 km/h (0 Bft) N-NO 20 2 min 0,000 mm 2,6 UV-I 554 W/m 12,3 C 20,3 C 3,2 km/h (1 Bft) 95,74 %
08.09.2017 15:28 20,3 C 19,4 C 56 % 1009,4 hPa 0,0 l/m 4,7 km/h (1 Bft) N-NO 28 2 min 0,000 mm 2,5 UV-I 551 W/m 11,2 C 20,3 C 8,0 km/h (2 Bft) 97,87 %
08.09.2017 15:30 20,4 C 19,4 C 60 % 1009,4 hPa 0,0 l/m 4,9 km/h (1 Bft) N-NO 26 2 min 0,000 mm 2,5 UV-I 546 W/m 12,4 C 20,4 C 6,4 km/h (2 Bft) 95,74 %
08.09.2017 15:32 20,4 C 19,4 C 54 % 1009,4 hPa 0,0 l/m 2,0 km/h (1 Bft) N-NW 336 2 min 0,000 mm 2,4 UV-I 542 W/m 10,8 C 20,4 C 4,8 km/h (1 Bft) 97,87 %
08.09.2017 15:34 20,4 C 19,4 C 56 % 1009,3 hPa 0,0 l/m 0,6 km/h (0 Bft) N-NW 331 2 min 0,000 mm 2,4 UV-I 535 W/m 11,3 C 20,4 C 3,2 km/h (1 Bft) 97,87 %
08.09.2017 15:36 20,5 C 19,4 C 57 % 1009,3 hPa 0,0 l/m 1,6 km/h (1 Bft) N-NW 335 2 min 0,000 mm 2,4 UV-I 532 W/m 11,7 C 20,5 C 3,2 km/h (1 Bft) 96,00 %
08.09.2017 15:38 20,6 C 19,4 C 55 % 1009,3 hPa 0,0 l/m 2,2 km/h (1 Bft) W 275 2 min 0,000 mm 2,3 UV-I 527 W/m 11,2 C 20,6 C 4,8 km/h (1 Bft) 93,62 %
08.09.2017 15:40 20,6 C 19,4 C 59 % 1009,3 hPa 0,0 l/m 0,7 km/h (0 Bft) W-NW 293 2 min 0,000 mm 2,3 UV-I 522 W/m 12,3 C 20,6 C 3,2 km/h (1 Bft) 95,74 %
08.09.2017 15:42 20,7 C 19,4 C 61 % 1009,3 hPa 0,0 l/m 8,0 km/h (2 Bft) NO 36 2 min 0,000 mm 2,3 UV-I 519 W/m 12,9 C 20,1 C 12,9 km/h (3 Bft) 95,83 %
08.09.2017 15:44 20,6 C 19,4 C 58 % 1009,3 hPa 0,0 l/m 4,3 km/h (1 Bft) O-NO 67 2 min 0,000 mm 2,2 UV-I 515 W/m 12,0 C 20,6 C 8,0 km/h (2 Bft) 97,87 %
08.09.2017 15:46 20,4 C 19,4 C 58 % 1009,2 hPa 0,0 l/m 0,6 km/h (0 Bft) N-NO 19 2 min 0,000 mm 2,2 UV-I 511 W/m 11,9 C 20,4 C 4,8 km/h (1 Bft) 94,59 %
08.09.2017 15:48 20,4 C 19,4 C 60 % 1009,2 hPa 0,0 l/m 4,0 km/h (1 Bft) N-NO 22 2 min 0,000 mm 2,2 UV-I 504 W/m 12,4 C 20,4 C 8,0 km/h (2 Bft) 97,87 %
08.09.2017 15:50 20,3 C 19,4 C 55 % 1009,2 hPa 0,0 l/m 0,4 km/h (0 Bft) N-NO 20 2 min 0,000 mm 2,1 UV-I 500 W/m 11,0 C 20,3 C 1,6 km/h (1 Bft) 97,87 %
08.09.2017 15:52 20,2 C 19,4 C 56 % 1009,2 hPa 0,0 l/m 1,7 km/h (1 Bft) N-NO 20 2 min 0,000 mm 2,1 UV-I 498 W/m 11,1 C 20,2 C 3,2 km/h (1 Bft) 100,00 %
08.09.2017 15:54 20,4 C 19,4 C 57 % 1009,1 hPa 0,0 l/m 2,1 km/h (1 Bft) N-NW 338 2 min 0,000 mm 2,1 UV-I 492 W/m 11,6 C 20,4 C 4,8 km/h (1 Bft) 97,87 %
08.09.2017 15:56 20,3 C 19,4 C 57 % 1009,1 hPa 0,0 l/m 2,0 km/h (1 Bft) N 11 2 min 0,000 mm 2,0 UV-I 487 W/m 11,5 C 20,3 C 4,8 km/h (1 Bft) 100,00 %
08.09.2017 15:58 20,3 C 19,4 C 59 % 1009,1 hPa 0,0 l/m 2,2 km/h (1 Bft) N-NO 22 2 min 0,000 mm 2,0 UV-I 481 W/m 12,0 C 20,3 C 4,8 km/h (1 Bft) 100,00 %
08.09.2017 16:00 20,3 C 19,4 C 59 % 1009,0 hPa 0,0 l/m 3,2 km/h (1 Bft) N-NO 31 2 min 0,331 mm 1,9 UV-I 475 W/m 12,0 C 20,3 C 6,4 km/h (2 Bft) 100,00 %
08.09.2017 16:02 20,5 C 19,4 C 58 % 1009,0 hPa 0,0 l/m 3,4 km/h (1 Bft) N-NO 31 2 min 0,000 mm 1,9 UV-I 471 W/m 11,9 C 20,5 C 4,8 km/h (1 Bft) 98,00 %
08.09.2017 16:04 20,5 C 19,4 C 58 % 1008,9 hPa 0,0 l/m 2,4 km/h (1 Bft) N-NO 22 2 min 0,000 mm 1,9 UV-I 468 W/m 11,9 C 20,5 C 6,4 km/h (2 Bft) 97,96 %
08.09.2017 16:06 20,5 C 19,4 C 55 % 1008,9 hPa 0,0 l/m 5,9 km/h (2 Bft) N-NO 15 2 min 0,000 mm 1,6 UV-I 464 W/m 11,1 C 20,5 C 9,7 km/h (2 Bft) 97,87 %
08.09.2017 16:08 20,5 C 19,4 C 58 % 1008,9 hPa 0,0 l/m 5,6 km/h (1 Bft) N-NO 24 2 min 0,000 mm 1,4 UV-I 462 W/m 11,9 C 20,5 C 11,3 km/h (2 Bft) 93,62 %
08.09.2017 16:10 20,4 C 19,4 C 52 % 1008,9 hPa 0,0 l/m 1,2 km/h (1 Bft) N-NO 24 2 min 0,000 mm 1,4 UV-I 458 W/m 10,2 C 20,4 C 3,2 km/h (1 Bft) 97,87 %
08.09.2017 16:12 20,4 C 19,4 C 54 % 1008,9 hPa 0,0 l/m 0,9 km/h (0 Bft) N-NO 18 2 min 0,000 mm 1,7 UV-I 452 W/m 10,8 C 20,4 C 3,2 km/h (1 Bft) 100,00 %
08.09.2017 16:14 20,4 C 19,4 C 56 % 1008,8 hPa 0,0 l/m 0,6 km/h (0 Bft) N-NO 12 2 min 0,000 mm 1,6 UV-I 447 W/m 11,3 C 20,4 C 3,2 km/h (1 Bft) 100,00 %
08.09.2017 16:16 20,4 C 19,4 C 54 % 1008,8 hPa 0,0 l/m 1,3 km/h (1 Bft) N 351 2 min 0,000 mm 1,7 UV-I 444 W/m 10,8 C 20,4 C 4,8 km/h (1 Bft) 95,74 %
08.09.2017 16:18 20,4 C 19,4 C 54 % 1008,8 hPa 0,0 l/m 0,7 km/h (0 Bft) N 351 2 min 0,000 mm 1,4 UV-I 440 W/m 10,8 C 20,4 C 3,2 km/h (1 Bft) 95,74 %
08.09.2017 16:20 20,4 C 19,4 C 55 % 1008,8 hPa 0,0 l/m 1,0 km/h (0 Bft) N 355 2 min 0,000 mm 1,3 UV-I 433 W/m 11,1 C 20,4 C 1,6 km/h (1 Bft) 97,87 %
08.09.2017 16:22 20,5 C 19,4 C 58 % 1008,8 hPa 0,0 l/m 2,2 km/h (1 Bft) N 5 2 min 0,000 mm 1,3 UV-I 427 W/m 11,9 C 20,5 C 6,4 km/h (2 Bft) 100,00 %
08.09.2017 16:24 20,5 C 19,4 C 54 % 1008,8 hPa 0,0 l/m 1,6 km/h (1 Bft) N 11 2 min 0,000 mm 1,2 UV-I 422 W/m 10,9 C 20,5 C 4,8 km/h (1 Bft) 100,00 %
08.09.2017 16:26 20,6 C 19,4 C 57 % 1008,8 hPa 0,0 l/m 3,8 km/h (1 Bft) NO 43 2 min 0,000 mm 1,2 UV-I 417 W/m 11,8 C 20,6 C 6,4 km/h (2 Bft) 100,00 %
08.09.2017 16:28 20,6 C 19,4 C 57 % 1008,8 hPa 0,0 l/m 0,8 km/h (0 Bft) N 5 2 min 0,000 mm 1,5 UV-I 410 W/m 11,8 C 20,6 C 3,2 km/h (1 Bft) 94,74 %
08.09.2017 16:30 20,4 C 19,4 C 52 % 1008,8 hPa 0,0 l/m 0,3 km/h (0 Bft) N 5 2 min 0,000 mm 1,4 UV-I 407 W/m 10,2 C 20,4 C 1,6 km/h (1 Bft) 97,87 %
08.09.2017 16:32 20,3 C 19,4 C 52 % 1008,8 hPa 0,0 l/m 0,4 km/h (0 Bft) N 5 2 min 0,000 mm 1,4 UV-I 403 W/m 10,1 C 20,3 C 3,2 km/h (1 Bft) 100,00 %
08.09.2017 16:34 20,4 C 19,4 C 56 % 1008,8 hPa 0,0 l/m 1,2 km/h (1 Bft) N-NW 343 2 min 0,000 mm 1,4 UV-I 398 W/m 11,3 C 20,4 C 3,2 km/h (1 Bft) 100,00 %
08.09.2017 16:36 20,6 C 19,4 C 52 % 1008,7 hPa 0,0 l/m 1,5 km/h (1 Bft) N-NO 18 2 min 0,000 mm 1,1 UV-I 383 W/m 10,4 C 20,6 C 3,2 km/h (1 Bft) 100,00 %
08.09.2017 16:38 20,4 C 19,4 C 54 % 1008,7 hPa 0,0 l/m 2,2 km/h (1 Bft) NW 320 2 min 0,000 mm 1,3 UV-I 303 W/m 10,8 C 20,4 C 4,8 km/h (1 Bft) 100,00 %
08.09.2017 16:40 20,4 C 19,4 C 54 % 1008,7 hPa 0,0 l/m 0,9 km/h (0 Bft) N 355 2 min 0,000 mm 1,3 UV-I 330 W/m 10,8 C 20,4 C 1,6 km/h (1 Bft) 100,00 %
08.09.2017 16:42 20,4 C 19,4 C 55 % 1008,7 hPa 0,0 l/m 2,7 km/h (1 Bft) N 350 2 min 0,000 mm 1,3 UV-I 376 W/m 11,1 C 20,4 C 4,8 km/h (1 Bft) 100,00 %
08.09.2017 16:44 20,3 C 19,4 C 56 % 1008,7 hPa 0,0 l/m 2,1 km/h (1 Bft) N-NW 338 2 min 0,000 mm 1,2 UV-I 370 W/m 11,2 C 20,3 C 6,4 km/h (2 Bft) 100,00 %
08.09.2017 16:46 20,3 C 19,4 C 56 % 1008,7 hPa 0,0 l/m 0,6 km/h (0 Bft) N-NW 335 2 min 0,000 mm 1,2 UV-I 366 W/m 11,2 C 20,3 C 1,6 km/h (1 Bft) 100,00 %
08.09.2017 16:48 20,3 C 19,4 C 57 % 1008,6 hPa 0,0 l/m 0,8 km/h (0 Bft) N-NW 327 2 min 0,000 mm 1,2 UV-I 360 W/m 11,5 C 20,3 C 1,6 km/h (1 Bft) 100,00 %
08.09.2017 16:50 20,2 C 19,4 C 57 % 1008,6 hPa 0,0 l/m 1,0 km/h (0 Bft) W-NW 288 2 min 0,000 mm 1,1 UV-I 354 W/m 11,4 C 20,2 C 3,2 km/h (1 Bft) 95,74 %
08.09.2017 16:52 20,2 C 19,4 C 57 % 1008,6 hPa 0,0 l/m 0,7 km/h (0 Bft) N-NW 342 2 min 0,000 mm 1,1 UV-I 349 W/m 11,4 C 20,2 C 3,2 km/h (1 Bft) 100,00 %
08.09.2017 16:54 20,2 C 19,4 C 60 % 1008,6 hPa 0,0 l/m 0,2 km/h (0 Bft) N-NW 342 2 min 0,000 mm 1,1 UV-I 344 W/m 12,2 C 20,2 C 1,6 km/h (1 Bft) 100,00 %
08.09.2017 16:56 20,3 C 19,4 C 56 % 1008,5 hPa 0,0 l/m 1,1 km/h (1 Bft) N-NW 342 2 min 0,000 mm 1,1 UV-I 337 W/m 11,2 C 20,3 C 3,2 km/h (1 Bft) 97,92 %
08.09.2017 16:58 20,4 C 19,4 C 59 % 1008,5 hPa 0,0 l/m 0,7 km/h (0 Bft) N-NW 342 2 min 0,000 mm 1,0 UV-I 332 W/m 12,1 C 20,4 C 3,2 km/h (1 Bft) 100,00 %
08.09.2017 17:00 20,4 C 19,4 C 57 % 1008,4 hPa 0,0 l/m 1,1 km/h (1 Bft) N-NW 339 2 min 0,254 mm 1,0 UV-I 327 W/m 11,6 C 20,4 C 3,2 km/h (1 Bft) 100,00 %
08.09.2017 17:02 20,4 C 19,4 C 54 % 1008,4 hPa 0,0 l/m 1,0 km/h (0 Bft) N-NW 336 2 min 0,000 mm 1,0 UV-I 322 W/m 10,8 C 20,4 C 3,2 km/h (1 Bft) 100,00 %
08.09.2017 17:04 20,4 C 19,4 C 55 % 1008,4 hPa 0,0 l/m 1,4 km/h (1 Bft) N-NW 327 2 min 0,000 mm 0,9 UV-I 318 W/m 11,1 C 20,4 C 4,8 km/h (1 Bft) 97,87 %
08.09.2017 17:06 20,3 C 19,4 C 56 % 1008,4 hPa 0,0 l/m 1,2 km/h (1 Bft) N 11 2 min 0,000 mm 0,9 UV-I 311 W/m 11,2 C 20,3 C 4,8 km/h (1 Bft) 100,00 %
08.09.2017 17:08 20,2 C 19,4 C 55 % 1008,4 hPa 0,0 l/m 1,8 km/h (1 Bft) N-NW 338 2 min 0,000 mm 0,9 UV-I 306 W/m 10,9 C 20,2 C 6,4 km/h (2 Bft) 100,00 %
08.09.2017 17:10 20,3 C 19,4 C 57 % 1008,4 hPa 0,0 l/m 0,8 km/h (0 Bft) N-NW 336 2 min 0,000 mm 0,9 UV-I 300 W/m 11,5 C 20,3 C 3,2 km/h (1 Bft) 95,92 %
08.09.2017 17:12 20,3 C 19,4 C 57 % 1008,4 hPa 0,0 l/m 1,3 km/h (1 Bft) N-NW 348 2 min 0,000 mm 0,8 UV-I 294 W/m 11,5 C 20,3 C 3,2 km/h (1 Bft) 97,87 %
08.09.2017 17:14 20,3 C 19,4 C 56 % 1008,4 hPa 0,0 l/m 0,6 km/h (0 Bft) N-NW 347 2 min 0,000 mm 0,8 UV-I 289 W/m 11,2 C 20,3 C 1,6 km/h (1 Bft) 97,87 %
08.09.2017 17:16 20,4 C 19,4 C 52 % 1008,4 hPa 0,0 l/m 0,0 km/h (0 Bft) N-NW 347 2 min 0,000 mm 0,8 UV-I 283 W/m 10,2 C 20,4 C 1,6 km/h (1 Bft) 97,87 %
08.09.2017 17:18 20,5 C 19,4 C 54 % 1008,3 hPa 0,0 l/m 0,6 km/h (0 Bft) N-NW 347 2 min 0,000 mm 0,8 UV-I 276 W/m 10,9 C 20,5 C 1,6 km/h (1 Bft) 95,74 %
08.09.2017 17:20 20,4 C 19,4 C 58 % 1008,3 hPa 0,0 l/m 2,2 km/h (1 Bft) N 5 2 min 0,000 mm 0,7 UV-I 270 W/m 11,9 C 20,4 C 4,8 km/h (1 Bft) 95,92 %
08.09.2017 17:22 20,3 C 19,4 C 56 % 1008,3 hPa 0,0 l/m 0,8 km/h (0 Bft) N 5 2 min 0,000 mm 0,7 UV-I 265 W/m 11,2 C 20,3 C 4,8 km/h (1 Bft) 97,87 %
08.09.2017 17:24 20,2 C 19,4 C 54 % 1008,3 hPa 0,0 l/m 0,1 km/h (0 Bft) N 5 2 min 0,000 mm 0,7 UV-I 260 W/m 10,6 C 20,2 C 1,6 km/h (1 Bft) 97,87 %
08.09.2017 17:26 20,2 C 19,4 C 57 % 1008,3 hPa 0,0 l/m 0,2 km/h (0 Bft) N 5 2 min 0,000 mm 0,7 UV-I 253 W/m 11,4 C 20,2 C 1,6 km/h (1 Bft) 91,49 %
08.09.2017 17:28 20,2 C 19,4 C 59 % 1008,2 hPa 0,0 l/m 0,5 km/h (0 Bft) N 11 2 min 0,000 mm 0,6 UV-I 249 W/m 11,9 C 20,2 C 3,2 km/h (1 Bft) 97,87 %
08.09.2017 17:30 20,2 C 19,4 C 58 % 1008,2 hPa 0,0 l/m 0,0 km/h (0 Bft) N 11 2 min 0,000 mm 0,6 UV-I 244 W/m 11,7 C 20,2 C 0,0 km/h (0 Bft) 97,87 %
08.09.2017 17:32 20,1 C 19,4 C 58 % 1008,2 hPa 0,0 l/m 0,2 km/h (0 Bft) N-NO 23 2 min 0,000 mm 0,6 UV-I 238 W/m 11,6 C 20,1 C 1,6 km/h (1 Bft) 95,74 %
08.09.2017 17:34 19,9 C 19,4 C 59 % 1008,1 hPa 0,0 l/m 0,4 km/h (0 Bft) N-NO 20 2 min 0,000 mm 0,6 UV-I 232 W/m 11,6 C 19,9 C 1,6 km/h (1 Bft) 94,87 %
08.09.2017 17:36 19,9 C 19,4 C 59 % 1008,2 hPa 0,0 l/m 1,5 km/h (1 Bft) N-NO 20 2 min 0,000 mm 0,6 UV-I 227 W/m 11,6 C 19,9 C 4,8 km/h (1 Bft) 97,87 %
08.09.2017 17:38 20,0 C 19,4 C 59 % 1008,1 hPa 0,0 l/m 2,9 km/h (1 Bft) NO 34 2 min 0,000 mm 0,5 UV-I 220 W/m 11,7 C 20,0 C 9,7 km/h (2 Bft) 95,74 %
08.09.2017 17:40 20,0 C 19,4 C 60 % 1008,1 hPa 0,0 l/m 6,3 km/h (2 Bft) NO 55 2 min 0,000 mm 0,5 UV-I 214 W/m 12,0 C 20,0 C 9,7 km/h (2 Bft) 93,62 %
08.09.2017 17:42 20,0 C 19,4 C 60 % 1008,1 hPa 0,0 l/m 5,2 km/h (1 Bft) N-NO 29 2 min 0,000 mm 0,5 UV-I 210 W/m 12,0 C 20,0 C 8,0 km/h (2 Bft) 96,00 %
08.09.2017 17:44 19,9 C 19,4 C 60 % 1008,1 hPa 0,0 l/m 2,4 km/h (1 Bft) N-NO 29 2 min 0,000 mm 0,5 UV-I 205 W/m 11,9 C 19,9 C 6,4 km/h (2 Bft) 97,87 %
08.09.2017 17:46 19,8 C 19,4 C 60 % 1008,0 hPa 0,0 l/m 2,1 km/h (1 Bft) N 5 2 min 0,000 mm 0,4 UV-I 200 W/m 11,8 C 19,8 C 4,8 km/h (1 Bft) 97,87 %
08.09.2017 17:48 19,7 C 19,4 C 61 % 1008,0 hPa 0,0 l/m 1,5 km/h (1 Bft) N 11 2 min 0,000 mm 0,0 UV-I 192 W/m 12,0 C 19,7 C 3,2 km/h (1 Bft) 100,00 %
08.09.2017 17:50 19,7 C 19,4 C 60 % 1008,0 hPa 0,0 l/m 4,3 km/h (1 Bft) N-NO 19 2 min 0,000 mm 0,0 UV-I 186 W/m 11,7 C 19,7 C 6,4 km/h (2 Bft) 97,87 %
08.09.2017 17:52 19,7 C 19,4 C 63 % 1008,0 hPa 0,0 l/m 1,2 km/h (1 Bft) N-NO 19 2 min 0,000 mm 0,0 UV-I 164 W/m 12,5 C 19,7 C 4,8 km/h (1 Bft) 100,00 %
08.09.2017 17:54 19,7 C 19,4 C 63 % 1008,0 hPa 0,0 l/m 1,2 km/h (1 Bft) N-NO 19 0 min 0,000 mm 0,0 UV-I 129 W/m 12,5 C 19,7 C 4,8 km/h (1 Bft) 97,87 %
08.09.2017 17:56 19,5 C 19,4 C 62 % 1007,9 hPa 0,0 l/m 3,2 km/h (1 Bft) N-NO 19 0 min 0,000 mm 0,0 UV-I 101 W/m 12,0 C 19,5 C 4,8 km/h (1 Bft) 100,00 %
08.09.2017 17:58 19,4 C 19,4 C 60 % 1007,9 hPa 0,0 l/m 3,7 km/h (1 Bft) N-NO 19 0 min 0,000 mm 0,0 UV-I 120 W/m 11,4 C 19,4 C 4,8 km/h (1 Bft) 100,00 %
08.09.2017 18:00 19,4 C 19,4 C 58 % 1007,9 hPa 0,0 l/m 1,7 km/h (1 Bft) N-NO 19 2 min 0,152 mm 0,0 UV-I 141 W/m 10,9 C 19,4 C 3,2 km/h (1 Bft) 100,00 %
08.09.2017 18:02 19,5 C 19,4 C 60 % 1007,9 hPa 0,0 l/m 1,6 km/h (1 Bft) N-NO 19 2 min 0,000 mm 0,0 UV-I 152 W/m 11,5 C 19,5 C 3,2 km/h (1 Bft) 98,00 %
08.09.2017 18:04 19,5 C 19,4 C 58 % 1007,9 hPa 0,0 l/m 0,1 km/h (0 Bft) N-NO 19 2 min 0,000 mm 0,0 UV-I 146 W/m 11,0 C 19,5 C 1,6 km/h (1 Bft) 97,87 %
08.09.2017 18:06 19,6 C 19,4 C 59 % 1007,8 hPa 0,0 l/m 0,4 km/h (0 Bft) N-NO 19 2 min 0,000 mm 0,0 UV-I 149 W/m 11,4 C 19,6 C 1,6 km/h (1 Bft) 97,87 %
08.09.2017 18:08 19,8 C 19,4 C 58 % 1007,9 hPa 0,0 l/m 0,0 km/h (0 Bft) N-NO 19 2 min 0,000 mm 0,0 UV-I 145 W/m 11,3 C 19,8 C 0,0 km/h (0 Bft) 98,00 %
08.09.2017 18:10 19,8 C 19,4 C 62 % 1007,8 hPa 0,0 l/m 0,5 km/h (0 Bft) N-NO 19 2 min 0,000 mm 0,0 UV-I 144 W/m 12,3 C 19,8 C 3,2 km/h (1 Bft) 100,00 %
08.09.2017 18:12 19,8 C 19,4 C 62 % 1007,8 hPa 0,0 l/m 0,8 km/h (0 Bft) N-NO 19 2 min 0,000 mm 0,0 UV-I 131 W/m 12,3 C 19,8 C 1,6 km/h (1 Bft) 95,74 %
08.09.2017 18:14 19,7 C 19,4 C 63 % 1007,8 hPa 0,0 l/m 1,9 km/h (1 Bft) N-NO 19 2 min 0,000 mm 0,0 UV-I 129 W/m 12,5 C 19,7 C 3,2 km/h (1 Bft) 100,00 %
08.09.2017 18:16 19,7 C 19,4 C 58 % 1007,8 hPa 0,0 l/m 0,8 km/h (0 Bft) N-NO 19 2 min 0,000 mm 0,0 UV-I 132 W/m 11,2 C 19,7 C 1,6 km/h (1 Bft) 95,74 %
08.09.2017 18:18 19,7 C 19,4 C 58 % 1007,8 hPa 0,0 l/m 0,2 km/h (0 Bft) N-NO 19 2 min 0,000 mm 0,0 UV-I 117 W/m 11,2 C 19,7 C 1,6 km/h (1 Bft) 95,74 %
08.09.2017 18:20 19,8 C 19,4 C 64 % 1007,8 hPa 0,0 l/m 0,0 km/h (0 Bft) N-NO 19 2 min 0,000 mm 0,0 UV-I 109 W/m 12,8 C 19,8 C 0,0 km/h (0 Bft) 97,87 %
08.09.2017 18:22 19,6 C 19,4 C 63 % 1007,7 hPa 0,0 l/m 1,3 km/h (1 Bft) N-NO 21 2 min 0,000 mm 0,0 UV-I 104 W/m 12,4 C 19,6 C 4,8 km/h (1 Bft) 97,87 %
08.09.2017 18:24 19,4 C 19,4 C 65 % 1007,7 hPa 0,0 l/m 3,7 km/h (1 Bft) N-NO 22 0 min 0,000 mm 0,0 UV-I 86 W/m 12,6 C 19,4 C 6,4 km/h (2 Bft) 95,74 %
08.09.2017 18:26 19,2 C 19,4 C 65 % 1007,7 hPa 0,0 l/m 3,8 km/h (1 Bft) N-NO 21 0 min 0,000 mm 0,0 UV-I 73 W/m 12,5 C 19,2 C 4,8 km/h (1 Bft) 96,00 %
08.09.2017 18:28 19,1 C 19,4 C 65 % 1007,6 hPa 0,0 l/m 3,4 km/h (1 Bft) N-NO 22 0 min 0,000 mm 0,0 UV-I 88 W/m 12,4 C 19,1 C 4,8 km/h (1 Bft) 97,87 %
08.09.2017 18:30 18,9 C 19,4 C 65 % 1007,7 hPa 0,0 l/m 2,2 km/h (1 Bft) N-NO 22 2 min 0,000 mm 0,0 UV-I 97 W/m 12,2 C 18,9 C 3,2 km/h (1 Bft) 100,00 %
08.09.2017 18:32 18,9 C 19,4 C 66 % 1007,6 hPa 0,0 l/m 1,6 km/h (1 Bft) N-NO 21 2 min 0,000 mm 0,0 UV-I 92 W/m 12,4 C 18,9 C 3,2 km/h (1 Bft) 98,00 %
08.09.2017 18:34 18,9 C 19,4 C 69 % 1007,5 hPa 0,0 l/m 1,4 km/h (1 Bft) N-NO 21 2 min 0,000 mm 0,0 UV-I 88 W/m 13,1 C 18,9 C 3,2 km/h (1 Bft) 95,74 %
08.09.2017 18:36 18,9 C 19,4 C 69 % 1007,6 hPa 0,0 l/m 1,5 km/h (1 Bft) N-NO 21 2 min 0,000 mm 0,0 UV-I 85 W/m 13,1 C 18,9 C 1,6 km/h (1 Bft) 95,74 %
08.09.2017 18:38 18,7 C 19,4 C 71 % 1007,5 hPa 0,0 l/m 1,4 km/h (1 Bft) N-NO 21 2 min 0,000 mm 0,0 UV-I 81 W/m 13,3 C 18,7 C 3,2 km/h (1 Bft) 97,87 %
08.09.2017 18:40 18,6 C 19,4 C 72 % 1007,5 hPa 0,0 l/m 1,9 km/h (1 Bft) N-NO 21 2 min 0,000 mm 0,0 UV-I 76 W/m 13,4 C 18,6 C 3,2 km/h (1 Bft) 97,87 %
08.09.2017 18:42 18,5 C 19,4 C 72 % 1007,5 hPa 0,0 l/m 1,3 km/h (1 Bft) N-NO 21 2 min 0,000 mm 0,0 UV-I 71 W/m 13,4 C 18,5 C 3,2 km/h (1 Bft) 95,74 %
08.09.2017 18:44 18,4 C 19,4 C 73 % 1007,5 hPa 0,0 l/m 1,5 km/h (1 Bft) N-NO 21 2 min 0,000 mm 0,0 UV-I 67 W/m 13,5 C 18,4 C 3,2 km/h (1 Bft) 95,74 %
08.09.2017 18:46 18,3 C 19,4 C 73 % 1007,5 hPa 0,0 l/m 2,0 km/h (1 Bft) N-NO 21 2 min 0,000 mm 0,0 UV-I 63 W/m 13,4 C 18,3 C 3,2 km/h (1 Bft) 97,56 %
08.09.2017 18:48 18,3 C 19,4 C 71 % 1007,5 hPa 0,0 l/m 0,7 km/h (0 Bft) N-NO 21 2 min 0,000 mm 0,0 UV-I 61 W/m 12,9 C 18,3 C 3,2 km/h (1 Bft) 97,44 %
08.09.2017 18:50 18,3 C 19,4 C 70 % 1007,5 hPa 0,0 l/m 0,0 km/h (0 Bft) N-NO 21 0 min 0,000 mm 0,0 UV-I 55 W/m 12,7 C 18,3 C 0,0 km/h (0 Bft) 94,23 %
08.09.2017 18:52 18,4 C 19,4 C 69 % 1007,5 hPa 0,0 l/m 0,0 km/h (0 Bft) N-NO 21 0 min 0,000 mm 0,0 UV-I 49 W/m 12,6 C 18,4 C 0,0 km/h (0 Bft) 97,87 %
08.09.2017 18:54 18,3 C 19,4 C 73 % 1007,4 hPa 0,0 l/m 0,0 km/h (0 Bft) N-NO 22 0 min 0,000 mm 0,0 UV-I 46 W/m 13,4 C 18,3 C 1,6 km/h (1 Bft) 97,87 %
08.09.2017 18:56 18,2 C 19,4 C 75 % 1007,3 hPa 0,0 l/m 1,9 km/h (1 Bft) N-NO 21 0 min 0,000 mm 0,0 UV-I 44 W/m 13,7 C 18,2 C 3,2 km/h (1 Bft) 97,87 %
08.09.2017 18:58 17,9 C 19,4 C 77 % 1007,4 hPa 0,0 l/m 1,5 km/h (1 Bft) N-NO 22 0 min 0,000 mm 0,0 UV-I 39 W/m 13,8 C 17,9 C 3,2 km/h (1 Bft) 97,87 %
08.09.2017 19:00 17,7 C 19,4 C 78 % 1007,4 hPa 0,0 l/m 1,9 km/h (1 Bft) N-NO 21 0 min 0,000 mm 0,0 UV-I 34 W/m 13,8 C 17,7 C 3,2 km/h (1 Bft) 93,62 %
08.09.2017 19:02 17,4 C 19,4 C 79 % 1007,3 hPa 0,0 l/m 1,5 km/h (1 Bft) N-NO 21 0 min 0,051 mm 0,0 UV-I 30 W/m 13,7 C 17,4 C 3,2 km/h (1 Bft) 97,96 %
08.09.2017 19:04 17,4 C 19,4 C 78 % 1007,3 hPa 0,0 l/m 0,4 km/h (0 Bft) N-NO 22 0 min 0,000 mm 0,0 UV-I 27 W/m 13,5 C 17,4 C 1,6 km/h (1 Bft) 97,87 %
08.09.2017 19:06 17,3 C 19,4 C 77 % 1007,3 hPa 0,0 l/m 0,0 km/h (0 Bft) N-NO 21 0 min 0,000 mm 0,0 UV-I 24 W/m 13,2 C 17,3 C 0,0 km/h (0 Bft) 97,87 %
08.09.2017 19:08 17,3 C 19,4 C 79 % 1007,3 hPa 0,0 l/m 0,0 km/h (0 Bft) N-NO 21 0 min 0,000 mm 0,0 UV-I 22 W/m 13,6 C 17,3 C 0,0 km/h (0 Bft) 95,74 %
08.09.2017 19:10 17,2 C 19,4 C 80 % 1007,2 hPa 0,0 l/m 0,0 km/h (0 Bft) N-NO 21 0 min 0,000 mm 0,0 UV-I 19 W/m 13,7 C 17,2 C 0,0 km/h (0 Bft) 97,87 %
08.09.2017 19:12 17,1 C 19,4 C 79 % 1007,2 hPa 0,0 l/m 0,0 km/h (0 Bft) N-NO 21 0 min 0,000 mm 0,0 UV-I 17 W/m 13,4 C 17,1 C 0,0 km/h (0 Bft) 95,74 %
08.09.2017 19:14 16,9 C 19,4 C 80 % 1007,1 hPa 0,0 l/m 0,0 km/h (0 Bft) N-NO 21 0 min 0,000 mm 0,0 UV-I 15 W/m 13,4 C 16,9 C 0,0 km/h (0 Bft) 95,74 %
08.09.2017 19:16 16,7 C 19,4 C 81 % 1007,1 hPa 0,0 l/m 0,0 km/h (0 Bft) N-NO 21 0 min 0,000 mm 0,0 UV-I 13 W/m 13,4 C 16,7 C 1,6 km/h (1 Bft) 96,00 %
08.09.2017 19:18 16,4 C 19,4 C 81 % 1007,1 hPa 0,0 l/m 0,0 km/h (0 Bft) N-NO 22 2 min 0,000 mm 0,0 UV-I 12 W/m 13,1 C 16,4 C 0,0 km/h (0 Bft) 94,74 %
08.09.2017 19:20 16,2 C 19,4 C 82 % 1007,1 hPa 0,0 l/m 0,0 km/h (0 Bft) N-NO 21 2 min 0,000 mm 0,0 UV-I 11 W/m 13,1 C 16,2 C 0,0 km/h (0 Bft) 95,74 %
08.09.2017 19:22 16,0 C 19,4 C 82 % 1007,1 hPa 0,0 l/m 0,0 km/h (0 Bft) N-NO 21 0 min 0,000 mm 0,0 UV-I 9 W/m 12,9 C 16,0 C 0,0 km/h (0 Bft) 95,74 %
08.09.2017 19:24 15,8 C 19,4 C 82 % 1007,1 hPa 0,0 l/m 0,0 km/h (0 Bft) N-NO 21 0 min 0,000 mm 0,0 UV-I 9 W/m 12,7 C 15,8 C 0,0 km/h (0 Bft) 93,62 %
08.09.2017 19:26 15,8 C 19,4 C 83 % 1007,0 hPa 0,0 l/m 0,0 km/h (0 Bft) N-NO 21 0 min 0,000 mm 0,0 UV-I 7 W/m 12,9 C 15,8 C 0,0 km/h (0 Bft) 95,74 %
08.09.2017 19:28 15,7 C 19,4 C 82 % 1007,0 hPa 0,0 l/m 0,0 km/h (0 Bft) N-NO 21 0 min 0,000 mm 0,0 UV-I 7 W/m 12,6 C 15,7 C 0,0 km/h (0 Bft) 95,83 %
08.09.2017 19:30 15,7 C 19,4 C 82 % 1007,0 hPa 0,0 l/m 0,0 km/h (0 Bft) N 0 0 min 0,000 mm 0,0 UV-I 7 W/m 12,6 C 15,7 C 0,0 km/h (0 Bft) 98,25 %
08.09.2017 19:35 15,4 C 19,4 C 84 % 1006,8 hPa 0,0 l/m 0,0 km/h (0 Bft) N 0 0 min 0,000 mm 0,0 UV-I 5 W/m 12,7 C 15,4 C 0,0 km/h (0 Bft) 97,37 %
08.09.2017 19:38 15,3 C 19,4 C 84 % 1006,9 hPa 0,0 l/m 0,0 km/h (0 Bft) N-NO 22 0 min 0,000 mm 0,0 UV-I 5 W/m 12,6 C 15,3 C 0,0 km/h (0 Bft) 80,00 %
08.09.2017 19:40 15,2 C 19,4 C 85 % 1006,9 hPa 0,0 l/m 0,0 km/h (0 Bft) N-NO 21 0 min 0,000 mm 0,0 UV-I 5 W/m 12,7 C 15,2 C 0,0 km/h (0 Bft) 98,61 %
08.09.2017 19:42 15,1 C 19,4 C 84 % 1006,9 hPa 0,0 l/m 0,0 km/h (0 Bft) N-NO 21 0 min 0,000 mm 0,0 UV-I 0 W/m 12,4 C 15,1 C 0,0 km/h (0 Bft) 97,44 %
08.09.2017 19:44 15,0 C 19,4 C 84 % 1006,9 hPa 0,0 l/m 0,0 km/h (0 Bft) N-NO 22 0 min 0,000 mm 0,0 UV-I 0 W/m 12,3 C 15,0 C 0,0 km/h (0 Bft) 96,00 %
08.09.2017 19:46 15,0 C 19,4 C 84 % 1006,9 hPa 0,0 l/m 0,0 km/h (0 Bft) N-NO 21 0 min 0,000 mm 0,0 UV-I 0 W/m 12,3 C 15,0 C 0,0 km/h (0 Bft) 97,56 %
08.09.2017 19:48 15,0 C 19,4 C 84 % 1006,9 hPa 0,0 l/m 0,0 km/h (0 Bft) N-NO 21 0 min 0,000 mm 0,0 UV-I 0 W/m 12,3 C 15,0 C 0,0 km/h (0 Bft) 96,23 %
08.09.2017 19:50 15,0 C 19,4 C 84 % 1006,9 hPa 0,0 l/m 0,0 km/h (0 Bft) N-NO 21 0 min 0,000 mm 0,0 UV-I 0 W/m 12,3 C 15,0 C 0,0 km/h (0 Bft) 100,00 %
08.09.2017 19:52 15,0 C 19,4 C 84 % 1006,9 hPa 0,0 l/m 0,0 km/h (0 Bft) N-NO 21 0 min 0,000 mm 0,0 UV-I 0 W/m 12,3 C 15,0 C 0,0 km/h (0 Bft) 100,00 %
08.09.2017 19:54 15,0 C 19,4 C 84 % 1007,0 hPa 0,0 l/m 0,0 km/h (0 Bft) N-NO 21 0 min 0,000 mm 0,0 UV-I 0 W/m 12,3 C 15,0 C 0,0 km/h (0 Bft) 100,00 %
08.09.2017 19:56 15,0 C 19,4 C 84 % 1007,0 hPa 0,0 l/m 0,0 km/h (0 Bft) N-NO 22 0 min 0,000 mm 0,0 UV-I 0 W/m 12,3 C 15,0 C 0,0 km/h (0 Bft) 98,00 %
08.09.2017 19:58 15,1 C 19,4 C 83 % 1006,9 hPa 0,0 l/m 2,0 km/h (1 Bft) N-NO 21 0 min 0,000 mm 0,0 UV-I 0 W/m 12,2 C 15,1 C 3,2 km/h (1 Bft) 97,56 %
08.09.2017 20:00 15,0 C 19,4 C 84 % 1007,0 hPa 0,0 l/m 2,1 km/h (1 Bft) N-NO 21 0 min 0,000 mm 0,0 UV-I 0 W/m 12,3 C 15,0 C 3,2 km/h (1 Bft) 100,00 %
08.09.2017 20:03 14,9 C 19,4 C 84 % 1007,0 hPa 0,0 l/m 1,5 km/h (1 Bft) N-NO 21 0 min 0,000 mm 0,0 UV-I 0 W/m 12,2 C 14,9 C 3,2 km/h (1 Bft) 100,00 %
08.09.2017 20:04 14,9 C 19,4 C 84 % 1007,0 hPa 0,0 l/m 2,0 km/h (1 Bft) N-NO 21 0 min 0,000 mm 0,0 UV-I 0 W/m 12,2 C 14,9 C 3,2 km/h (1 Bft) 100,00 %
08.09.2017 20:06 14,8 C 19,4 C 84 % 1007,0 hPa 0,0 l/m 1,7 km/h (1 Bft) N-NO 21 0 min 0,000 mm 0,0 UV-I 0 W/m 12,1 C 14,8 C 3,2 km/h (1 Bft) 100,00 %
08.09.2017 20:08 14,8 C 19,4 C 85 % 1007,1 hPa 0,0 l/m 1,9 km/h (1 Bft) N-NO 21 0 min 0,000 mm 0,0 UV-I 0 W/m 12,3 C 14,8 C 3,2 km/h (1 Bft) 100,00 %
08.09.2017 20:10 14,7 C 19,4 C 85 % 1007,1 hPa 0,0 l/m 1,6 km/h (1 Bft) N-NO 21 0 min 0,000 mm 0,0 UV-I 0 W/m 12,2 C 14,7 C 3,2 km/h (1 Bft) 100,00 %
08.09.2017 20:12 14,6 C 19,4 C 85 % 1007,1 hPa 0,0 l/m 1,6 km/h (1 Bft) N-NO 21 0 min 0,000 mm 0,0 UV-I 0 W/m 12,1 C 14,6 C 3,2 km/h (1 Bft) 100,00 %
08.09.2017 20:14 14,6 C 19,4 C 86 % 1007,1 hPa 0,0 l/m 2,2 km/h (1 Bft) N-NO 21 0 min 0,000 mm 0,0 UV-I 0 W/m 12,3 C 14,6 C 3,2 km/h (1 Bft) 100,00 %
08.09.2017 20:16 14,6 C 19,4 C 86 % 1007,1 hPa 0,0 l/m 2,5 km/h (1 Bft) N-NO 21 0 min 0,000 mm 0,0 UV-I 0 W/m 12,3 C 14,6 C 3,2 km/h (1 Bft) 98,11 %
08.09.2017 20:18 14,6 C 19,4 C 86 % 1007,1 hPa 0,0 l/m 0,3 km/h (0 Bft) N-NO 21 0 min 0,000 mm 0,0 UV-I 0 W/m 12,3 C 14,6 C 3,2 km/h (1 Bft) 96,00 %
08.09.2017 20:20 14,4 C 19,4 C 86 % 1007,1 hPa 0,0 l/m 0,0 km/h (0 Bft) N-NO 21 0 min 0,000 mm 0,0 UV-I 0 W/m 12,1 C 14,4 C 1,6 km/h (1 Bft) 97,87 %
08.09.2017 20:22 14,3 C 19,4 C 85 % 1007,1 hPa 0,0 l/m 0,0 km/h (0 Bft) N-NO 21 0 min 0,000 mm 0,0 UV-I 0 W/m 11,8 C 14,3 C 0,0 km/h (0 Bft) 97,87 %
08.09.2017 20:24 14,3 C 19,4 C 86 % 1007,1 hPa 0,0 l/m 0,0 km/h (0 Bft) N-NO 21 0 min 0,000 mm 0,0 UV-I 0 W/m 12,0 C 14,3 C 0,0 km/h (0 Bft) 100,00 %
08.09.2017 20:26 14,3 C 19,4 C 85 % 1007,2 hPa 0,0 l/m 0,0 km/h (0 Bft) N-NO 21 0 min 0,000 mm 0,0 UV-I 0 W/m 11,8 C 14,3 C 0,0 km/h (0 Bft) 100,00 %
08.09.2017 20:28 14,3 C 19,4 C 85 % 1007,2 hPa 0,0 l/m 0,9 km/h (0 Bft) N-NO 21 0 min 0,000 mm 0,0 UV-I 0 W/m 11,8 C 14,3 C 1,6 km/h (1 Bft) 97,87 %
08.09.2017 20:30 14,3 C 19,4 C 85 % 1007,2 hPa 0,0 l/m 0,0 km/h (0 Bft) N-NO 21 0 min 0,000 mm 0,0 UV-I 0 W/m 11,8 C 14,3 C 1,6 km/h (1 Bft) 100,00 %
08.09.2017 20:32 14,2 C 19,4 C 85 % 1007,2 hPa 0,0 l/m 0,1 km/h (0 Bft) N-NO 21 0 min 0,000 mm 0,0 UV-I 0 W/m 11,7 C 14,2 C 1,6 km/h (1 Bft) 97,37 %
08.09.2017 20:34 14,2 C 19,4 C 85 % 1007,2 hPa 0,0 l/m 0,0 km/h (0 Bft) N-NO 21 0 min 0,000 mm 0,0 UV-I 0 W/m 11,7 C 14,2 C 0,0 km/h (0 Bft) 100,00 %
08.09.2017 20:36 14,1 C 19,4 C 86 % 1007,2 hPa 0,0 l/m 0,0 km/h (0 Bft) N-NO 21 0 min 0,000 mm 0,0 UV-I 0 W/m 11,8 C 14,1 C 0,0 km/h (0 Bft) 100,00 %
08.09.2017 20:38 14,0 C 19,4 C 86 % 1007,1 hPa 0,0 l/m 0,0 km/h (0 Bft) N-NO 21 0 min 0,000 mm 0,0 UV-I 0 W/m 11,7 C 14,0 C 0,0 km/h (0 Bft) 100,00 %
08.09.2017 20:40 13,9 C 19,4 C 85 % 1007,1 hPa 0,0 l/m 0,0 km/h (0 Bft) N-NO 21 0 min 0,000 mm 0,0 UV-I 0 W/m 11,4 C 13,9 C 0,0 km/h (0 Bft) 100,00 %
08.09.2017 20:42 13,9 C 19,4 C 85 % 1007,1 hPa 0,0 l/m 0,0 km/h (0 Bft) N-NO 21 0 min 0,000 mm 0,0 UV-I 0 W/m 11,4 C 13,9 C 0,0 km/h (0 Bft) 100,00 %
08.09.2017 20:44 13,9 C 19,4 C 85 % 1007,1 hPa 0,0 l/m 0,0 km/h (0 Bft) N-NO 21 0 min 0,000 mm 0,0 UV-I 0 W/m 11,4 C 13,9 C 0,0 km/h (0 Bft) 100,00 %
08.09.2017 20:46 14,0 C 19,4 C 85 % 1007,1 hPa 0,0 l/m 0,7 km/h (0 Bft) N-NO 21 0 min 0,000 mm 0,0 UV-I 0 W/m 11,5 C 14,0 C 3,2 km/h (1 Bft) 100,00 %
08.09.2017 20:48 14,1 C 19,4 C 85 % 1007,1 hPa 0,0 l/m 2,2 km/h (1 Bft) N-NO 21 0 min 0,000 mm 0,0 UV-I 0 W/m 11,6 C 14,1 C 3,2 km/h (1 Bft) 100,00 %
08.09.2017 20:50 14,1 C 19,4 C 84 % 1007,1 hPa 0,0 l/m 2,8 km/h (1 Bft) N-NO 21 0 min 0,000 mm 0,0 UV-I 0 W/m 11,4 C 14,1 C 4,8 km/h (1 Bft) 100,00 %
08.09.2017 20:52 14,1 C 19,4 C 84 % 1007,1 hPa 0,0 l/m 2,7 km/h (1 Bft) N-NO 21 0 min 0,000 mm 0,0 UV-I 0 W/m 11,4 C 14,1 C 4,8 km/h (1 Bft) 100,00 %
08.09.2017 20:54 14,1 C 19,4 C 84 % 1007,1 hPa 0,0 l/m 1,7 km/h (1 Bft) N-NO 21 0 min 0,000 mm 0,0 UV-I 0 W/m 11,4 C 14,1 C 3,2 km/h (1 Bft) 100,00 %
08.09.2017 20:56 13,9 C 19,4 C 85 % 1007,1 hPa 0,0 l/m 1,2 km/h (1 Bft) N-NO 21 0 min 0,000 mm 0,0 UV-I 0 W/m 11,4 C 13,9 C 3,2 km/h (1 Bft) 100,00 %
08.09.2017 20:58 13,8 C 19,4 C 85 % 1007,1 hPa 0,0 l/m 2,5 km/h (1 Bft) N-NO 21 0 min 0,000 mm 0,0 UV-I 0 W/m 11,3 C 13,8 C 3,2 km/h (1 Bft) 100,00 %
08.09.2017 21:00 13,8 C 19,4 C 85 % 1007,1 hPa 0,0 l/m 2,1 km/h (1 Bft) W 266 0 min 0,000 mm 0,0 UV-I 0 W/m 11,3 C 13,8 C 4,8 km/h (1 Bft) 100,00 %
08.09.2017 21:02 13,8 C 19,4 C 85 % 1007,1 hPa 0,0 l/m 1,7 km/h (1 Bft) W 266 0 min 0,000 mm 0,0 UV-I 0 W/m 11,3 C 13,8 C 3,2 km/h (1 Bft) 100,00 %
08.09.2017 21:04 13,8 C 19,4 C 85 % 1007,2 hPa 0,0 l/m 1,1 km/h (1 Bft) W 266 0 min 0,000 mm 0,0 UV-I 0 W/m 11,3 C 13,8 C 3,2 km/h (1 Bft) 100,00 %
08.09.2017 21:06 13,8 C 19,4 C 85 % 1007,2 hPa 0,0 l/m 1,3 km/h (1 Bft) W 266 0 min 0,000 mm 0,0 UV-I 0 W/m 11,3 C 13,8 C 3,2 km/h (1 Bft) 98,08 %
08.09.2017 21:08 13,7 C 19,4 C 85 % 1007,2 hPa 0,0 l/m 0,8 km/h (0 Bft) W 266 0 min 0,000 mm 0,0 UV-I 0 W/m 11,2 C 13,7 C 3,2 km/h (1 Bft) 97,22 %
08.09.2017 21:10 13,7 C 19,4 C 85 % 1007,1 hPa 0,0 l/m 2,0 km/h (1 Bft) W 266 0 min 0,000 mm 0,0 UV-I 0 W/m 11,2 C 13,7 C 3,2 km/h (1 Bft) 100,00 %
08.09.2017 21:12 13,6 C 19,4 C 85 % 1007,1 hPa 0,0 l/m 2,3 km/h (1 Bft) W 266 0 min 0,000 mm 0,0 UV-I 0 W/m 11,1 C 13,6 C 3,2 km/h (1 Bft) 98,00 %
08.09.2017 21:14 13,6 C 19,4 C 85 % 1007,1 hPa 0,0 l/m 2,9 km/h (1 Bft) W 266 0 min 0,000 mm 0,0 UV-I 0 W/m 11,1 C 13,6 C 3,2 km/h (1 Bft) 98,00 %
08.09.2017 21:16 13,6 C 19,4 C 85 % 1007,0 hPa 0,0 l/m 3,1 km/h (1 Bft) W 266 0 min 0,000 mm 0,0 UV-I 0 W/m 11,1 C 13,6 C 4,8 km/h (1 Bft) 100,00 %
08.09.2017 21:18 13,6 C 19,4 C 85 % 1007,0 hPa 0,0 l/m 3,5 km/h (1 Bft) W 266 0 min 0,000 mm 0,0 UV-I 0 W/m 11,1 C 13,6 C 4,8 km/h (1 Bft) 97,87 %
08.09.2017 21:20 13,5 C 19,4 C 85 % 1007,0 hPa 0,0 l/m 3,5 km/h (1 Bft) W 266 0 min 0,000 mm 0,0 UV-I 0 W/m 11,0 C 13,5 C 4,8 km/h (1 Bft) 100,00 %
08.09.2017 21:22 13,5 C 19,4 C 85 % 1007,0 hPa 0,0 l/m 3,6 km/h (1 Bft) W 266 0 min 0,000 mm 0,0 UV-I 0 W/m 11,0 C 13,5 C 4,8 km/h (1 Bft) 100,00 %
08.09.2017 21:24 13,4 C 19,4 C 86 % 1007,0 hPa 0,0 l/m 3,3 km/h (1 Bft) W 266 0 min 0,000 mm 0,0 UV-I 0 W/m 11,1 C 13,4 C 4,8 km/h (1 Bft) 100,00 %
08.09.2017 21:26 13,4 C 19,4 C 86 % 1007,0 hPa 0,0 l/m 3,9 km/h (1 Bft) W 266 0 min 0,000 mm 0,0 UV-I 0 W/m 11,1 C 13,4 C 4,8 km/h (1 Bft) 100,00 %
08.09.2017 21:28 13,3 C 19,4 C 86 % 1007,0 hPa 0,0 l/m 4,1 km/h (1 Bft) W 266 0 min 0,000 mm 0,0 UV-I 0 W/m 11,0 C 13,3 C 6,4 km/h (2 Bft) 100,00 %
08.09.2017 21:30 13,3 C 19,4 C 86 % 1007,1 hPa 0,0 l/m 3,5 km/h (1 Bft) W 264 0 min 0,000 mm 0,0 UV-I 0 W/m 11,0 C 13,3 C 4,8 km/h (1 Bft) 96,88 %
08.09.2017 21:32 13,2 C 19,4 C 86 % 1007,0 hPa 0,0 l/m 4,3 km/h (1 Bft) W-SW 244 0 min 0,000 mm 0,0 UV-I 0 W/m 10,9 C 13,2 C 6,4 km/h (2 Bft) 95,74 %
08.09.2017 21:34 13,2 C 19,4 C 87 % 1007,0 hPa 0,0 l/m 3,8 km/h (1 Bft) W-SW 244 0 min 0,000 mm 0,0 UV-I 0 W/m 11,1 C 13,2 C 4,8 km/h (1 Bft) 97,87 %
08.09.2017 21:36 13,1 C 19,4 C 87 % 1007,0 hPa 0,0 l/m 4,8 km/h (1 Bft) W-SW 244 0 min 0,000 mm 0,0 UV-I 0 W/m 11,0 C 13,1 C 6,4 km/h (2 Bft) 95,74 %
08.09.2017 21:38 13,1 C 19,4 C 87 % 1007,0 hPa 0,0 l/m 5,1 km/h (1 Bft) W-SW 244 0 min 0,000 mm 0,0 UV-I 0 W/m 11,0 C 13,1 C 6,4 km/h (2 Bft) 98,00 %
08.09.2017 21:40 13,1 C 19,4 C 87 % 1007,0 hPa 0,0 l/m 4,7 km/h (1 Bft) W-SW 244 0 min 0,000 mm 0,0 UV-I 0 W/m 11,0 C 13,1 C 6,4 km/h (2 Bft) 96,00 %
08.09.2017 21:42 13,1 C 19,4 C 87 % 1006,9 hPa 0,0 l/m 3,5 km/h (1 Bft) S-SW 195 0 min 0,000 mm 0,0 UV-I 0 W/m 11,0 C 13,1 C 6,4 km/h (2 Bft) 97,44 %
08.09.2017 21:44 13,2 C 19,4 C 87 % 1006,9 hPa 0,0 l/m 2,5 km/h (1 Bft) S 180 0 min 0,000 mm 0,0 UV-I 0 W/m 11,1 C 13,2 C 4,8 km/h (1 Bft) 96,15 %
08.09.2017 21:46 13,3 C 19,4 C 86 % 1007,0 hPa 0,0 l/m 1,8 km/h (1 Bft) S 180 0 min 0,000 mm 0,0 UV-I 0 W/m 11,0 C 13,3 C 3,2 km/h (1 Bft) 96,00 %
08.09.2017 21:48 13,3 C 19,4 C 86 % 1007,0 hPa 0,0 l/m 2,3 km/h (1 Bft) S 180 0 min 0,000 mm 0,0 UV-I 0 W/m 11,0 C 13,3 C 4,8 km/h (1 Bft) 97,62 %
08.09.2017 21:50 13,3 C 19,4 C 86 % 1006,9 hPa 0,0 l/m 3,1 km/h (1 Bft) S 174 0 min 0,000 mm 0,0 UV-I 0 W/m 11,0 C 13,3 C 8,0 km/h (2 Bft) 98,11 %
08.09.2017 21:52 13,4 C 19,4 C 86 % 1006,9 hPa 0,0 l/m 3,6 km/h (1 Bft) S 184 0 min 0,000 mm 0,0 UV-I 0 W/m 11,1 C 13,4 C 4,8 km/h (1 Bft) 95,12 %
08.09.2017 21:54 13,5 C 19,4 C 85 % 1006,9 hPa 0,0 l/m 4,3 km/h (1 Bft) S 188 0 min 0,000 mm 0,0 UV-I 0 W/m 11,0 C 13,5 C 6,4 km/h (2 Bft) 97,37 %
08.09.2017 21:56 13,6 C 19,4 C 85 % 1006,9 hPa 0,0 l/m 4,7 km/h (1 Bft) S 185 0 min 0,000 mm 0,0 UV-I 0 W/m 11,1 C 13,6 C 8,0 km/h (2 Bft) 98,21 %
08.09.2017 21:58 13,6 C 19,4 C 85 % 1006,9 hPa 0,0 l/m 4,6 km/h (1 Bft) S 183 0 min 0,000 mm 0,0 UV-I 0 W/m 11,1 C 13,6 C 8,0 km/h (2 Bft) 98,00 %
08.09.2017 22:00 13,6 C 19,4 C 85 % 1007,0 hPa 0,0 l/m 4,2 km/h (1 Bft) S 189 0 min 0,000 mm 0,0 UV-I 0 W/m 11,1 C 13,6 C 6,4 km/h (2 Bft) 97,56 %
08.09.2017 22:03 13,6 C 19,4 C 85 % 1006,9 hPa 0,0 l/m 4,9 km/h (1 Bft) S 184 0 min 0,000 mm 0,0 UV-I 0 W/m 11,1 C 13,6 C 8,0 km/h (2 Bft) 98,00 %
08.09.2017 22:04 13,6 C 19,4 C 85 % 1006,9 hPa 0,0 l/m 3,8 km/h (1 Bft) S 171 0 min 0,000 mm 0,0 UV-I 0 W/m 11,1 C 13,6 C 6,4 km/h (2 Bft) 95,74 %
08.09.2017 22:06 13,6 C 19,4 C 85 % 1006,9 hPa 0,0 l/m 3,7 km/h (1 Bft) S 175 0 min 0,000 mm 0,0 UV-I 0 W/m 11,1 C 13,6 C 6,4 km/h (2 Bft) 97,87 %
08.09.2017 22:08 13,6 C 19,4 C 86 % 1006,9 hPa 0,0 l/m 4,5 km/h (1 Bft) S 172 0 min 0,000 mm 0,0 UV-I 0 W/m 11,3 C 13,6 C 8,0 km/h (2 Bft) 100,00 %
08.09.2017 22:10 13,6 C 19,4 C 86 % 1006,9 hPa 0,0 l/m 4,2 km/h (1 Bft) S-SO 168 0 min 0,000 mm 0,0 UV-I 0 W/m 11,3 C 13,6 C 6,4 km/h (2 Bft) 100,00 %
08.09.2017 22:12 13,6 C 19,4 C 86 % 1006,9 hPa 0,0 l/m 3,8 km/h (1 Bft) S 174 0 min 0,000 mm 0,0 UV-I 0 W/m 11,3 C 13,6 C 8,0 km/h (2 Bft) 100,00 %
08.09.2017 22:14 13,6 C 19,4 C 86 % 1006,9 hPa 0,0 l/m 4,3 km/h (1 Bft) S 172 0 min 0,000 mm 0,0 UV-I 0 W/m 11,3 C 13,6 C 8,0 km/h (2 Bft) 97,87 %
08.09.2017 22:16 13,6 C 19,4 C 86 % 1006,9 hPa 0,0 l/m 3,4 km/h (1 Bft) S-SW 195 0 min 0,000 mm 0,0 UV-I 0 W/m 11,3 C 13,6 C 8,0 km/h (2 Bft) 97,56 %
08.09.2017 22:18 13,6 C 19,4 C 86 % 1006,8 hPa 0,0 l/m 3,6 km/h (1 Bft) S 171 0 min 0,000 mm 0,0 UV-I 0 W/m 11,3 C 13,6 C 6,4 km/h (2 Bft) 98,00 %
08.09.2017 22:20 13,6 C 19,4 C 87 % 1006,8 hPa 0,0 l/m 4,4 km/h (1 Bft) S 175 0 min 0,000 mm 0,0 UV-I 0 W/m 11,5 C 13,6 C 8,0 km/h (2 Bft) 98,00 %
08.09.2017 22:22 13,6 C 19,4 C 87 % 1006,9 hPa 0,0 l/m 4,7 km/h (1 Bft) S 181 0 min 0,000 mm 0,0 UV-I 0 W/m 11,5 C 13,6 C 6,4 km/h (2 Bft) 97,62 %
08.09.2017 22:24 13,6 C 19,4 C 87 % 1006,8 hPa 0,0 l/m 4,3 km/h (1 Bft) S-SO 166 0 min 0,000 mm 0,0 UV-I 0 W/m 11,5 C 13,6 C 6,4 km/h (2 Bft) 96,15 %
08.09.2017 22:26 13,6 C 19,4 C 87 % 1006,8 hPa 0,0 l/m 4,4 km/h (1 Bft) S-SW 194 0 min 0,000 mm 0,0 UV-I 0 W/m 11,5 C 13,6 C 8,0 km/h (2 Bft) 95,83 %
08.09.2017 22:28 13,6 C 19,4 C 87 % 1006,8 hPa 0,0 l/m 3,4 km/h (1 Bft) S 179 0 min 0,000 mm 0,0 UV-I 0 W/m 11,5 C 13,6 C 4,8 km/h (1 Bft) 98,46 %
08.09.2017 22:30 13,5 C 19,4 C 87 % 1006,8 hPa 0,0 l/m 3,3 km/h (1 Bft) S 181 0 min 0,000 mm 0,0 UV-I 0 W/m 11,4 C 13,5 C 4,8 km/h (1 Bft) 97,87 %
08.09.2017 22:32 13,4 C 19,4 C 87 % 1006,8 hPa 0,0 l/m 2,4 km/h (1 Bft) S 181 0 min 0,000 mm 0,0 UV-I 0 W/m 11,3 C 13,4 C 3,2 km/h (1 Bft) 96,00 %
08.09.2017 22:34 13,4 C 19,4 C 88 % 1006,8 hPa 0,0 l/m 3,0 km/h (1 Bft) S 181 0 min 0,000 mm 0,0 UV-I 0 W/m 11,5 C 13,4 C 4,8 km/h (1 Bft) 100,00 %
08.09.2017 22:36 13,3 C 19,4 C 88 % 1006,8 hPa 0,0 l/m 3,0 km/h (1 Bft) S 181 0 min 0,000 mm 0,0 UV-I 0 W/m 11,4 C 13,3 C 4,8 km/h (1 Bft) 96,00 %
08.09.2017 22:38 13,3 C 19,4 C 88 % 1006,7 hPa 0,0 l/m 2,0 km/h (1 Bft) S 181 0 min 0,000 mm 0,0 UV-I 0 W/m 11,4 C 13,3 C 4,8 km/h (1 Bft) 96,23 %
08.09.2017 22:40 13,2 C 19,4 C 88 % 1006,7 hPa 0,0 l/m 2,7 km/h (1 Bft) S 181 0 min 0,000 mm 0,0 UV-I 0 W/m 11,3 C 13,2 C 4,8 km/h (1 Bft) 97,87 %
08.09.2017 22:42 13,2 C 19,4 C 89 % 1006,7 hPa 0,0 l/m 1,9 km/h (1 Bft) S 181 0 min 0,000 mm 0,0 UV-I 0 W/m 11,4 C 13,2 C 4,8 km/h (1 Bft) 97,37 %
08.09.2017 22:44 13,2 C 19,4 C 89 % 1006,7 hPa 0,0 l/m 3,0 km/h (1 Bft) S 181 0 min 0,000 mm 0,0 UV-I 0 W/m 11,4 C 13,2 C 4,8 km/h (1 Bft) 95,74 %
08.09.2017 22:46 13,2 C 19,4 C 89 % 1006,7 hPa 0,0 l/m 2,6 km/h (1 Bft) S 181 0 min 0,000 mm 0,0 UV-I 0 W/m 11,4 C 13,2 C 4,8 km/h (1 Bft) 98,00 %
08.09.2017 22:48 13,2 C 19,4 C 89 % 1006,7 hPa 0,0 l/m 1,1 km/h (1 Bft) S 181 0 min 0,000 mm 0,0 UV-I 0 W/m 11,4 C 13,2 C 3,2 km/h (1 Bft) 96,00 %
08.09.2017 22:50 13,1 C 19,4 C 89 % 1006,7 hPa 0,0 l/m 1,5 km/h (1 Bft) S 181 0 min 0,000 mm 0,0 UV-I 0 W/m 11,3 C 13,1 C 3,2 km/h (1 Bft) 94,74 %
08.09.2017 22:52 13,1 C 18,9 C 90 % 1006,7 hPa 0,0 l/m 2,8 km/h (1 Bft) S 181 0 min 0,000 mm 0,0 UV-I 0 W/m 11,5 C 13,1 C 4,8 km/h (1 Bft) 92,00 %
08.09.2017 22:54 13,1 C 18,9 C 90 % 1006,7 hPa 0,0 l/m 0,9 km/h (0 Bft) S 181 0 min 0,000 mm 0,0 UV-I 0 W/m 11,5 C 13,1 C 3,2 km/h (1 Bft) 97,87 %
08.09.2017 22:56 13,1 C 18,9 C 90 % 1006,6 hPa 0,0 l/m 2,5 km/h (1 Bft) S 181 0 min 0,000 mm 0,0 UV-I 0 W/m 11,5 C 13,1 C 4,8 km/h (1 Bft) 95,24 %
08.09.2017 22:58 13,1 C 18,9 C 90 % 1006,6 hPa 0,0 l/m 3,1 km/h (1 Bft) S 182 0 min 0,000 mm 0,0 UV-I 0 W/m 11,5 C 13,1 C 4,8 km/h (1 Bft) 96,15 %
08.09.2017 23:00 13,1 C 18,9 C 90 % 1006,6 hPa 0,0 l/m 2,9 km/h (1 Bft) S 182 0 min 0,000 mm 0,0 UV-I 0 W/m 11,5 C 13,1 C 4,8 km/h (1 Bft) 97,92 %
08.09.2017 23:02 13,1 C 18,9 C 90 % 1006,6 hPa 0,0 l/m 2,7 km/h (1 Bft) S 182 0 min 0,000 mm 0,0 UV-I 0 W/m 11,5 C 13,1 C 4,8 km/h (1 Bft) 97,14 %
08.09.2017 23:04 13,1 C 19,4 C 90 % 1006,6 hPa 0,0 l/m 2,3 km/h (1 Bft) S 182 0 min 0,000 mm 0,0 UV-I 0 W/m 11,5 C 13,1 C 4,8 km/h (1 Bft) 98,21 %
08.09.2017 23:06 13,1 C 18,9 C 90 % 1006,6 hPa 0,0 l/m 3,1 km/h (1 Bft) S 182 0 min 0,000 mm 0,0 UV-I 0 W/m 11,5 C 13,1 C 4,8 km/h (1 Bft) 98,11 %
08.09.2017 23:08 13,1 C 18,9 C 90 % 1006,6 hPa 0,0 l/m 2,5 km/h (1 Bft) S 182 0 min 0,000 mm 0,0 UV-I 0 W/m 11,5 C 13,1 C 4,8 km/h (1 Bft) 97,56 %
08.09.2017 23:10 13,0 C 18,9 C 90 % 1006,6 hPa 0,0 l/m 2,1 km/h (1 Bft) S 182 0 min 0,000 mm 0,0 UV-I 0 W/m 11,4 C 13,0 C 4,8 km/h (1 Bft) 98,21 %
08.09.2017 23:12 13,0 C 19,4 C 90 % 1006,6 hPa 0,0 l/m 2,4 km/h (1 Bft) S 182 0 min 0,000 mm 0,0 UV-I 0 W/m 11,4 C 13,0 C 4,8 km/h (1 Bft) 97,56 %
08.09.2017 23:14 13,0 C 18,9 C 90 % 1006,6 hPa 0,0 l/m 3,2 km/h (1 Bft) S 182 0 min 0,000 mm 0,0 UV-I 0 W/m 11,4 C 13,0 C 4,8 km/h (1 Bft) 98,00 %
08.09.2017 23:16 13,0 C 18,9 C 90 % 1006,6 hPa 0,0 l/m 3,3 km/h (1 Bft) S 182 0 min 0,000 mm 0,0 UV-I 0 W/m 11,4 C 13,0 C 4,8 km/h (1 Bft) 100,00 %
08.09.2017 23:18 13,0 C 18,9 C 90 % 1006,6 hPa 0,0 l/m 2,2 km/h (1 Bft) S 182 0 min 0,000 mm 0,0 UV-I 0 W/m 11,4 C 13,0 C 4,8 km/h (1 Bft) 97,14 %
08.09.2017 23:20 13,0 C 18,9 C 90 % 1006,6 hPa 0,0 l/m 2,4 km/h (1 Bft) S 182 0 min 0,000 mm 0,0 UV-I 0 W/m 11,4 C 13,0 C 4,8 km/h (1 Bft) 98,11 %
08.09.2017 23:22 12,9 C 18,9 C 91 % 1006,5 hPa 0,0 l/m 2,7 km/h (1 Bft) S 182 0 min 0,000 mm 0,0 UV-I 0 W/m 11,5 C 12,9 C 4,8 km/h (1 Bft) 100,00 %
08.09.2017 23:24 13,0 C 18,9 C 91 % 1006,6 hPa 0,0 l/m 3,3 km/h (1 Bft) S-SW 196 0 min 0,000 mm 0,0 UV-I 0 W/m 11,6 C 13,0 C 6,4 km/h (2 Bft) 98,31 %
08.09.2017 23:26 13,0 C 18,9 C 91 % 1006,6 hPa 0,0 l/m 3,0 km/h (1 Bft) S 182 0 min 0,000 mm 0,0 UV-I 0 W/m 11,6 C 13,0 C 6,4 km/h (2 Bft) 97,56 %
08.09.2017 23:28 13,0 C 18,9 C 91 % 1006,7 hPa 0,0 l/m 2,8 km/h (1 Bft) S 181 0 min 0,000 mm 0,0 UV-I 0 W/m 11,6 C 13,0 C 4,8 km/h (1 Bft) 100,00 %
08.09.2017 23:30 13,0 C 18,9 C 90 % 1006,7 hPa 0,0 l/m 2,9 km/h (1 Bft) S 180 0 min 0,000 mm 0,0 UV-I 0 W/m 11,4 C 13,0 C 4,8 km/h (1 Bft) 100,00 %
08.09.2017 23:32 13,0 C 18,9 C 90 % 1006,6 hPa 0,0 l/m 3,3 km/h (1 Bft) S 180 0 min 0,000 mm 0,0 UV-I 0 W/m 11,4 C 13,0 C 4,8 km/h (1 Bft) 98,00 %
08.09.2017 23:34 13,0 C 18,9 C 90 % 1006,6 hPa 0,0 l/m 4,3 km/h (1 Bft) S 172 0 min 0,000 mm 0,0 UV-I 0 W/m 11,4 C 13,0 C 8,0 km/h (2 Bft) 100,00 %
08.09.2017 23:36 13,0 C 18,9 C 90 % 1006,6 hPa 0,0 l/m 4,0 km/h (1 Bft) S 175 0 min 0,000 mm 0,0 UV-I 0 W/m 11,4 C 13,0 C 8,0 km/h (2 Bft) 97,56 %
08.09.2017 23:38 13,1 C 18,9 C 90 % 1006,6 hPa 0,0 l/m 4,2 km/h (1 Bft) S 175 0 min 0,000 mm 0,0 UV-I 0 W/m 11,5 C 13,1 C 8,0 km/h (2 Bft) 98,11 %
08.09.2017 23:40 13,1 C 18,9 C 91 % 1006,6 hPa 0,0 l/m 3,5 km/h (1 Bft) S-SW 208 0 min 0,000 mm 0,0 UV-I 0 W/m 11,7 C 13,1 C 8,0 km/h (2 Bft) 97,62 %
08.09.2017 23:42 13,1 C 18,9 C 90 % 1006,6 hPa 0,0 l/m 4,9 km/h (1 Bft) S 184 0 min 0,000 mm 0,0 UV-I 0 W/m 11,5 C 13,1 C 8,0 km/h (2 Bft) 96,00 %
08.09.2017 23:44 13,1 C 18,9 C 90 % 1006,6 hPa 0,0 l/m 3,6 km/h (1 Bft) S-SW 197 0 min 0,000 mm 0,0 UV-I 0 W/m 11,5 C 13,1 C 8,0 km/h (2 Bft) 97,96 %
08.09.2017 23:46 13,1 C 18,9 C 90 % 1006,6 hPa 0,0 l/m 2,9 km/h (1 Bft) S-SW 193 0 min 0,000 mm 0,0 UV-I 0 W/m 11,5 C 13,1 C 4,8 km/h (1 Bft) 97,62 %
08.09.2017 23:48 13,1 C 18,9 C 90 % 1006,6 hPa 0,0 l/m 3,0 km/h (1 Bft) S-SO 167 0 min 0,000 mm 0,0 UV-I 0 W/m 11,5 C 13,1 C 8,0 km/h (2 Bft) 94,00 %
08.09.2017 23:50 13,1 C 18,9 C 90 % 1006,6 hPa 0,0 l/m 1,6 km/h (1 Bft) S-SO 167 0 min 0,000 mm 0,0 UV-I 0 W/m 11,5 C 13,1 C 6,4 km/h (2 Bft) 97,56 %
08.09.2017 23:52 13,0 C 18,9 C 90 % 1006,6 hPa 0,0 l/m 1,6 km/h (1 Bft) S-SO 167 0 min 0,000 mm 0,0 UV-I 0 W/m 11,4 C 13,0 C 4,8 km/h (1 Bft) 98,00 %
08.09.2017 23:54 12,9 C 18,9 C 90 % 1006,6 hPa 0,0 l/m 0,3 km/h (0 Bft) S-SO 167 0 min 0,000 mm 0,0 UV-I 0 W/m 11,3 C 12,9 C 1,6 km/h (1 Bft) 96,00 %
08.09.2017 23:56 12,9 C 18,9 C 90 % 1006,5 hPa 0,0 l/m 1,9 km/h (1 Bft) S-SO 167 0 min 0,000 mm 0,0 UV-I 0 W/m 11,3 C 12,9 C 4,8 km/h (1 Bft) 97,37 %
08.09.2017 23:58 12,9 C 18,9 C 90 % 1006,5 hPa 0,0 l/m 2,9 km/h (1 Bft) S-SO 167 0 min 0,000 mm 0,0 UV-I 0 W/m 11,3 C 12,9 C 6,4 km/h (2 Bft) 98,00 %
_ Min-Zeit 06:42 04:26 16:10 23:22 - 02:36 - - - - - - 06:42 06:42 02:36 19:38
Minimum _ 7,2 C 17,8 C 52 % 1006,5 hPa - 0,0 km/h (0 Bft) - - - - - - 6,6 C 7,2 C 0,0 km/h (0 Bft) 80,00 %
_ Max-Zeit 15:42 14:56 05:06 00:18 00:00 14:38 - - 09:03 14:00 12:34 12:46 19:00 15:38 11:10 00:00
Maximum _ 20,7 C 19,4 C 96 % 1015,7 hPa 0,0 l/m 8,4 km/h
NO (2 Bft)
- - 3 min 0,432 mm 4,2 UV-I 721 W/m 13,8 C 20,6 C 14,5 km/h
O-NO (3 Bft)
100,00 %
Durchschnitt _ 13,9 C 18,6 C 81 % 1011,4 hPa #0,0 l/m 2,1 km/h (1 Bft) N-NO - #11:32 h #3,099 mm 2,5 UV-I 402 W/m 10,3 C 13,9 C 4,1 km/h (1 Bft) 97,74 %